<?xml version="1.0" encoding="UTF-8" standalone="yes"?>
<gpx version="1.1" creator="MagicMaps Scout" xmlns:xsi="http://www.w3.org/2001/XMLSchema-instance" xmlns="http://www.topografix.com/GPX/1/1" xsi:schemaLocation="http://www.topografix.com/GPX/1/1 http://www.topografix.com/GPX/1/1/gpx.xsd"><trk><name>Krassow rund ffff</name><trkseg><trkpt lat="53.86474" lon="11.54247"><ele>12</ele><time>2012-09-11T11:01:39Z</time></trkpt><trkpt lat="53.86501" lon="11.54289"><ele>16</ele><time>2012-09-11T11:01:49Z</time></trkpt><trkpt lat="53.86509" lon="11.54297"><ele>13</ele><time>2012-09-11T11:01:51Z</time></trkpt><trkpt lat="53.86517" lon="11.54300"><ele>18</ele><time>2012-09-11T11:01:53Z</time></trkpt><trkpt lat="53.86521" lon="11.54301"><ele>18</ele><time>2012-09-11T11:01:54Z</time></trkpt><trkpt lat="53.86534" lon="11.54305"><ele>18</ele><time>2012-09-11T11:01:57Z</time></trkpt><trkpt lat="53.86540" lon="11.54307"><ele>19</ele><time>2012-09-11T11:01:58Z</time></trkpt><trkpt lat="53.86551" lon="11.54317"><ele>19</ele><time>2012-09-11T11:02:00Z</time></trkpt><trkpt lat="53.86556" lon="11.54323"><ele>20</ele><time>2012-09-11T11:02:01Z</time></trkpt><trkpt lat="53.86561" lon="11.54331"><ele>20</ele><time>2012-09-11T11:02:02Z</time></trkpt><trkpt lat="53.86578" lon="11.54356"><ele>23</ele><time>2012-09-11T11:02:05Z</time></trkpt><trkpt lat="53.86583" lon="11.54364"><ele>23</ele><time>2012-09-11T11:02:06Z</time></trkpt><trkpt lat="53.86596" lon="11.54387"><ele>22</ele><time>2012-09-11T11:02:09Z</time></trkpt><trkpt lat="53.86599" lon="11.54397"><ele>19</ele><time>2012-09-11T11:02:10Z</time></trkpt><trkpt lat="53.86607" lon="11.54429"><ele>18</ele><time>2012-09-11T11:02:13Z</time></trkpt><trkpt lat="53.86611" lon="11.54450"><ele>19</ele><time>2012-09-11T11:02:15Z</time></trkpt><trkpt lat="53.86613" lon="11.54460"><ele>18</ele><time>2012-09-11T11:02:16Z</time></trkpt><trkpt lat="53.86617" lon="11.54481"><ele>16</ele><time>2012-09-11T11:02:18Z</time></trkpt><trkpt lat="53.86620" lon="11.54492"><ele>15</ele><time>2012-09-11T11:02:19Z</time></trkpt><trkpt lat="53.86627" lon="11.54516"><ele>17</ele><time>2012-09-11T11:02:21Z</time></trkpt><trkpt lat="53.86632" lon="11.54529"><ele>18</ele><time>2012-09-11T11:02:22Z</time></trkpt><trkpt lat="53.86674" lon="11.54625"><ele>16</ele><time>2012-09-11T11:02:28Z</time></trkpt><trkpt lat="53.86701" lon="11.54702"><ele>15</ele><time>2012-09-11T11:02:32Z</time></trkpt><trkpt lat="53.86705" lon="11.54719"><ele>16</ele><time>2012-09-11T11:02:33Z</time></trkpt><trkpt lat="53.86743" lon="11.54846"><ele>25</ele><time>2012-09-11T11:02:43Z</time></trkpt><trkpt lat="53.86748" lon="11.54859"><ele>28</ele><time>2012-09-11T11:02:44Z</time></trkpt><trkpt lat="53.86795" lon="11.54989"><ele>31</ele><time>2012-09-11T11:02:53Z</time></trkpt><trkpt lat="53.86838" lon="11.55119"><ele>34</ele><time>2012-09-11T11:03:02Z</time></trkpt><trkpt lat="53.86892" lon="11.55273"><ele>41</ele><time>2012-09-11T11:03:14Z</time></trkpt><trkpt lat="53.86947" lon="11.55423"><ele>44</ele><time>2012-09-11T11:03:25Z</time></trkpt><trkpt lat="53.86994" lon="11.55560"><ele>40</ele><time>2012-09-11T11:03:34Z</time></trkpt><trkpt lat="53.87004" lon="11.55592"><ele>40</ele><time>2012-09-11T11:03:36Z</time></trkpt><trkpt lat="53.87010" lon="11.55607"><ele>40</ele><time>2012-09-11T11:03:37Z</time></trkpt><trkpt lat="53.87022" lon="11.55638"><ele>38</ele><time>2012-09-11T11:03:39Z</time></trkpt><trkpt lat="53.87027" lon="11.55654"><ele>39</ele><time>2012-09-11T11:03:40Z</time></trkpt><trkpt lat="53.87036" lon="11.55686"><ele>41</ele><time>2012-09-11T11:03:42Z</time></trkpt><trkpt lat="53.87040" lon="11.55701"><ele>41</ele><time>2012-09-11T11:03:43Z</time></trkpt><trkpt lat="53.87049" lon="11.55735"><ele>38</ele><time>2012-09-11T11:03:45Z</time></trkpt><trkpt lat="53.87055" lon="11.55750"><ele>38</ele><time>2012-09-11T11:03:46Z</time></trkpt><trkpt lat="53.87064" lon="11.55785"><ele>40</ele><time>2012-09-11T11:03:49Z</time></trkpt><trkpt lat="53.87073" lon="11.55809"><ele>37</ele><time>2012-09-11T11:03:51Z</time></trkpt><trkpt lat="53.87100" lon="11.55881"><ele>48</ele><time>2012-09-11T11:03:57Z</time></trkpt><trkpt lat="53.87107" lon="11.55890"><ele>50</ele><time>2012-09-11T11:03:58Z</time></trkpt><trkpt lat="53.87175" lon="11.55990"><ele>50</ele><time>2012-09-11T11:04:08Z</time></trkpt><trkpt lat="53.87227" lon="11.56063"><ele>45</ele><time>2012-09-11T11:04:18Z</time></trkpt><trkpt lat="53.87237" lon="11.56082"><ele>46</ele><time>2012-09-11T11:04:21Z</time></trkpt><trkpt lat="53.87238" lon="11.56091"><ele>47</ele><time>2012-09-11T11:04:22Z</time></trkpt><trkpt lat="53.87237" lon="11.56100"><ele>48</ele><time>2012-09-11T11:04:23Z</time></trkpt><trkpt lat="53.87235" lon="11.56110"><ele>47</ele><time>2012-09-11T11:04:24Z</time></trkpt><trkpt lat="53.87226" lon="11.56149"><ele>50</ele><time>2012-09-11T11:04:27Z</time></trkpt><trkpt lat="53.87222" lon="11.56161"><ele>49</ele><time>2012-09-11T11:04:28Z</time></trkpt><trkpt lat="53.87184" lon="11.56278"><ele>56</ele><time>2012-09-11T11:04:36Z</time></trkpt><trkpt lat="53.87152" lon="11.56377"><ele>57</ele><time>2012-09-11T11:04:43Z</time></trkpt><trkpt lat="53.87148" lon="11.56389"><ele>56</ele><time>2012-09-11T11:04:44Z</time></trkpt><trkpt lat="53.87138" lon="11.56424"><ele>56</ele><time>2012-09-11T11:04:47Z</time></trkpt><trkpt lat="53.87140" lon="11.56435"><ele>55</ele><time>2012-09-11T11:04:48Z</time></trkpt><trkpt lat="53.87147" lon="11.56463"><ele>58</ele><time>2012-09-11T11:04:51Z</time></trkpt><trkpt lat="53.87155" lon="11.56490"><ele>59</ele><time>2012-09-11T11:04:54Z</time></trkpt><trkpt lat="53.87192" lon="11.56605"><ele>53</ele><time>2012-09-11T11:05:09Z</time></trkpt><trkpt lat="53.87194" lon="11.56614"><ele>52</ele><time>2012-09-11T11:05:10Z</time></trkpt><trkpt lat="53.87197" lon="11.56635"><ele>51</ele><time>2012-09-11T11:05:12Z</time></trkpt><trkpt lat="53.87198" lon="11.56646"><ele>50</ele><time>2012-09-11T11:05:13Z</time></trkpt><trkpt lat="53.87197" lon="11.56687"><ele>46</ele><time>2012-09-11T11:05:17Z</time></trkpt><trkpt lat="53.87196" lon="11.56696"><ele>45</ele><time>2012-09-11T11:05:18Z</time></trkpt><trkpt lat="53.87194" lon="11.56713"><ele>47</ele><time>2012-09-11T11:05:21Z</time></trkpt><trkpt lat="53.87200" lon="11.56719"><ele>47</ele><time>2012-09-11T11:05:25Z</time></trkpt><trkpt lat="53.87202" lon="11.56720"><ele>49</ele><time>2012-09-11T11:05:26Z</time></trkpt><trkpt lat="53.87205" lon="11.56722"><ele>49</ele><time>2012-09-11T11:05:27Z</time></trkpt><trkpt lat="53.87208" lon="11.56724"><ele>49</ele><time>2012-09-11T11:05:28Z</time></trkpt><trkpt lat="53.87250" lon="11.56760"><ele>46</ele><time>2012-09-11T11:05:39Z</time></trkpt><trkpt lat="53.87258" lon="11.56769"><ele>48</ele><time>2012-09-11T11:05:42Z</time></trkpt><trkpt lat="53.87265" lon="11.56771"><ele>43</ele><time>2012-09-11T11:05:55Z</time></trkpt><trkpt lat="53.87270" lon="11.56762"><ele>49</ele><time>2012-09-11T11:05:58Z</time></trkpt><trkpt lat="53.87272" lon="11.56758"><ele>49</ele><time>2012-09-11T11:05:59Z</time></trkpt><trkpt lat="53.87274" lon="11.56754"><ele>52</ele><time>2012-09-11T11:06:00Z</time></trkpt><trkpt lat="53.87278" lon="11.56747"><ele>55</ele><time>2012-09-11T11:06:03Z</time></trkpt><trkpt lat="53.87281" lon="11.56746"><ele>54</ele><time>2012-09-11T11:06:05Z</time></trkpt><trkpt lat="53.87285" lon="11.56749"><ele>53</ele><time>2012-09-11T11:06:07Z</time></trkpt><trkpt lat="53.87287" lon="11.56751"><ele>54</ele><time>2012-09-11T11:06:08Z</time></trkpt><trkpt lat="53.87298" lon="11.56761"><ele>48</ele><time>2012-09-11T11:06:11Z</time></trkpt><trkpt lat="53.87301" lon="11.56763"><ele>51</ele><time>2012-09-11T11:06:12Z</time></trkpt><trkpt lat="53.87317" lon="11.56771"><ele>52</ele><time>2012-09-11T11:06:16Z</time></trkpt><trkpt lat="53.87322" lon="11.56773"><ele>52</ele><time>2012-09-11T11:06:17Z</time></trkpt><trkpt lat="53.87331" lon="11.56769"><ele>50</ele><time>2012-09-11T11:06:19Z</time></trkpt><trkpt lat="53.87335" lon="11.56767"><ele>49</ele><time>2012-09-11T11:06:20Z</time></trkpt><trkpt lat="53.87338" lon="11.56760"><ele>48</ele><time>2012-09-11T11:06:21Z</time></trkpt><trkpt lat="53.87342" lon="11.56752"><ele>46</ele><time>2012-09-11T11:06:22Z</time></trkpt><trkpt lat="53.87348" lon="11.56733"><ele>49</ele><time>2012-09-11T11:06:24Z</time></trkpt><trkpt lat="53.87353" lon="11.56718"><ele>51</ele><time>2012-09-11T11:06:26Z</time></trkpt><trkpt lat="53.87354" lon="11.56711"><ele>51</ele><time>2012-09-11T11:06:27Z</time></trkpt><trkpt lat="53.87367" lon="11.56659"><ele>49</ele><time>2012-09-11T11:06:38Z</time></trkpt><trkpt lat="53.87368" lon="11.56655"><ele>49</ele><time>2012-09-11T11:06:39Z</time></trkpt><trkpt lat="53.87369" lon="11.56651"><ele>50</ele><time>2012-09-11T11:06:40Z</time></trkpt><trkpt lat="53.87370" lon="11.56647"><ele>51</ele><time>2012-09-11T11:06:41Z</time></trkpt><trkpt lat="53.87373" lon="11.56644"><ele>52</ele><time>2012-09-11T11:06:42Z</time></trkpt><trkpt lat="53.87375" lon="11.56642"><ele>51</ele><time>2012-09-11T11:06:43Z</time></trkpt><trkpt lat="53.87377" lon="11.56641"><ele>51</ele><time>2012-09-11T11:06:44Z</time></trkpt><trkpt lat="53.87380" lon="11.56641"><ele>52</ele><time>2012-09-11T11:06:45Z</time></trkpt><trkpt lat="53.87384" lon="11.56644"><ele>54</ele><time>2012-09-11T11:06:47Z</time></trkpt><trkpt lat="53.87387" lon="11.56646"><ele>53</ele><time>2012-09-11T11:06:48Z</time></trkpt><trkpt lat="53.87393" lon="11.56650"><ele>53</ele><time>2012-09-11T11:06:51Z</time></trkpt><trkpt lat="53.87395" lon="11.56649"><ele>53</ele><time>2012-09-11T11:06:52Z</time></trkpt><trkpt lat="53.87397" lon="11.56644"><ele>50</ele><time>2012-09-11T11:06:54Z</time></trkpt><trkpt lat="53.87400" lon="11.56634"><ele>52</ele><time>2012-09-11T11:07:05Z</time></trkpt><trkpt lat="53.87397" lon="11.56630"><ele>58</ele><time>2012-09-11T11:07:10Z</time></trkpt><trkpt lat="53.87392" lon="11.56626"><ele>57</ele><time>2012-09-11T11:07:14Z</time></trkpt><trkpt lat="53.87387" lon="11.56618"><ele>54</ele><time>2012-09-11T11:07:18Z</time></trkpt><trkpt lat="53.87387" lon="11.56618"><ele>54</ele><time>2012-09-11T11:07:18Z</time></trkpt><trkpt lat="53.87386" lon="11.56615"><ele>54</ele><time>2012-09-11T11:07:55Z</time></trkpt><trkpt lat="53.87357" lon="11.56594"><ele>53</ele><time>2012-09-11T11:11:19Z</time></trkpt><trkpt lat="53.87371" lon="11.56602"><ele>53</ele><time>2012-09-11T11:11:55Z</time></trkpt><trkpt lat="53.87378" lon="11.56613"><ele>55</ele><time>2012-09-11T11:12:19Z</time></trkpt><trkpt lat="53.87379" lon="11.56623"><ele>53</ele><time>2012-09-11T11:12:30Z</time></trkpt><trkpt lat="53.87382" lon="11.56610"><ele>42</ele><time>2012-09-11T11:13:33Z</time></trkpt><trkpt lat="53.87380" lon="11.56611"><ele>40</ele><time>2012-09-11T11:13:42Z</time></trkpt><trkpt lat="53.87383" lon="11.56615"><ele>46</ele><time>2012-09-11T11:13:46Z</time></trkpt><trkpt lat="53.87384" lon="11.56618"><ele>48</ele><time>2012-09-11T11:13:49Z</time></trkpt><trkpt lat="53.87384" lon="11.56623"><ele>44</ele><time>2012-09-11T11:13:56Z</time></trkpt><trkpt lat="53.87387" lon="11.56622"><ele>58</ele><time>2012-09-11T11:14:32Z</time></trkpt><trkpt lat="53.87383" lon="11.56617"><ele>45</ele><time>2012-09-11T11:15:09Z</time></trkpt><trkpt lat="53.87380" lon="11.56628"><ele>49</ele><time>2012-09-11T11:15:13Z</time></trkpt><trkpt lat="53.87381" lon="11.56638"><ele>49</ele><time>2012-09-11T11:15:16Z</time></trkpt><trkpt lat="53.87385" lon="11.56646"><ele>48</ele><time>2012-09-11T11:15:19Z</time></trkpt><trkpt lat="53.87392" lon="11.56643"><ele>41</ele><time>2012-09-11T11:15:23Z</time></trkpt><trkpt lat="53.87395" lon="11.56650"><ele>52</ele><time>2012-09-11T11:15:39Z</time></trkpt><trkpt lat="53.87397" lon="11.56652"><ele>45</ele><time>2012-09-11T11:15:52Z</time></trkpt><trkpt lat="53.87402" lon="11.56649"><ele>37</ele><time>2012-09-11T11:16:17Z</time></trkpt><trkpt lat="53.87398" lon="11.56642"><ele>49</ele><time>2012-09-11T11:16:31Z</time></trkpt><trkpt lat="53.87396" lon="11.56631"><ele>48</ele><time>2012-09-11T11:16:39Z</time></trkpt><trkpt lat="53.87395" lon="11.56627"><ele>49</ele><time>2012-09-11T11:16:40Z</time></trkpt><trkpt lat="53.87392" lon="11.56621"><ele>52</ele><time>2012-09-11T11:16:42Z</time></trkpt><trkpt lat="53.87387" lon="11.56619"><ele>43</ele><time>2012-09-11T11:18:09Z</time></trkpt><trkpt lat="53.87384" lon="11.56624"><ele>43</ele><time>2012-09-11T11:18:56Z</time></trkpt><trkpt lat="53.87386" lon="11.56629"><ele>52</ele><time>2012-09-11T11:19:27Z</time></trkpt><trkpt lat="53.87390" lon="11.56629"><ele>48</ele><time>2012-09-11T11:19:29Z</time></trkpt><trkpt lat="53.87394" lon="11.56629"><ele>50</ele><time>2012-09-11T11:19:31Z</time></trkpt><trkpt lat="53.87398" lon="11.56630"><ele>50</ele><time>2012-09-11T11:19:33Z</time></trkpt><trkpt lat="53.87408" lon="11.56631"><ele>52</ele><time>2012-09-11T11:19:37Z</time></trkpt><trkpt lat="53.87410" lon="11.56629"><ele>54</ele><time>2012-09-11T11:19:38Z</time></trkpt><trkpt lat="53.87413" lon="11.56631"><ele>53</ele><time>2012-09-11T11:19:40Z</time></trkpt><trkpt lat="53.87407" lon="11.56632"><ele>50</ele><time>2012-09-11T11:19:46Z</time></trkpt><trkpt lat="53.87402" lon="11.56633"><ele>50</ele><time>2012-09-11T11:19:49Z</time></trkpt><trkpt lat="53.87400" lon="11.56633"><ele>50</ele><time>2012-09-11T11:19:50Z</time></trkpt><trkpt lat="53.87397" lon="11.56633"><ele>48</ele><time>2012-09-11T11:19:51Z</time></trkpt><trkpt lat="53.87386" lon="11.56634"><ele>47</ele><time>2012-09-11T11:19:56Z</time></trkpt><trkpt lat="53.87383" lon="11.56634"><ele>47</ele><time>2012-09-11T11:19:57Z</time></trkpt><trkpt lat="53.87378" lon="11.56636"><ele>46</ele><time>2012-09-11T11:19:59Z</time></trkpt><trkpt lat="53.87372" lon="11.56642"><ele>48</ele><time>2012-09-11T11:20:02Z</time></trkpt><trkpt lat="53.87369" lon="11.56649"><ele>45</ele><time>2012-09-11T11:20:04Z</time></trkpt><trkpt lat="53.87364" lon="11.56663"><ele>50</ele><time>2012-09-11T11:20:08Z</time></trkpt><trkpt lat="53.87362" lon="11.56671"><ele>51</ele><time>2012-09-11T11:20:10Z</time></trkpt><trkpt lat="53.87358" lon="11.56677"><ele>52</ele><time>2012-09-11T11:20:12Z</time></trkpt><trkpt lat="53.87352" lon="11.56679"><ele>53</ele><time>2012-09-11T11:20:14Z</time></trkpt><trkpt lat="53.87345" lon="11.56678"><ele>52</ele><time>2012-09-11T11:20:17Z</time></trkpt><trkpt lat="53.87339" lon="11.56677"><ele>52</ele><time>2012-09-11T11:20:19Z</time></trkpt><trkpt lat="53.87336" lon="11.56678"><ele>49</ele><time>2012-09-11T11:20:20Z</time></trkpt><trkpt lat="53.87326" lon="11.56681"><ele>46</ele><time>2012-09-11T11:20:24Z</time></trkpt><trkpt lat="53.87323" lon="11.56682"><ele>47</ele><time>2012-09-11T11:20:25Z</time></trkpt><trkpt lat="53.87310" lon="11.56687"><ele>48</ele><time>2012-09-11T11:20:30Z</time></trkpt><trkpt lat="53.87307" lon="11.56688"><ele>48</ele><time>2012-09-11T11:20:31Z</time></trkpt><trkpt lat="53.87305" lon="11.56689"><ele>49</ele><time>2012-09-11T11:20:32Z</time></trkpt><trkpt lat="53.87301" lon="11.56692"><ele>51</ele><time>2012-09-11T11:20:34Z</time></trkpt><trkpt lat="53.87292" lon="11.56700"><ele>50</ele><time>2012-09-11T11:20:38Z</time></trkpt><trkpt lat="53.87288" lon="11.56710"><ele>44</ele><time>2012-09-11T11:20:41Z</time></trkpt><trkpt lat="53.87284" lon="11.56722"><ele>45</ele><time>2012-09-11T11:20:44Z</time></trkpt><trkpt lat="53.87281" lon="11.56732"><ele>42</ele><time>2012-09-11T11:20:46Z</time></trkpt><trkpt lat="53.87262" lon="11.56784"><ele>46</ele><time>2012-09-11T11:20:57Z</time></trkpt><trkpt lat="53.87261" lon="11.56789"><ele>46</ele><time>2012-09-11T11:20:58Z</time></trkpt><trkpt lat="53.87254" lon="11.56813"><ele>45</ele><time>2012-09-11T11:21:03Z</time></trkpt><trkpt lat="53.87251" lon="11.56823"><ele>44</ele><time>2012-09-11T11:21:05Z</time></trkpt><trkpt lat="53.87242" lon="11.56854"><ele>41</ele><time>2012-09-11T11:21:11Z</time></trkpt><trkpt lat="53.87243" lon="11.56865"><ele>41</ele><time>2012-09-11T11:21:13Z</time></trkpt><trkpt lat="53.87248" lon="11.56874"><ele>41</ele><time>2012-09-11T11:21:15Z</time></trkpt><trkpt lat="53.87253" lon="11.56879"><ele>43</ele><time>2012-09-11T11:21:17Z</time></trkpt><trkpt lat="53.87269" lon="11.56899"><ele>48</ele><time>2012-09-11T11:21:22Z</time></trkpt><trkpt lat="53.87277" lon="11.56909"><ele>45</ele><time>2012-09-11T11:21:24Z</time></trkpt><trkpt lat="53.87281" lon="11.56914"><ele>45</ele><time>2012-09-11T11:21:25Z</time></trkpt><trkpt lat="53.87289" lon="11.56923"><ele>45</ele><time>2012-09-11T11:21:27Z</time></trkpt><trkpt lat="53.87350" lon="11.56999"><ele>50</ele><time>2012-09-11T11:21:46Z</time></trkpt><trkpt lat="53.87358" lon="11.57010"><ele>49</ele><time>2012-09-11T11:21:49Z</time></trkpt><trkpt lat="53.87396" lon="11.57063"><ele>50</ele><time>2012-09-11T11:22:01Z</time></trkpt><trkpt lat="53.87405" lon="11.57073"><ele>49</ele><time>2012-09-11T11:22:04Z</time></trkpt><trkpt lat="53.87453" lon="11.57134"><ele>54</ele><time>2012-09-11T11:22:19Z</time></trkpt><trkpt lat="53.87458" lon="11.57141"><ele>51</ele><time>2012-09-11T11:22:21Z</time></trkpt><trkpt lat="53.87460" lon="11.57144"><ele>50</ele><time>2012-09-11T11:22:22Z</time></trkpt><trkpt lat="53.87526" lon="11.57233"><ele>38</ele><time>2012-09-11T11:22:52Z</time></trkpt><trkpt lat="53.87548" lon="11.57264"><ele>49</ele><time>2012-09-11T11:22:59Z</time></trkpt><trkpt lat="53.87556" lon="11.57273"><ele>48</ele><time>2012-09-11T11:23:02Z</time></trkpt><trkpt lat="53.87564" lon="11.57283"><ele>44</ele><time>2012-09-11T11:23:05Z</time></trkpt><trkpt lat="53.87567" lon="11.57287"><ele>46</ele><time>2012-09-11T11:23:06Z</time></trkpt><trkpt lat="53.87575" lon="11.57297"><ele>47</ele><time>2012-09-11T11:23:09Z</time></trkpt><trkpt lat="53.87610" lon="11.57342"><ele>56</ele><time>2012-09-11T11:23:22Z</time></trkpt><trkpt lat="53.87612" lon="11.57347"><ele>57</ele><time>2012-09-11T11:23:23Z</time></trkpt><trkpt lat="53.87615" lon="11.57350"><ele>56</ele><time>2012-09-11T11:23:24Z</time></trkpt><trkpt lat="53.87623" lon="11.57360"><ele>51</ele><time>2012-09-11T11:23:27Z</time></trkpt><trkpt lat="53.87626" lon="11.57364"><ele>52</ele><time>2012-09-11T11:23:28Z</time></trkpt><trkpt lat="53.87628" lon="11.57368"><ele>52</ele><time>2012-09-11T11:23:29Z</time></trkpt><trkpt lat="53.87630" lon="11.57372"><ele>53</ele><time>2012-09-11T11:23:30Z</time></trkpt><trkpt lat="53.87634" lon="11.57377"><ele>52</ele><time>2012-09-11T11:23:32Z</time></trkpt><trkpt lat="53.87647" lon="11.57397"><ele>54</ele><time>2012-09-11T11:23:37Z</time></trkpt><trkpt lat="53.87653" lon="11.57404"><ele>54</ele><time>2012-09-11T11:23:39Z</time></trkpt><trkpt lat="53.87664" lon="11.57420"><ele>55</ele><time>2012-09-11T11:23:43Z</time></trkpt><trkpt lat="53.87670" lon="11.57427"><ele>52</ele><time>2012-09-11T11:23:45Z</time></trkpt><trkpt lat="53.87740" lon="11.57513"><ele>55</ele><time>2012-09-11T11:24:08Z</time></trkpt><trkpt lat="53.87746" lon="11.57519"><ele>54</ele><time>2012-09-11T11:24:10Z</time></trkpt><trkpt lat="53.87750" lon="11.57521"><ele>53</ele><time>2012-09-11T11:24:11Z</time></trkpt><trkpt lat="53.87761" lon="11.57531"><ele>56</ele><time>2012-09-11T11:24:14Z</time></trkpt><trkpt lat="53.87771" lon="11.57541"><ele>56</ele><time>2012-09-11T11:24:17Z</time></trkpt><trkpt lat="53.87777" lon="11.57548"><ele>56</ele><time>2012-09-11T11:24:19Z</time></trkpt><trkpt lat="53.87785" lon="11.57559"><ele>55</ele><time>2012-09-11T11:24:22Z</time></trkpt><trkpt lat="53.87809" lon="11.57593"><ele>58</ele><time>2012-09-11T11:24:32Z</time></trkpt><trkpt lat="53.87812" lon="11.57598"><ele>56</ele><time>2012-09-11T11:24:33Z</time></trkpt><trkpt lat="53.87815" lon="11.57606"><ele>57</ele><time>2012-09-11T11:24:35Z</time></trkpt><trkpt lat="53.87817" lon="11.57611"><ele>58</ele><time>2012-09-11T11:24:36Z</time></trkpt><trkpt lat="53.87819" lon="11.57614"><ele>57</ele><time>2012-09-11T11:24:37Z</time></trkpt><trkpt lat="53.87826" lon="11.57625"><ele>56</ele><time>2012-09-11T11:24:41Z</time></trkpt><trkpt lat="53.87830" lon="11.57633"><ele>55</ele><time>2012-09-11T11:24:44Z</time></trkpt><trkpt lat="53.87833" lon="11.57637"><ele>57</ele><time>2012-09-11T11:24:46Z</time></trkpt><trkpt lat="53.87848" lon="11.57662"><ele>54</ele><time>2012-09-11T11:24:55Z</time></trkpt><trkpt lat="53.87851" lon="11.57665"><ele>65</ele><time>2012-09-11T11:25:16Z</time></trkpt><trkpt lat="53.87854" lon="11.57670"><ele>65</ele><time>2012-09-11T11:25:18Z</time></trkpt><trkpt lat="53.87894" lon="11.57736"><ele>56</ele><time>2012-09-11T11:25:40Z</time></trkpt><trkpt lat="53.87896" lon="11.57739"><ele>57</ele><time>2012-09-11T11:25:41Z</time></trkpt><trkpt lat="53.87898" lon="11.57742"><ele>58</ele><time>2012-09-11T11:25:42Z</time></trkpt><trkpt lat="53.87900" lon="11.57745"><ele>58</ele><time>2012-09-11T11:25:43Z</time></trkpt><trkpt lat="53.87903" lon="11.57752"><ele>60</ele><time>2012-09-11T11:25:45Z</time></trkpt><trkpt lat="53.87911" lon="11.57766"><ele>59</ele><time>2012-09-11T11:25:50Z</time></trkpt><trkpt lat="53.87915" lon="11.57775"><ele>58</ele><time>2012-09-11T11:25:53Z</time></trkpt><trkpt lat="53.87923" lon="11.57790"><ele>59</ele><time>2012-09-11T11:25:58Z</time></trkpt><trkpt lat="53.87927" lon="11.57796"><ele>61</ele><time>2012-09-11T11:26:00Z</time></trkpt><trkpt lat="53.87929" lon="11.57799"><ele>61</ele><time>2012-09-11T11:26:01Z</time></trkpt><trkpt lat="53.87931" lon="11.57802"><ele>62</ele><time>2012-09-11T11:26:02Z</time></trkpt><trkpt lat="53.87932" lon="11.57805"><ele>62</ele><time>2012-09-11T11:26:03Z</time></trkpt><trkpt lat="53.87954" lon="11.57843"><ele>62</ele><time>2012-09-11T11:26:16Z</time></trkpt><trkpt lat="53.87956" lon="11.57846"><ele>61</ele><time>2012-09-11T11:26:17Z</time></trkpt><trkpt lat="53.87957" lon="11.57849"><ele>62</ele><time>2012-09-11T11:26:18Z</time></trkpt><trkpt lat="53.87959" lon="11.57853"><ele>63</ele><time>2012-09-11T11:26:19Z</time></trkpt><trkpt lat="53.87966" lon="11.57865"><ele>64</ele><time>2012-09-11T11:26:23Z</time></trkpt><trkpt lat="53.87981" lon="11.57890"><ele>67</ele><time>2012-09-11T11:26:31Z</time></trkpt><trkpt lat="53.87983" lon="11.57893"><ele>69</ele><time>2012-09-11T11:26:32Z</time></trkpt><trkpt lat="53.87990" lon="11.57905"><ele>68</ele><time>2012-09-11T11:26:36Z</time></trkpt><trkpt lat="53.87992" lon="11.57908"><ele>67</ele><time>2012-09-11T11:26:37Z</time></trkpt><trkpt lat="53.87994" lon="11.57910"><ele>67</ele><time>2012-09-11T11:26:38Z</time></trkpt><trkpt lat="53.88025" lon="11.57956"><ele>71</ele><time>2012-09-11T11:26:55Z</time></trkpt><trkpt lat="53.88031" lon="11.57964"><ele>71</ele><time>2012-09-11T11:26:58Z</time></trkpt><trkpt lat="53.88035" lon="11.57969"><ele>71</ele><time>2012-09-11T11:27:00Z</time></trkpt><trkpt lat="53.88036" lon="11.57971"><ele>70</ele><time>2012-09-11T11:27:01Z</time></trkpt><trkpt lat="53.88108" lon="11.58059"><ele>72</ele><time>2012-09-11T11:27:31Z</time></trkpt><trkpt lat="53.88187" lon="11.58143"><ele>67</ele><time>2012-09-11T11:27:47Z</time></trkpt><trkpt lat="53.88272" lon="11.58232"><ele>63</ele><time>2012-09-11T11:28:00Z</time></trkpt><trkpt lat="53.88277" lon="11.58238"><ele>65</ele><time>2012-09-11T11:28:01Z</time></trkpt><trkpt lat="53.88292" lon="11.58257"><ele>63</ele><time>2012-09-11T11:28:04Z</time></trkpt><trkpt lat="53.88307" lon="11.58273"><ele>62</ele><time>2012-09-11T11:28:07Z</time></trkpt><trkpt lat="53.88325" lon="11.58295"><ele>69</ele><time>2012-09-11T11:28:11Z</time></trkpt><trkpt lat="53.88330" lon="11.58301"><ele>69</ele><time>2012-09-11T11:28:12Z</time></trkpt><trkpt lat="53.88359" lon="11.58342"><ele>69</ele><time>2012-09-11T11:28:19Z</time></trkpt><trkpt lat="53.88364" lon="11.58348"><ele>69</ele><time>2012-09-11T11:28:20Z</time></trkpt><trkpt lat="53.88402" lon="11.58398"><ele>66</ele><time>2012-09-11T11:28:30Z</time></trkpt><trkpt lat="53.88411" lon="11.58411"><ele>66</ele><time>2012-09-11T11:28:32Z</time></trkpt><trkpt lat="53.88435" lon="11.58448"><ele>64</ele><time>2012-09-11T11:28:38Z</time></trkpt><trkpt lat="53.88439" lon="11.58454"><ele>64</ele><time>2012-09-11T11:28:39Z</time></trkpt><trkpt lat="53.88445" lon="11.58470"><ele>63</ele><time>2012-09-11T11:28:41Z</time></trkpt><trkpt lat="53.88450" lon="11.58484"><ele>62</ele><time>2012-09-11T11:28:43Z</time></trkpt><trkpt lat="53.88452" lon="11.58491"><ele>63</ele><time>2012-09-11T11:28:44Z</time></trkpt><trkpt lat="53.88454" lon="11.58500"><ele>62</ele><time>2012-09-11T11:28:45Z</time></trkpt><trkpt lat="53.88460" lon="11.58536"><ele>60</ele><time>2012-09-11T11:28:50Z</time></trkpt><trkpt lat="53.88461" lon="11.58544"><ele>60</ele><time>2012-09-11T11:28:51Z</time></trkpt><trkpt lat="53.88461" lon="11.58570"><ele>57</ele><time>2012-09-11T11:28:55Z</time></trkpt><trkpt lat="53.88460" lon="11.58585"><ele>57</ele><time>2012-09-11T11:28:57Z</time></trkpt><trkpt lat="53.88457" lon="11.58617"><ele>64</ele><time>2012-09-11T11:29:02Z</time></trkpt><trkpt lat="53.88455" lon="11.58629"><ele>63</ele><time>2012-09-11T11:29:04Z</time></trkpt><trkpt lat="53.88453" lon="11.58639"><ele>64</ele><time>2012-09-11T11:29:06Z</time></trkpt><trkpt lat="53.88429" lon="11.58761"><ele>66</ele><time>2012-09-11T11:29:28Z</time></trkpt><trkpt lat="53.88428" lon="11.58766"><ele>67</ele><time>2012-09-11T11:29:29Z</time></trkpt><trkpt lat="53.88427" lon="11.58771"><ele>64</ele><time>2012-09-11T11:29:30Z</time></trkpt><trkpt lat="53.88427" lon="11.58777"><ele>64</ele><time>2012-09-11T11:29:31Z</time></trkpt><trkpt lat="53.88427" lon="11.58783"><ele>63</ele><time>2012-09-11T11:29:32Z</time></trkpt><trkpt lat="53.88429" lon="11.58793"><ele>63</ele><time>2012-09-11T11:29:34Z</time></trkpt><trkpt lat="53.88431" lon="11.58796"><ele>62</ele><time>2012-09-11T11:29:35Z</time></trkpt><trkpt lat="53.88434" lon="11.58798"><ele>61</ele><time>2012-09-11T11:29:36Z</time></trkpt><trkpt lat="53.88443" lon="11.58805"><ele>63</ele><time>2012-09-11T11:29:40Z</time></trkpt><trkpt lat="53.88446" lon="11.58806"><ele>63</ele><time>2012-09-11T11:29:41Z</time></trkpt><trkpt lat="53.88449" lon="11.58807"><ele>63</ele><time>2012-09-11T11:29:42Z</time></trkpt><trkpt lat="53.88460" lon="11.58811"><ele>63</ele><time>2012-09-11T11:29:45Z</time></trkpt><trkpt lat="53.88468" lon="11.58817"><ele>63</ele><time>2012-09-11T11:29:47Z</time></trkpt><trkpt lat="53.88476" lon="11.58826"><ele>61</ele><time>2012-09-11T11:29:49Z</time></trkpt><trkpt lat="53.88484" lon="11.58839"><ele>60</ele><time>2012-09-11T11:29:51Z</time></trkpt><trkpt lat="53.88493" lon="11.58855"><ele>59</ele><time>2012-09-11T11:29:53Z</time></trkpt><trkpt lat="53.88496" lon="11.58864"><ele>59</ele><time>2012-09-11T11:29:54Z</time></trkpt><trkpt lat="53.88510" lon="11.58897"><ele>58</ele><time>2012-09-11T11:29:58Z</time></trkpt><trkpt lat="53.88515" lon="11.58903"><ele>60</ele><time>2012-09-11T11:29:59Z</time></trkpt><trkpt lat="53.88524" lon="11.58911"><ele>57</ele><time>2012-09-11T11:30:01Z</time></trkpt><trkpt lat="53.88531" lon="11.58913"><ele>56</ele><time>2012-09-11T11:30:03Z</time></trkpt><trkpt lat="53.88546" lon="11.58914"><ele>59</ele><time>2012-09-11T11:30:06Z</time></trkpt><trkpt lat="53.88551" lon="11.58913"><ele>59</ele><time>2012-09-11T11:30:07Z</time></trkpt><trkpt lat="53.88561" lon="11.58909"><ele>62</ele><time>2012-09-11T11:30:09Z</time></trkpt><trkpt lat="53.88566" lon="11.58906"><ele>62</ele><time>2012-09-11T11:30:10Z</time></trkpt><trkpt lat="53.88581" lon="11.58900"><ele>63</ele><time>2012-09-11T11:30:13Z</time></trkpt><trkpt lat="53.88590" lon="11.58900"><ele>64</ele><time>2012-09-11T11:30:15Z</time></trkpt><trkpt lat="53.88605" lon="11.58903"><ele>64</ele><time>2012-09-11T11:30:19Z</time></trkpt><trkpt lat="53.88611" lon="11.58907"><ele>63</ele><time>2012-09-11T11:30:21Z</time></trkpt><trkpt lat="53.88616" lon="11.58912"><ele>63</ele><time>2012-09-11T11:30:23Z</time></trkpt><trkpt lat="53.88637" lon="11.58927"><ele>60</ele><time>2012-09-11T11:30:33Z</time></trkpt><trkpt lat="53.88639" lon="11.58928"><ele>64</ele><time>2012-09-11T11:30:35Z</time></trkpt><trkpt lat="53.88645" lon="11.58933"><ele>64</ele><time>2012-09-11T11:30:38Z</time></trkpt><trkpt lat="53.88646" lon="11.58937"><ele>64</ele><time>2012-09-11T11:30:39Z</time></trkpt><trkpt lat="53.88648" lon="11.58944"><ele>65</ele><time>2012-09-11T11:30:41Z</time></trkpt><trkpt lat="53.88648" lon="11.58948"><ele>66</ele><time>2012-09-11T11:30:42Z</time></trkpt><trkpt lat="53.88648" lon="11.59006"><ele>61</ele><time>2012-09-11T11:30:51Z</time></trkpt><trkpt lat="53.88649" lon="11.59026"><ele>63</ele><time>2012-09-11T11:30:54Z</time></trkpt><trkpt lat="53.88650" lon="11.59032"><ele>63</ele><time>2012-09-11T11:30:55Z</time></trkpt><trkpt lat="53.88650" lon="11.59039"><ele>63</ele><time>2012-09-11T11:30:56Z</time></trkpt><trkpt lat="53.88650" lon="11.59045"><ele>63</ele><time>2012-09-11T11:30:57Z</time></trkpt><trkpt lat="53.88650" lon="11.59132"><ele>61</ele><time>2012-09-11T11:31:12Z</time></trkpt><trkpt lat="53.88651" lon="11.59139"><ele>63</ele><time>2012-09-11T11:31:13Z</time></trkpt><trkpt lat="53.88655" lon="11.59154"><ele>65</ele><time>2012-09-11T11:31:15Z</time></trkpt><trkpt lat="53.88658" lon="11.59161"><ele>65</ele><time>2012-09-11T11:31:16Z</time></trkpt><trkpt lat="53.88670" lon="11.59193"><ele>64</ele><time>2012-09-11T11:31:20Z</time></trkpt><trkpt lat="53.88673" lon="11.59202"><ele>63</ele><time>2012-09-11T11:31:21Z</time></trkpt><trkpt lat="53.88678" lon="11.59220"><ele>66</ele><time>2012-09-11T11:31:23Z</time></trkpt><trkpt lat="53.88679" lon="11.59228"><ele>65</ele><time>2012-09-11T11:31:24Z</time></trkpt><trkpt lat="53.88679" lon="11.59235"><ele>64</ele><time>2012-09-11T11:31:25Z</time></trkpt><trkpt lat="53.88680" lon="11.59243"><ele>65</ele><time>2012-09-11T11:31:26Z</time></trkpt><trkpt lat="53.88678" lon="11.59274"><ele>64</ele><time>2012-09-11T11:31:31Z</time></trkpt><trkpt lat="53.88677" lon="11.59281"><ele>66</ele><time>2012-09-11T11:31:32Z</time></trkpt><trkpt lat="53.88672" lon="11.59299"><ele>61</ele><time>2012-09-11T11:31:36Z</time></trkpt><trkpt lat="53.88665" lon="11.59325"><ele>59</ele><time>2012-09-11T11:31:41Z</time></trkpt><trkpt lat="53.88663" lon="11.59328"><ele>60</ele><time>2012-09-11T11:31:42Z</time></trkpt><trkpt lat="53.88658" lon="11.59344"><ele>60</ele><time>2012-09-11T11:31:46Z</time></trkpt><trkpt lat="53.88656" lon="11.59348"><ele>61</ele><time>2012-09-11T11:31:47Z</time></trkpt><trkpt lat="53.88622" lon="11.59467"><ele>63</ele><time>2012-09-11T11:32:14Z</time></trkpt><trkpt lat="53.88611" lon="11.59509"><ele>60</ele><time>2012-09-11T11:32:22Z</time></trkpt><trkpt lat="53.88607" lon="11.59550"><ele>61</ele><time>2012-09-11T11:32:29Z</time></trkpt><trkpt lat="53.88606" lon="11.59555"><ele>61</ele><time>2012-09-11T11:32:30Z</time></trkpt><trkpt lat="53.88606" lon="11.59559"><ele>61</ele><time>2012-09-11T11:32:31Z</time></trkpt><trkpt lat="53.88603" lon="11.59577"><ele>61</ele><time>2012-09-11T11:32:35Z</time></trkpt><trkpt lat="53.88601" lon="11.59584"><ele>63</ele><time>2012-09-11T11:32:37Z</time></trkpt><trkpt lat="53.88598" lon="11.59599"><ele>65</ele><time>2012-09-11T11:32:41Z</time></trkpt><trkpt lat="53.88596" lon="11.59605"><ele>61</ele><time>2012-09-11T11:32:43Z</time></trkpt><trkpt lat="53.88595" lon="11.59608"><ele>63</ele><time>2012-09-11T11:32:44Z</time></trkpt><trkpt lat="53.88594" lon="11.59612"><ele>64</ele><time>2012-09-11T11:32:45Z</time></trkpt><trkpt lat="53.88593" lon="11.59620"><ele>65</ele><time>2012-09-11T11:32:47Z</time></trkpt><trkpt lat="53.88590" lon="11.59639"><ele>67</ele><time>2012-09-11T11:32:51Z</time></trkpt><trkpt lat="53.88589" lon="11.59644"><ele>66</ele><time>2012-09-11T11:32:52Z</time></trkpt><trkpt lat="53.88588" lon="11.59648"><ele>66</ele><time>2012-09-11T11:32:53Z</time></trkpt><trkpt lat="53.88569" lon="11.59754"><ele>67</ele><time>2012-09-11T11:33:19Z</time></trkpt><trkpt lat="53.88569" lon="11.59758"><ele>68</ele><time>2012-09-11T11:33:20Z</time></trkpt><trkpt lat="53.88568" lon="11.59762"><ele>68</ele><time>2012-09-11T11:33:21Z</time></trkpt><trkpt lat="53.88568" lon="11.59766"><ele>70</ele><time>2012-09-11T11:33:22Z</time></trkpt><trkpt lat="53.88567" lon="11.59769"><ele>70</ele><time>2012-09-11T11:33:23Z</time></trkpt><trkpt lat="53.88563" lon="11.59784"><ele>70</ele><time>2012-09-11T11:33:27Z</time></trkpt><trkpt lat="53.88558" lon="11.59802"><ele>74</ele><time>2012-09-11T11:33:32Z</time></trkpt><trkpt lat="53.88556" lon="11.59810"><ele>75</ele><time>2012-09-11T11:33:34Z</time></trkpt><trkpt lat="53.88548" lon="11.59856"><ele>67</ele><time>2012-09-11T11:33:46Z</time></trkpt><trkpt lat="53.88547" lon="11.59862"><ele>68</ele><time>2012-09-11T11:33:48Z</time></trkpt><trkpt lat="53.88545" lon="11.59873"><ele>73</ele><time>2012-09-11T11:33:51Z</time></trkpt><trkpt lat="53.88544" lon="11.59880"><ele>73</ele><time>2012-09-11T11:33:53Z</time></trkpt><trkpt lat="53.88542" lon="11.59899"><ele>71</ele><time>2012-09-11T11:34:00Z</time></trkpt><trkpt lat="53.88542" lon="11.59903"><ele>72</ele><time>2012-09-11T11:34:01Z</time></trkpt><trkpt lat="53.88542" lon="11.59909"><ele>73</ele><time>2012-09-11T11:34:02Z</time></trkpt><trkpt lat="53.88541" lon="11.59940"><ele>72</ele><time>2012-09-11T11:34:06Z</time></trkpt><trkpt lat="53.88541" lon="11.59961"><ele>75</ele><time>2012-09-11T11:34:08Z</time></trkpt><trkpt lat="53.88542" lon="11.60072"><ele>64</ele><time>2012-09-11T11:34:21Z</time></trkpt><trkpt lat="53.88540" lon="11.60082"><ele>62</ele><time>2012-09-11T11:34:22Z</time></trkpt><trkpt lat="53.88533" lon="11.60151"><ele>61</ele><time>2012-09-11T11:34:31Z</time></trkpt><trkpt lat="53.88531" lon="11.60188"><ele>59</ele><time>2012-09-11T11:34:37Z</time></trkpt><trkpt lat="53.88532" lon="11.60206"><ele>58</ele><time>2012-09-11T11:34:41Z</time></trkpt><trkpt lat="53.88534" lon="11.60216"><ele>56</ele><time>2012-09-11T11:34:43Z</time></trkpt><trkpt lat="53.88538" lon="11.60239"><ele>56</ele><time>2012-09-11T11:34:47Z</time></trkpt><trkpt lat="53.88540" lon="11.60262"><ele>55</ele><time>2012-09-11T11:34:50Z</time></trkpt><trkpt lat="53.88541" lon="11.60290"><ele>59</ele><time>2012-09-11T11:34:54Z</time></trkpt><trkpt lat="53.88543" lon="11.60330"><ele>63</ele><time>2012-09-11T11:35:02Z</time></trkpt><trkpt lat="53.88543" lon="11.60353"><ele>64</ele><time>2012-09-11T11:35:09Z</time></trkpt><trkpt lat="53.88543" lon="11.60363"><ele>64</ele><time>2012-09-11T11:35:12Z</time></trkpt><trkpt lat="53.88543" lon="11.60373"><ele>63</ele><time>2012-09-11T11:35:15Z</time></trkpt><trkpt lat="53.88544" lon="11.60384"><ele>61</ele><time>2012-09-11T11:35:17Z</time></trkpt><trkpt lat="53.88544" lon="11.60398"><ele>62</ele><time>2012-09-11T11:35:19Z</time></trkpt><trkpt lat="53.88545" lon="11.60414"><ele>58</ele><time>2012-09-11T11:35:21Z</time></trkpt><trkpt lat="53.88546" lon="11.60439"><ele>60</ele><time>2012-09-11T11:35:24Z</time></trkpt><trkpt lat="53.88546" lon="11.60449"><ele>60</ele><time>2012-09-11T11:35:25Z</time></trkpt><trkpt lat="53.88544" lon="11.60457"><ele>55</ele><time>2012-09-11T11:35:26Z</time></trkpt><trkpt lat="53.88543" lon="11.60472"><ele>55</ele><time>2012-09-11T11:35:28Z</time></trkpt><trkpt lat="53.88544" lon="11.60485"><ele>55</ele><time>2012-09-11T11:35:30Z</time></trkpt><trkpt lat="53.88542" lon="11.60499"><ele>55</ele><time>2012-09-11T11:35:32Z</time></trkpt><trkpt lat="53.88539" lon="11.60526"><ele>51</ele><time>2012-09-11T11:35:35Z</time></trkpt><trkpt lat="53.88537" lon="11.60535"><ele>51</ele><time>2012-09-11T11:35:36Z</time></trkpt><trkpt lat="53.88530" lon="11.60569"><ele>53</ele><time>2012-09-11T11:35:39Z</time></trkpt><trkpt lat="53.88523" lon="11.60604"><ele>52</ele><time>2012-09-11T11:35:43Z</time></trkpt><trkpt lat="53.88518" lon="11.60619"><ele>51</ele><time>2012-09-11T11:35:45Z</time></trkpt><trkpt lat="53.88517" lon="11.60627"><ele>50</ele><time>2012-09-11T11:35:46Z</time></trkpt><trkpt lat="53.88516" lon="11.60636"><ele>49</ele><time>2012-09-11T11:35:47Z</time></trkpt><trkpt lat="53.88513" lon="11.60644"><ele>48</ele><time>2012-09-11T11:35:48Z</time></trkpt><trkpt lat="53.88505" lon="11.60676"><ele>51</ele><time>2012-09-11T11:35:52Z</time></trkpt><trkpt lat="53.88504" lon="11.60685"><ele>50</ele><time>2012-09-11T11:35:53Z</time></trkpt><trkpt lat="53.88501" lon="11.60708"><ele>54</ele><time>2012-09-11T11:35:56Z</time></trkpt><trkpt lat="53.88499" lon="11.60719"><ele>54</ele><time>2012-09-11T11:35:58Z</time></trkpt><trkpt lat="53.88494" lon="11.60752"><ele>54</ele><time>2012-09-11T11:36:04Z</time></trkpt><trkpt lat="53.88490" lon="11.60769"><ele>54</ele><time>2012-09-11T11:36:07Z</time></trkpt><trkpt lat="53.88484" lon="11.60796"><ele>53</ele><time>2012-09-11T11:36:12Z</time></trkpt><trkpt lat="53.88482" lon="11.60801"><ele>52</ele><time>2012-09-11T11:36:13Z</time></trkpt><trkpt lat="53.88481" lon="11.60806"><ele>54</ele><time>2012-09-11T11:36:14Z</time></trkpt><trkpt lat="53.88480" lon="11.60819"><ele>56</ele><time>2012-09-11T11:36:17Z</time></trkpt><trkpt lat="53.88479" lon="11.60827"><ele>54</ele><time>2012-09-11T11:36:19Z</time></trkpt><trkpt lat="53.88479" lon="11.60831"><ele>54</ele><time>2012-09-11T11:36:20Z</time></trkpt><trkpt lat="53.88479" lon="11.60835"><ele>54</ele><time>2012-09-11T11:36:21Z</time></trkpt><trkpt lat="53.88479" lon="11.60839"><ele>56</ele><time>2012-09-11T11:36:22Z</time></trkpt><trkpt lat="53.88478" lon="11.60856"><ele>57</ele><time>2012-09-11T11:36:26Z</time></trkpt><trkpt lat="53.88478" lon="11.60861"><ele>58</ele><time>2012-09-11T11:36:27Z</time></trkpt><trkpt lat="53.88479" lon="11.60865"><ele>57</ele><time>2012-09-11T11:36:28Z</time></trkpt><trkpt lat="53.88479" lon="11.60870"><ele>57</ele><time>2012-09-11T11:36:29Z</time></trkpt><trkpt lat="53.88481" lon="11.60888"><ele>55</ele><time>2012-09-11T11:36:33Z</time></trkpt><trkpt lat="53.88482" lon="11.60892"><ele>57</ele><time>2012-09-11T11:36:34Z</time></trkpt><trkpt lat="53.88482" lon="11.60892"><ele>57</ele><time>2012-09-11T11:36:34Z</time></trkpt><trkpt lat="53.88483" lon="11.60896"><ele>64</ele><time>2012-09-11T11:36:46Z</time></trkpt><trkpt lat="53.88483" lon="11.60901"><ele>67</ele><time>2012-09-11T11:37:51Z</time></trkpt><trkpt lat="53.88484" lon="11.60910"><ele>65</ele><time>2012-09-11T11:37:52Z</time></trkpt><trkpt lat="53.88484" lon="11.60920"><ele>62</ele><time>2012-09-11T11:37:54Z</time></trkpt><trkpt lat="53.88483" lon="11.61035"><ele>50</ele><time>2012-09-11T11:38:07Z</time></trkpt><trkpt lat="53.88481" lon="11.61087"><ele>50</ele><time>2012-09-11T11:38:12Z</time></trkpt><trkpt lat="53.88480" lon="11.61098"><ele>53</ele><time>2012-09-11T11:38:13Z</time></trkpt><trkpt lat="53.88478" lon="11.61107"><ele>54</ele><time>2012-09-11T11:38:14Z</time></trkpt><trkpt lat="53.88474" lon="11.61115"><ele>54</ele><time>2012-09-11T11:38:15Z</time></trkpt><trkpt lat="53.88433" lon="11.61207"><ele>50</ele><time>2012-09-11T11:38:26Z</time></trkpt><trkpt lat="53.88415" lon="11.61245"><ele>55</ele><time>2012-09-11T11:38:31Z</time></trkpt><trkpt lat="53.88410" lon="11.61251"><ele>55</ele><time>2012-09-11T11:38:32Z</time></trkpt><trkpt lat="53.88406" lon="11.61257"><ele>51</ele><time>2012-09-11T11:38:33Z</time></trkpt><trkpt lat="53.88401" lon="11.61262"><ele>50</ele><time>2012-09-11T11:38:34Z</time></trkpt><trkpt lat="53.88387" lon="11.61278"><ele>53</ele><time>2012-09-11T11:38:38Z</time></trkpt><trkpt lat="53.88381" lon="11.61285"><ele>51</ele><time>2012-09-11T11:38:40Z</time></trkpt><trkpt lat="53.88363" lon="11.61308"><ele>56</ele><time>2012-09-11T11:38:45Z</time></trkpt><trkpt lat="53.88348" lon="11.61333"><ele>48</ele><time>2012-09-11T11:38:50Z</time></trkpt><trkpt lat="53.88316" lon="11.61381"><ele>55</ele><time>2012-09-11T11:39:00Z</time></trkpt><trkpt lat="53.88309" lon="11.61390"><ele>55</ele><time>2012-09-11T11:39:02Z</time></trkpt><trkpt lat="53.88279" lon="11.61426"><ele>53</ele><time>2012-09-11T11:39:12Z</time></trkpt><trkpt lat="53.88273" lon="11.61435"><ele>54</ele><time>2012-09-11T11:39:14Z</time></trkpt><trkpt lat="53.88270" lon="11.61440"><ele>54</ele><time>2012-09-11T11:39:15Z</time></trkpt><trkpt lat="53.88267" lon="11.61445"><ele>51</ele><time>2012-09-11T11:39:16Z</time></trkpt><trkpt lat="53.88260" lon="11.61466"><ele>47</ele><time>2012-09-11T11:39:21Z</time></trkpt><trkpt lat="53.88253" lon="11.61488"><ele>49</ele><time>2012-09-11T11:39:24Z</time></trkpt><trkpt lat="53.88217" lon="11.61609"><ele>48</ele><time>2012-09-11T11:39:44Z</time></trkpt><trkpt lat="53.88214" lon="11.61622"><ele>49</ele><time>2012-09-11T11:39:46Z</time></trkpt><trkpt lat="53.88199" lon="11.61692"><ele>46</ele><time>2012-09-11T11:39:57Z</time></trkpt><trkpt lat="53.88198" lon="11.61699"><ele>43</ele><time>2012-09-11T11:39:58Z</time></trkpt><trkpt lat="53.88197" lon="11.61704"><ele>48</ele><time>2012-09-11T11:39:59Z</time></trkpt><trkpt lat="53.88195" lon="11.61709"><ele>47</ele><time>2012-09-11T11:40:00Z</time></trkpt><trkpt lat="53.88188" lon="11.61729"><ele>44</ele><time>2012-09-11T11:40:04Z</time></trkpt><trkpt lat="53.88181" lon="11.61748"><ele>47</ele><time>2012-09-11T11:40:08Z</time></trkpt><trkpt lat="53.88176" lon="11.61758"><ele>49</ele><time>2012-09-11T11:40:10Z</time></trkpt><trkpt lat="53.88161" lon="11.61784"><ele>50</ele><time>2012-09-11T11:40:16Z</time></trkpt><trkpt lat="53.88156" lon="11.61795"><ele>50</ele><time>2012-09-11T11:40:18Z</time></trkpt><trkpt lat="53.88153" lon="11.61805"><ele>50</ele><time>2012-09-11T11:40:20Z</time></trkpt><trkpt lat="53.88150" lon="11.61818"><ele>49</ele><time>2012-09-11T11:40:22Z</time></trkpt><trkpt lat="53.88149" lon="11.61830"><ele>50</ele><time>2012-09-11T11:40:24Z</time></trkpt><trkpt lat="53.88141" lon="11.61908"><ele>54</ele><time>2012-09-11T11:40:39Z</time></trkpt><trkpt lat="53.88139" lon="11.61918"><ele>53</ele><time>2012-09-11T11:40:41Z</time></trkpt><trkpt lat="53.88137" lon="11.61940"><ele>53</ele><time>2012-09-11T11:40:45Z</time></trkpt><trkpt lat="53.88132" lon="11.61970"><ele>43</ele><time>2012-09-11T11:40:51Z</time></trkpt><trkpt lat="53.88130" lon="11.61979"><ele>48</ele><time>2012-09-11T11:40:53Z</time></trkpt><trkpt lat="53.88126" lon="11.61999"><ele>45</ele><time>2012-09-11T11:40:58Z</time></trkpt><trkpt lat="53.88125" lon="11.62006"><ele>46</ele><time>2012-09-11T11:41:00Z</time></trkpt><trkpt lat="53.88121" lon="11.62040"><ele>41</ele><time>2012-09-11T11:41:07Z</time></trkpt><trkpt lat="53.88119" lon="11.62051"><ele>43</ele><time>2012-09-11T11:41:09Z</time></trkpt><trkpt lat="53.88110" lon="11.62104"><ele>47</ele><time>2012-09-11T11:41:22Z</time></trkpt><trkpt lat="53.88109" lon="11.62108"><ele>42</ele><time>2012-09-11T11:41:23Z</time></trkpt><trkpt lat="53.88107" lon="11.62118"><ele>41</ele><time>2012-09-11T11:41:27Z</time></trkpt><trkpt lat="53.88106" lon="11.62129"><ele>42</ele><time>2012-09-11T11:41:30Z</time></trkpt><trkpt lat="53.88104" lon="11.62137"><ele>42</ele><time>2012-09-11T11:41:32Z</time></trkpt><trkpt lat="53.88103" lon="11.62141"><ele>42</ele><time>2012-09-11T11:41:33Z</time></trkpt><trkpt lat="53.88103" lon="11.62146"><ele>43</ele><time>2012-09-11T11:41:34Z</time></trkpt><trkpt lat="53.88102" lon="11.62149"><ele>46</ele><time>2012-09-11T11:41:35Z</time></trkpt><trkpt lat="53.88100" lon="11.62162"><ele>48</ele><time>2012-09-11T11:41:38Z</time></trkpt><trkpt lat="53.88098" lon="11.62171"><ele>48</ele><time>2012-09-11T11:41:40Z</time></trkpt><trkpt lat="53.88092" lon="11.62192"><ele>48</ele><time>2012-09-11T11:41:45Z</time></trkpt><trkpt lat="53.88088" lon="11.62201"><ele>48</ele><time>2012-09-11T11:41:47Z</time></trkpt><trkpt lat="53.88048" lon="11.62298"><ele>54</ele><time>2012-09-11T11:42:07Z</time></trkpt><trkpt lat="53.88041" lon="11.62312"><ele>54</ele><time>2012-09-11T11:42:10Z</time></trkpt><trkpt lat="53.88023" lon="11.62343"><ele>51</ele><time>2012-09-11T11:42:16Z</time></trkpt><trkpt lat="53.88015" lon="11.62356"><ele>51</ele><time>2012-09-11T11:42:19Z</time></trkpt><trkpt lat="53.88010" lon="11.62362"><ele>56</ele><time>2012-09-11T11:42:21Z</time></trkpt><trkpt lat="53.88003" lon="11.62373"><ele>54</ele><time>2012-09-11T11:42:24Z</time></trkpt><trkpt lat="53.88001" lon="11.62376"><ele>55</ele><time>2012-09-11T11:42:25Z</time></trkpt><trkpt lat="53.87998" lon="11.62380"><ele>52</ele><time>2012-09-11T11:42:26Z</time></trkpt><trkpt lat="53.87996" lon="11.62383"><ele>49</ele><time>2012-09-11T11:42:27Z</time></trkpt><trkpt lat="53.87986" lon="11.62398"><ele>49</ele><time>2012-09-11T11:42:32Z</time></trkpt><trkpt lat="53.87979" lon="11.62410"><ele>49</ele><time>2012-09-11T11:42:35Z</time></trkpt><trkpt lat="53.87976" lon="11.62418"><ele>45</ele><time>2012-09-11T11:42:37Z</time></trkpt><trkpt lat="53.87970" lon="11.62433"><ele>45</ele><time>2012-09-11T11:42:40Z</time></trkpt><trkpt lat="53.87964" lon="11.62442"><ele>46</ele><time>2012-09-11T11:42:42Z</time></trkpt><trkpt lat="53.87951" lon="11.62462"><ele>43</ele><time>2012-09-11T11:42:47Z</time></trkpt><trkpt lat="53.87947" lon="11.62462"><ele>43</ele><time>2012-09-11T11:42:48Z</time></trkpt><trkpt lat="53.87945" lon="11.62460"><ele>45</ele><time>2012-09-11T11:42:49Z</time></trkpt><trkpt lat="53.87943" lon="11.62457"><ele>46</ele><time>2012-09-11T11:42:50Z</time></trkpt><trkpt lat="53.87937" lon="11.62449"><ele>46</ele><time>2012-09-11T11:42:52Z</time></trkpt><trkpt lat="53.87934" lon="11.62444"><ele>46</ele><time>2012-09-11T11:42:53Z</time></trkpt><trkpt lat="53.87927" lon="11.62436"><ele>46</ele><time>2012-09-11T11:42:55Z</time></trkpt><trkpt lat="53.87923" lon="11.62433"><ele>49</ele><time>2012-09-11T11:42:56Z</time></trkpt><trkpt lat="53.87905" lon="11.62420"><ele>44</ele><time>2012-09-11T11:43:00Z</time></trkpt><trkpt lat="53.87897" lon="11.62418"><ele>41</ele><time>2012-09-11T11:43:02Z</time></trkpt><trkpt lat="53.87891" lon="11.62418"><ele>39</ele><time>2012-09-11T11:43:05Z</time></trkpt><trkpt lat="53.87885" lon="11.62420"><ele>40</ele><time>2012-09-11T11:43:07Z</time></trkpt><trkpt lat="53.87882" lon="11.62421"><ele>37</ele><time>2012-09-11T11:43:08Z</time></trkpt><trkpt lat="53.87875" lon="11.62420"><ele>41</ele><time>2012-09-11T11:43:11Z</time></trkpt><trkpt lat="53.87873" lon="11.62419"><ele>41</ele><time>2012-09-11T11:43:12Z</time></trkpt><trkpt lat="53.87870" lon="11.62411"><ele>42</ele><time>2012-09-11T11:43:14Z</time></trkpt><trkpt lat="53.87866" lon="11.62404"><ele>42</ele><time>2012-09-11T11:43:16Z</time></trkpt><trkpt lat="53.87861" lon="11.62398"><ele>40</ele><time>2012-09-11T11:43:19Z</time></trkpt><trkpt lat="53.87848" lon="11.62381"><ele>39</ele><time>2012-09-11T11:43:26Z</time></trkpt><trkpt lat="53.87843" lon="11.62373"><ele>37</ele><time>2012-09-11T11:43:29Z</time></trkpt><trkpt lat="53.87841" lon="11.62362"><ele>33</ele><time>2012-09-11T11:43:32Z</time></trkpt><trkpt lat="53.87840" lon="11.62351"><ele>36</ele><time>2012-09-11T11:43:35Z</time></trkpt><trkpt lat="53.87839" lon="11.62340"><ele>33</ele><time>2012-09-11T11:43:38Z</time></trkpt><trkpt lat="53.87838" lon="11.62329"><ele>29</ele><time>2012-09-11T11:43:41Z</time></trkpt><trkpt lat="53.87835" lon="11.62316"><ele>29</ele><time>2012-09-11T11:43:43Z</time></trkpt><trkpt lat="53.87832" lon="11.62307"><ele>31</ele><time>2012-09-11T11:43:45Z</time></trkpt><trkpt lat="53.87831" lon="11.62302"><ele>31</ele><time>2012-09-11T11:43:46Z</time></trkpt><trkpt lat="53.87829" lon="11.62294"><ele>30</ele><time>2012-09-11T11:43:48Z</time></trkpt><trkpt lat="53.87825" lon="11.62285"><ele>31</ele><time>2012-09-11T11:43:50Z</time></trkpt><trkpt lat="53.87805" lon="11.62236"><ele>38</ele><time>2012-09-11T11:44:02Z</time></trkpt><trkpt lat="53.87803" lon="11.62233"><ele>38</ele><time>2012-09-11T11:44:03Z</time></trkpt><trkpt lat="53.87801" lon="11.62226"><ele>40</ele><time>2012-09-11T11:44:05Z</time></trkpt><trkpt lat="53.87796" lon="11.62212"><ele>38</ele><time>2012-09-11T11:44:09Z</time></trkpt><trkpt lat="53.87795" lon="11.62203"><ele>39</ele><time>2012-09-11T11:44:12Z</time></trkpt><trkpt lat="53.87791" lon="11.62186"><ele>35</ele><time>2012-09-11T11:44:17Z</time></trkpt><trkpt lat="53.87787" lon="11.62177"><ele>33</ele><time>2012-09-11T11:44:19Z</time></trkpt><trkpt lat="53.87772" lon="11.62151"><ele>39</ele><time>2012-09-11T11:44:26Z</time></trkpt><trkpt lat="53.87768" lon="11.62145"><ele>34</ele><time>2012-09-11T11:44:28Z</time></trkpt><trkpt lat="53.87751" lon="11.62124"><ele>40</ele><time>2012-09-11T11:44:42Z</time></trkpt><trkpt lat="53.87748" lon="11.62125"><ele>47</ele><time>2012-09-11T11:45:19Z</time></trkpt><trkpt lat="53.87746" lon="11.62120"><ele>48</ele><time>2012-09-11T11:45:34Z</time></trkpt><trkpt lat="53.87744" lon="11.62121"><ele>49</ele><time>2012-09-11T11:45:38Z</time></trkpt><trkpt lat="53.87743" lon="11.62125"><ele>41</ele><time>2012-09-11T11:46:07Z</time></trkpt><trkpt lat="53.87744" lon="11.62131"><ele>40</ele><time>2012-09-11T11:46:36Z</time></trkpt><trkpt lat="53.87747" lon="11.62132"><ele>40</ele><time>2012-09-11T11:47:33Z</time></trkpt><trkpt lat="53.87748" lon="11.62128"><ele>38</ele><time>2012-09-11T11:47:40Z</time></trkpt><trkpt lat="53.87751" lon="11.62130"><ele>47</ele><time>2012-09-11T11:48:45Z</time></trkpt><trkpt lat="53.87754" lon="11.62138"><ele>48</ele><time>2012-09-11T11:48:48Z</time></trkpt><trkpt lat="53.87756" lon="11.62141"><ele>47</ele><time>2012-09-11T11:48:49Z</time></trkpt><trkpt lat="53.87759" lon="11.62145"><ele>47</ele><time>2012-09-11T11:48:50Z</time></trkpt><trkpt lat="53.87771" lon="11.62161"><ele>45</ele><time>2012-09-11T11:48:55Z</time></trkpt><trkpt lat="53.87777" lon="11.62170"><ele>44</ele><time>2012-09-11T11:48:57Z</time></trkpt><trkpt lat="53.87781" lon="11.62177"><ele>44</ele><time>2012-09-11T11:48:59Z</time></trkpt><trkpt lat="53.87782" lon="11.62182"><ele>46</ele><time>2012-09-11T11:49:00Z</time></trkpt><trkpt lat="53.87792" lon="11.62214"><ele>44</ele><time>2012-09-11T11:49:09Z</time></trkpt><trkpt lat="53.87793" lon="11.62218"><ele>43</ele><time>2012-09-11T11:49:10Z</time></trkpt><trkpt lat="53.87809" lon="11.62268"><ele>39</ele><time>2012-09-11T11:49:20Z</time></trkpt><trkpt lat="53.87815" lon="11.62286"><ele>38</ele><time>2012-09-11T11:49:24Z</time></trkpt><trkpt lat="53.87825" lon="11.62317"><ele>41</ele><time>2012-09-11T11:49:31Z</time></trkpt><trkpt lat="53.87827" lon="11.62326"><ele>40</ele><time>2012-09-11T11:49:33Z</time></trkpt><trkpt lat="53.87831" lon="11.62349"><ele>45</ele><time>2012-09-11T11:49:38Z</time></trkpt><trkpt lat="53.87836" lon="11.62366"><ele>43</ele><time>2012-09-11T11:49:42Z</time></trkpt><trkpt lat="53.87838" lon="11.62369"><ele>43</ele><time>2012-09-11T11:49:43Z</time></trkpt><trkpt lat="53.87840" lon="11.62372"><ele>46</ele><time>2012-09-11T11:49:44Z</time></trkpt><trkpt lat="53.87849" lon="11.62385"><ele>44</ele><time>2012-09-11T11:49:48Z</time></trkpt><trkpt lat="53.87851" lon="11.62388"><ele>44</ele><time>2012-09-11T11:49:49Z</time></trkpt><trkpt lat="53.87863" lon="11.62402"><ele>45</ele><time>2012-09-11T11:49:55Z</time></trkpt><trkpt lat="53.87867" lon="11.62410"><ele>46</ele><time>2012-09-11T11:49:58Z</time></trkpt><trkpt lat="53.87866" lon="11.62414"><ele>39</ele><time>2012-09-11T11:50:02Z</time></trkpt><trkpt lat="53.87866" lon="11.62414"><ele>39</ele><time>2012-09-11T11:50:02Z</time></trkpt><trkpt lat="53.87864" lon="11.62416"><ele>44</ele><time>2012-09-11T11:50:16Z</time></trkpt><trkpt lat="53.87865" lon="11.62427"><ele>71</ele><time>2012-09-11T11:50:21Z</time></trkpt><trkpt lat="53.87866" lon="11.62427"><ele>62</ele><time>2012-09-11T11:50:46Z</time></trkpt><trkpt lat="53.87867" lon="11.62432"><ele>55</ele><time>2012-09-11T11:52:04Z</time></trkpt><trkpt lat="53.87865" lon="11.62435"><ele>53</ele><time>2012-09-11T11:52:06Z</time></trkpt><trkpt lat="53.87863" lon="11.62437"><ele>53</ele><time>2012-09-11T11:52:07Z</time></trkpt><trkpt lat="53.87858" lon="11.62443"><ele>51</ele><time>2012-09-11T11:52:10Z</time></trkpt><trkpt lat="53.87858" lon="11.62450"><ele>50</ele><time>2012-09-11T11:52:13Z</time></trkpt><trkpt lat="53.87856" lon="11.62454"><ele>50</ele><time>2012-09-11T11:52:15Z</time></trkpt><trkpt lat="53.87851" lon="11.62462"><ele>52</ele><time>2012-09-11T11:52:18Z</time></trkpt><trkpt lat="53.87847" lon="11.62466"><ele>47</ele><time>2012-09-11T11:52:20Z</time></trkpt><trkpt lat="53.87844" lon="11.62468"><ele>44</ele><time>2012-09-11T11:52:21Z</time></trkpt><trkpt lat="53.87833" lon="11.62476"><ele>39</ele><time>2012-09-11T11:52:26Z</time></trkpt><trkpt lat="53.87831" lon="11.62476"><ele>35</ele><time>2012-09-11T11:52:27Z</time></trkpt><trkpt lat="53.87775" lon="11.62492"><ele>45</ele><time>2012-09-11T11:52:46Z</time></trkpt><trkpt lat="53.87772" lon="11.62493"><ele>47</ele><time>2012-09-11T11:52:47Z</time></trkpt><trkpt lat="53.87769" lon="11.62493"><ele>46</ele><time>2012-09-11T11:52:48Z</time></trkpt><trkpt lat="53.87757" lon="11.62497"><ele>49</ele><time>2012-09-11T11:52:52Z</time></trkpt><trkpt lat="53.87755" lon="11.62497"><ele>50</ele><time>2012-09-11T11:52:53Z</time></trkpt><trkpt lat="53.87719" lon="11.62502"><ele>49</ele><time>2012-09-11T11:53:05Z</time></trkpt><trkpt lat="53.87711" lon="11.62502"><ele>53</ele><time>2012-09-11T11:53:08Z</time></trkpt><trkpt lat="53.87701" lon="11.62502"><ele>49</ele><time>2012-09-11T11:53:11Z</time></trkpt><trkpt lat="53.87690" lon="11.62499"><ele>47</ele><time>2012-09-11T11:53:15Z</time></trkpt><trkpt lat="53.87687" lon="11.62498"><ele>48</ele><time>2012-09-11T11:53:16Z</time></trkpt><trkpt lat="53.87682" lon="11.62495"><ele>48</ele><time>2012-09-11T11:53:18Z</time></trkpt><trkpt lat="53.87680" lon="11.62492"><ele>50</ele><time>2012-09-11T11:53:19Z</time></trkpt><trkpt lat="53.87675" lon="11.62489"><ele>50</ele><time>2012-09-11T11:53:21Z</time></trkpt><trkpt lat="53.87643" lon="11.62465"><ele>46</ele><time>2012-09-11T11:53:35Z</time></trkpt><trkpt lat="53.87639" lon="11.62458"><ele>45</ele><time>2012-09-11T11:53:38Z</time></trkpt><trkpt lat="53.87639" lon="11.62454"><ele>48</ele><time>2012-09-11T11:53:40Z</time></trkpt><trkpt lat="53.87639" lon="11.62444"><ele>50</ele><time>2012-09-11T11:53:44Z</time></trkpt><trkpt lat="53.87638" lon="11.62434"><ele>47</ele><time>2012-09-11T11:53:48Z</time></trkpt><trkpt lat="53.87636" lon="11.62423"><ele>47</ele><time>2012-09-11T11:53:52Z</time></trkpt><trkpt lat="53.87634" lon="11.62419"><ele>48</ele><time>2012-09-11T11:53:56Z</time></trkpt><trkpt lat="53.87632" lon="11.62415"><ele>48</ele><time>2012-09-11T11:53:58Z</time></trkpt><trkpt lat="53.87627" lon="11.62405"><ele>46</ele><time>2012-09-11T11:54:04Z</time></trkpt><trkpt lat="53.87594" lon="11.62337"><ele>47</ele><time>2012-09-11T11:54:31Z</time></trkpt><trkpt lat="53.87593" lon="11.62334"><ele>47</ele><time>2012-09-11T11:54:32Z</time></trkpt><trkpt lat="53.87591" lon="11.62331"><ele>47</ele><time>2012-09-11T11:54:33Z</time></trkpt><trkpt lat="53.87589" lon="11.62325"><ele>47</ele><time>2012-09-11T11:54:35Z</time></trkpt><trkpt lat="53.87588" lon="11.62318"><ele>48</ele><time>2012-09-11T11:54:37Z</time></trkpt><trkpt lat="53.87587" lon="11.62314"><ele>49</ele><time>2012-09-11T11:54:38Z</time></trkpt><trkpt lat="53.87586" lon="11.62309"><ele>49</ele><time>2012-09-11T11:54:39Z</time></trkpt><trkpt lat="53.87583" lon="11.62290"><ele>49</ele><time>2012-09-11T11:54:43Z</time></trkpt><trkpt lat="53.87582" lon="11.62286"><ele>48</ele><time>2012-09-11T11:54:44Z</time></trkpt><trkpt lat="53.87581" lon="11.62282"><ele>47</ele><time>2012-09-11T11:54:45Z</time></trkpt><trkpt lat="53.87580" lon="11.62262"><ele>45</ele><time>2012-09-11T11:54:49Z</time></trkpt><trkpt lat="53.87579" lon="11.62250"><ele>45</ele><time>2012-09-11T11:54:51Z</time></trkpt><trkpt lat="53.87578" lon="11.62231"><ele>46</ele><time>2012-09-11T11:54:55Z</time></trkpt><trkpt lat="53.87578" lon="11.62226"><ele>46</ele><time>2012-09-11T11:54:56Z</time></trkpt><trkpt lat="53.87578" lon="11.62221"><ele>47</ele><time>2012-09-11T11:54:57Z</time></trkpt><trkpt lat="53.87578" lon="11.62207"><ele>44</ele><time>2012-09-11T11:55:00Z</time></trkpt><trkpt lat="53.87576" lon="11.62190"><ele>44</ele><time>2012-09-11T11:55:04Z</time></trkpt><trkpt lat="53.87575" lon="11.62177"><ele>43</ele><time>2012-09-11T11:55:07Z</time></trkpt><trkpt lat="53.87573" lon="11.62169"><ele>42</ele><time>2012-09-11T11:55:09Z</time></trkpt><trkpt lat="53.87566" lon="11.62146"><ele>43</ele><time>2012-09-11T11:55:15Z</time></trkpt><trkpt lat="53.87564" lon="11.62143"><ele>43</ele><time>2012-09-11T11:55:16Z</time></trkpt><trkpt lat="53.87562" lon="11.62140"><ele>42</ele><time>2012-09-11T11:55:17Z</time></trkpt><trkpt lat="53.87559" lon="11.62138"><ele>40</ele><time>2012-09-11T11:55:18Z</time></trkpt><trkpt lat="53.87551" lon="11.62129"><ele>41</ele><time>2012-09-11T11:55:23Z</time></trkpt><trkpt lat="53.87551" lon="11.62129"><ele>41</ele><time>2012-09-11T11:55:23Z</time></trkpt><trkpt lat="53.87551" lon="11.62128"><ele>29</ele><time>2012-09-11T11:55:32Z</time></trkpt><trkpt lat="53.87556" lon="11.62136"><ele>37</ele><time>2012-09-11T11:55:59Z</time></trkpt><trkpt lat="53.87564" lon="11.62148"><ele>43</ele><time>2012-09-11T11:56:03Z</time></trkpt><trkpt lat="53.87566" lon="11.62151"><ele>43</ele><time>2012-09-11T11:56:04Z</time></trkpt><trkpt lat="53.87570" lon="11.62164"><ele>47</ele><time>2012-09-11T11:56:07Z</time></trkpt><trkpt lat="53.87572" lon="11.62172"><ele>46</ele><time>2012-09-11T11:56:09Z</time></trkpt><trkpt lat="53.87576" lon="11.62197"><ele>46</ele><time>2012-09-11T11:56:14Z</time></trkpt><trkpt lat="53.87577" lon="11.62202"><ele>46</ele><time>2012-09-11T11:56:15Z</time></trkpt><trkpt lat="53.87577" lon="11.62221"><ele>46</ele><time>2012-09-11T11:56:19Z</time></trkpt><trkpt lat="53.87579" lon="11.62241"><ele>49</ele><time>2012-09-11T11:56:23Z</time></trkpt><trkpt lat="53.87585" lon="11.62311"><ele>50</ele><time>2012-09-11T11:56:36Z</time></trkpt><trkpt lat="53.87586" lon="11.62316"><ele>50</ele><time>2012-09-11T11:56:37Z</time></trkpt><trkpt lat="53.87590" lon="11.62339"><ele>51</ele><time>2012-09-11T11:56:41Z</time></trkpt><trkpt lat="53.87594" lon="11.62351"><ele>52</ele><time>2012-09-11T11:56:43Z</time></trkpt><trkpt lat="53.87597" lon="11.62359"><ele>52</ele><time>2012-09-11T11:56:45Z</time></trkpt><trkpt lat="53.87600" lon="11.62365"><ele>53</ele><time>2012-09-11T11:56:46Z</time></trkpt><trkpt lat="53.87603" lon="11.62370"><ele>54</ele><time>2012-09-11T11:56:47Z</time></trkpt><trkpt lat="53.87633" lon="11.62421"><ele>48</ele><time>2012-09-11T11:57:01Z</time></trkpt><trkpt lat="53.87635" lon="11.62425"><ele>48</ele><time>2012-09-11T11:57:02Z</time></trkpt><trkpt lat="53.87636" lon="11.62429"><ele>48</ele><time>2012-09-11T11:57:03Z</time></trkpt><trkpt lat="53.87637" lon="11.62432"><ele>47</ele><time>2012-09-11T11:57:04Z</time></trkpt><trkpt lat="53.87638" lon="11.62438"><ele>46</ele><time>2012-09-11T11:57:06Z</time></trkpt><trkpt lat="53.87639" lon="11.62456"><ele>50</ele><time>2012-09-11T11:57:12Z</time></trkpt><trkpt lat="53.87636" lon="11.62460"><ele>49</ele><time>2012-09-11T11:57:14Z</time></trkpt><trkpt lat="53.87633" lon="11.62459"><ele>50</ele><time>2012-09-11T11:57:16Z</time></trkpt><trkpt lat="53.87631" lon="11.62458"><ele>49</ele><time>2012-09-11T11:57:17Z</time></trkpt><trkpt lat="53.87612" lon="11.62446"><ele>51</ele><time>2012-09-11T11:57:25Z</time></trkpt><trkpt lat="53.87610" lon="11.62444"><ele>52</ele><time>2012-09-11T11:57:26Z</time></trkpt><trkpt lat="53.87607" lon="11.62443"><ele>52</ele><time>2012-09-11T11:57:27Z</time></trkpt><trkpt lat="53.87578" lon="11.62425"><ele>48</ele><time>2012-09-11T11:57:39Z</time></trkpt><trkpt lat="53.87574" lon="11.62423"><ele>48</ele><time>2012-09-11T11:57:41Z</time></trkpt><trkpt lat="53.87571" lon="11.62423"><ele>51</ele><time>2012-09-11T11:57:42Z</time></trkpt><trkpt lat="53.87559" lon="11.62419"><ele>53</ele><time>2012-09-11T11:57:46Z</time></trkpt><trkpt lat="53.87556" lon="11.62417"><ele>51</ele><time>2012-09-11T11:57:48Z</time></trkpt><trkpt lat="53.87523" lon="11.62402"><ele>55</ele><time>2012-09-11T11:58:00Z</time></trkpt><trkpt lat="53.87520" lon="11.62402"><ele>54</ele><time>2012-09-11T11:58:01Z</time></trkpt><trkpt lat="53.87510" lon="11.62397"><ele>55</ele><time>2012-09-11T11:58:05Z</time></trkpt><trkpt lat="53.87507" lon="11.62396"><ele>55</ele><time>2012-09-11T11:58:06Z</time></trkpt><trkpt lat="53.87502" lon="11.62395"><ele>54</ele><time>2012-09-11T11:58:08Z</time></trkpt><trkpt lat="53.87499" lon="11.62394"><ele>53</ele><time>2012-09-11T11:58:09Z</time></trkpt><trkpt lat="53.87488" lon="11.62390"><ele>51</ele><time>2012-09-11T11:58:13Z</time></trkpt><trkpt lat="53.87486" lon="11.62388"><ele>51</ele><time>2012-09-11T11:58:14Z</time></trkpt><trkpt lat="53.87483" lon="11.62386"><ele>54</ele><time>2012-09-11T11:58:15Z</time></trkpt><trkpt lat="53.87472" lon="11.62380"><ele>53</ele><time>2012-09-11T11:58:19Z</time></trkpt><trkpt lat="53.87467" lon="11.62379"><ele>53</ele><time>2012-09-11T11:58:21Z</time></trkpt><trkpt lat="53.87457" lon="11.62377"><ele>53</ele><time>2012-09-11T11:58:24Z</time></trkpt><trkpt lat="53.87451" lon="11.62375"><ele>53</ele><time>2012-09-11T11:58:26Z</time></trkpt><trkpt lat="53.87449" lon="11.62373"><ele>53</ele><time>2012-09-11T11:58:27Z</time></trkpt><trkpt lat="53.87438" lon="11.62366"><ele>53</ele><time>2012-09-11T11:58:31Z</time></trkpt><trkpt lat="53.87436" lon="11.62365"><ele>53</ele><time>2012-09-11T11:58:32Z</time></trkpt><trkpt lat="53.87428" lon="11.62360"><ele>52</ele><time>2012-09-11T11:58:35Z</time></trkpt><trkpt lat="53.87418" lon="11.62354"><ele>49</ele><time>2012-09-11T11:58:39Z</time></trkpt><trkpt lat="53.87416" lon="11.62352"><ele>47</ele><time>2012-09-11T11:58:40Z</time></trkpt><trkpt lat="53.87393" lon="11.62336"><ele>46</ele><time>2012-09-11T11:58:47Z</time></trkpt><trkpt lat="53.87389" lon="11.62334"><ele>46</ele><time>2012-09-11T11:58:48Z</time></trkpt><trkpt lat="53.87386" lon="11.62332"><ele>47</ele><time>2012-09-11T11:58:49Z</time></trkpt><trkpt lat="53.87383" lon="11.62329"><ele>49</ele><time>2012-09-11T11:58:50Z</time></trkpt><trkpt lat="53.87331" lon="11.62277"><ele>48</ele><time>2012-09-11T11:59:04Z</time></trkpt><trkpt lat="53.87328" lon="11.62272"><ele>46</ele><time>2012-09-11T11:59:05Z</time></trkpt><trkpt lat="53.87324" lon="11.62267"><ele>45</ele><time>2012-09-11T11:59:06Z</time></trkpt><trkpt lat="53.87315" lon="11.62256"><ele>44</ele><time>2012-09-11T11:59:08Z</time></trkpt><trkpt lat="53.87308" lon="11.62245"><ele>46</ele><time>2012-09-11T11:59:10Z</time></trkpt><trkpt lat="53.87300" lon="11.62233"><ele>45</ele><time>2012-09-11T11:59:12Z</time></trkpt><trkpt lat="53.87297" lon="11.62226"><ele>46</ele><time>2012-09-11T11:59:13Z</time></trkpt><trkpt lat="53.87285" lon="11.62205"><ele>46</ele><time>2012-09-11T11:59:17Z</time></trkpt><trkpt lat="53.87279" lon="11.62195"><ele>46</ele><time>2012-09-11T11:59:19Z</time></trkpt><trkpt lat="53.87277" lon="11.62192"><ele>46</ele><time>2012-09-11T11:59:20Z</time></trkpt><trkpt lat="53.87274" lon="11.62188"><ele>44</ele><time>2012-09-11T11:59:21Z</time></trkpt><trkpt lat="53.87266" lon="11.62177"><ele>47</ele><time>2012-09-11T11:59:24Z</time></trkpt><trkpt lat="53.87263" lon="11.62172"><ele>47</ele><time>2012-09-11T11:59:25Z</time></trkpt><trkpt lat="53.87262" lon="11.62168"><ele>47</ele><time>2012-09-11T11:59:26Z</time></trkpt><trkpt lat="53.87260" lon="11.62165"><ele>46</ele><time>2012-09-11T11:59:27Z</time></trkpt><trkpt lat="53.87258" lon="11.62161"><ele>47</ele><time>2012-09-11T11:59:28Z</time></trkpt><trkpt lat="53.87257" lon="11.62158"><ele>47</ele><time>2012-09-11T11:59:29Z</time></trkpt><trkpt lat="53.87251" lon="11.62148"><ele>43</ele><time>2012-09-11T11:59:32Z</time></trkpt><trkpt lat="53.87249" lon="11.62145"><ele>45</ele><time>2012-09-11T11:59:33Z</time></trkpt><trkpt lat="53.87241" lon="11.62132"><ele>47</ele><time>2012-09-11T11:59:37Z</time></trkpt><trkpt lat="53.87235" lon="11.62124"><ele>47</ele><time>2012-09-11T11:59:40Z</time></trkpt><trkpt lat="53.87233" lon="11.62121"><ele>47</ele><time>2012-09-11T11:59:41Z</time></trkpt><trkpt lat="53.87231" lon="11.62118"><ele>49</ele><time>2012-09-11T11:59:42Z</time></trkpt><trkpt lat="53.87229" lon="11.62115"><ele>49</ele><time>2012-09-11T11:59:43Z</time></trkpt><trkpt lat="53.87223" lon="11.62104"><ele>49</ele><time>2012-09-11T11:59:46Z</time></trkpt><trkpt lat="53.87220" lon="11.62101"><ele>48</ele><time>2012-09-11T11:59:47Z</time></trkpt><trkpt lat="53.87215" lon="11.62095"><ele>47</ele><time>2012-09-11T11:59:49Z</time></trkpt><trkpt lat="53.87186" lon="11.62054"><ele>45</ele><time>2012-09-11T12:00:00Z</time></trkpt><trkpt lat="53.87182" lon="11.62050"><ele>45</ele><time>2012-09-11T12:00:01Z</time></trkpt><trkpt lat="53.87180" lon="11.62046"><ele>46</ele><time>2012-09-11T12:00:02Z</time></trkpt><trkpt lat="53.87170" lon="11.62033"><ele>48</ele><time>2012-09-11T12:00:06Z</time></trkpt><trkpt lat="53.87167" lon="11.62030"><ele>48</ele><time>2012-09-11T12:00:07Z</time></trkpt><trkpt lat="53.87159" lon="11.62018"><ele>46</ele><time>2012-09-11T12:00:10Z</time></trkpt><trkpt lat="53.87157" lon="11.62013"><ele>46</ele><time>2012-09-11T12:00:11Z</time></trkpt><trkpt lat="53.87141" lon="11.61986"><ele>43</ele><time>2012-09-11T12:00:19Z</time></trkpt><trkpt lat="53.87145" lon="11.61978"><ele>50</ele><time>2012-09-11T12:00:25Z</time></trkpt><trkpt lat="53.87158" lon="11.61955"><ele>51</ele><time>2012-09-11T12:00:32Z</time></trkpt><trkpt lat="53.87162" lon="11.61948"><ele>52</ele><time>2012-09-11T12:00:34Z</time></trkpt><trkpt lat="53.87166" lon="11.61938"><ele>52</ele><time>2012-09-11T12:00:36Z</time></trkpt><trkpt lat="53.87168" lon="11.61928"><ele>53</ele><time>2012-09-11T12:00:38Z</time></trkpt><trkpt lat="53.87171" lon="11.61907"><ele>49</ele><time>2012-09-11T12:00:42Z</time></trkpt><trkpt lat="53.87167" lon="11.61909"><ele>50</ele><time>2012-09-11T12:00:49Z</time></trkpt><trkpt lat="53.87165" lon="11.61912"><ele>47</ele><time>2012-09-11T12:00:50Z</time></trkpt><trkpt lat="53.87163" lon="11.61918"><ele>43</ele><time>2012-09-11T12:00:52Z</time></trkpt><trkpt lat="53.87155" lon="11.61939"><ele>42</ele><time>2012-09-11T12:00:58Z</time></trkpt><trkpt lat="53.87153" lon="11.61950"><ele>43</ele><time>2012-09-11T12:01:01Z</time></trkpt><trkpt lat="53.87150" lon="11.61961"><ele>43</ele><time>2012-09-11T12:01:04Z</time></trkpt><trkpt lat="53.87147" lon="11.61973"><ele>42</ele><time>2012-09-11T12:01:08Z</time></trkpt><trkpt lat="53.87143" lon="11.61979"><ele>43</ele><time>2012-09-11T12:01:12Z</time></trkpt><trkpt lat="53.87137" lon="11.61979"><ele>41</ele><time>2012-09-11T12:01:16Z</time></trkpt><trkpt lat="53.87132" lon="11.61976"><ele>41</ele><time>2012-09-11T12:01:18Z</time></trkpt><trkpt lat="53.87127" lon="11.61973"><ele>40</ele><time>2012-09-11T12:01:20Z</time></trkpt><trkpt lat="53.87108" lon="11.61954"><ele>45</ele><time>2012-09-11T12:01:29Z</time></trkpt><trkpt lat="53.87095" lon="11.61929"><ele>56</ele><time>2012-09-11T12:01:49Z</time></trkpt><trkpt lat="53.87090" lon="11.61927"><ele>60</ele><time>2012-09-11T12:01:50Z</time></trkpt><trkpt lat="53.87086" lon="11.61918"><ele>51</ele><time>2012-09-11T12:01:53Z</time></trkpt><trkpt lat="53.87087" lon="11.61908"><ele>46</ele><time>2012-09-11T12:01:56Z</time></trkpt><trkpt lat="53.87084" lon="11.61901"><ele>44</ele><time>2012-09-11T12:01:58Z</time></trkpt><trkpt lat="53.87061" lon="11.61849"><ele>48</ele><time>2012-09-11T12:02:11Z</time></trkpt><trkpt lat="53.87060" lon="11.61845"><ele>50</ele><time>2012-09-11T12:02:12Z</time></trkpt><trkpt lat="53.87058" lon="11.61840"><ele>52</ele><time>2012-09-11T12:02:13Z</time></trkpt><trkpt lat="53.87056" lon="11.61831"><ele>52</ele><time>2012-09-11T12:02:15Z</time></trkpt><trkpt lat="53.87053" lon="11.61822"><ele>54</ele><time>2012-09-11T12:02:17Z</time></trkpt><trkpt lat="53.87052" lon="11.61817"><ele>55</ele><time>2012-09-11T12:02:18Z</time></trkpt><trkpt lat="53.87050" lon="11.61812"><ele>56</ele><time>2012-09-11T12:02:19Z</time></trkpt><trkpt lat="53.87050" lon="11.61806"><ele>55</ele><time>2012-09-11T12:02:20Z</time></trkpt><trkpt lat="53.87048" lon="11.61801"><ele>52</ele><time>2012-09-11T12:02:21Z</time></trkpt><trkpt lat="53.87047" lon="11.61795"><ele>49</ele><time>2012-09-11T12:02:22Z</time></trkpt><trkpt lat="53.87045" lon="11.61785"><ele>49</ele><time>2012-09-11T12:02:24Z</time></trkpt><trkpt lat="53.87041" lon="11.61769"><ele>51</ele><time>2012-09-11T12:02:27Z</time></trkpt><trkpt lat="53.87040" lon="11.61762"><ele>49</ele><time>2012-09-11T12:02:28Z</time></trkpt><trkpt lat="53.87039" lon="11.61757"><ele>47</ele><time>2012-09-11T12:02:29Z</time></trkpt><trkpt lat="53.87034" lon="11.61733"><ele>48</ele><time>2012-09-11T12:02:33Z</time></trkpt><trkpt lat="53.87029" lon="11.61716"><ele>48</ele><time>2012-09-11T12:02:36Z</time></trkpt><trkpt lat="53.87019" lon="11.61685"><ele>45</ele><time>2012-09-11T12:02:41Z</time></trkpt><trkpt lat="53.87007" lon="11.61656"><ele>49</ele><time>2012-09-11T12:02:46Z</time></trkpt><trkpt lat="53.87000" lon="11.61649"><ele>47</ele><time>2012-09-11T12:02:48Z</time></trkpt><trkpt lat="53.86992" lon="11.61643"><ele>43</ele><time>2012-09-11T12:02:50Z</time></trkpt><trkpt lat="53.86981" lon="11.61637"><ele>42</ele><time>2012-09-11T12:02:52Z</time></trkpt><trkpt lat="53.86974" lon="11.61635"><ele>43</ele><time>2012-09-11T12:02:53Z</time></trkpt><trkpt lat="53.86909" lon="11.61613"><ele>44</ele><time>2012-09-11T12:03:08Z</time></trkpt><trkpt lat="53.86903" lon="11.61609"><ele>40</ele><time>2012-09-11T12:03:10Z</time></trkpt><trkpt lat="53.86882" lon="11.61601"><ele>43</ele><time>2012-09-11T12:03:17Z</time></trkpt><trkpt lat="53.86875" lon="11.61599"><ele>40</ele><time>2012-09-11T12:03:19Z</time></trkpt><trkpt lat="53.86868" lon="11.61595"><ele>41</ele><time>2012-09-11T12:03:21Z</time></trkpt><trkpt lat="53.86828" lon="11.61577"><ele>42</ele><time>2012-09-11T12:03:30Z</time></trkpt><trkpt lat="53.86823" lon="11.61576"><ele>45</ele><time>2012-09-11T12:03:31Z</time></trkpt><trkpt lat="53.86801" lon="11.61567"><ele>41</ele><time>2012-09-11T12:03:37Z</time></trkpt><trkpt lat="53.86794" lon="11.61562"><ele>41</ele><time>2012-09-11T12:03:40Z</time></trkpt><trkpt lat="53.86788" lon="11.61559"><ele>41</ele><time>2012-09-11T12:03:42Z</time></trkpt><trkpt lat="53.86769" lon="11.61549"><ele>47</ele><time>2012-09-11T12:03:49Z</time></trkpt><trkpt lat="53.86759" lon="11.61542"><ele>47</ele><time>2012-09-11T12:03:53Z</time></trkpt><trkpt lat="53.86755" lon="11.61533"><ele>49</ele><time>2012-09-11T12:03:57Z</time></trkpt><trkpt lat="53.86750" lon="11.61530"><ele>46</ele><time>2012-09-11T12:03:59Z</time></trkpt><trkpt lat="53.86717" lon="11.61508"><ele>49</ele><time>2012-09-11T12:04:13Z</time></trkpt><trkpt lat="53.86715" lon="11.61507"><ele>48</ele><time>2012-09-11T12:04:14Z</time></trkpt><trkpt lat="53.86687" lon="11.61490"><ele>51</ele><time>2012-09-11T12:04:27Z</time></trkpt><trkpt lat="53.86683" lon="11.61487"><ele>51</ele><time>2012-09-11T12:04:29Z</time></trkpt><trkpt lat="53.86674" lon="11.61479"><ele>49</ele><time>2012-09-11T12:04:33Z</time></trkpt><trkpt lat="53.86667" lon="11.61474"><ele>50</ele><time>2012-09-11T12:04:36Z</time></trkpt><trkpt lat="53.86648" lon="11.61462"><ele>52</ele><time>2012-09-11T12:04:44Z</time></trkpt><trkpt lat="53.86646" lon="11.61461"><ele>53</ele><time>2012-09-11T12:04:45Z</time></trkpt><trkpt lat="53.86641" lon="11.61459"><ele>52</ele><time>2012-09-11T12:04:47Z</time></trkpt><trkpt lat="53.86632" lon="11.61453"><ele>51</ele><time>2012-09-11T12:04:51Z</time></trkpt><trkpt lat="53.86626" lon="11.61448"><ele>52</ele><time>2012-09-11T12:04:54Z</time></trkpt><trkpt lat="53.86623" lon="11.61446"><ele>52</ele><time>2012-09-11T12:04:55Z</time></trkpt><trkpt lat="53.86615" lon="11.61440"><ele>53</ele><time>2012-09-11T12:04:58Z</time></trkpt><trkpt lat="53.86594" lon="11.61424"><ele>52</ele><time>2012-09-11T12:05:06Z</time></trkpt><trkpt lat="53.86592" lon="11.61422"><ele>54</ele><time>2012-09-11T12:05:07Z</time></trkpt><trkpt lat="53.86581" lon="11.61414"><ele>52</ele><time>2012-09-11T12:05:11Z</time></trkpt><trkpt lat="53.86548" lon="11.61392"><ele>51</ele><time>2012-09-11T12:05:26Z</time></trkpt><trkpt lat="53.86546" lon="11.61391"><ele>50</ele><time>2012-09-11T12:05:27Z</time></trkpt><trkpt lat="53.86541" lon="11.61387"><ele>51</ele><time>2012-09-11T12:05:30Z</time></trkpt><trkpt lat="53.86500" lon="11.61355"><ele>55</ele><time>2012-09-11T12:05:51Z</time></trkpt><trkpt lat="53.86498" lon="11.61353"><ele>54</ele><time>2012-09-11T12:05:52Z</time></trkpt><trkpt lat="53.86487" lon="11.61335"><ele>53</ele><time>2012-09-11T12:05:56Z</time></trkpt><trkpt lat="53.86483" lon="11.61329"><ele>54</ele><time>2012-09-11T12:05:57Z</time></trkpt><trkpt lat="53.86475" lon="11.61311"><ele>55</ele><time>2012-09-11T12:06:00Z</time></trkpt><trkpt lat="53.86473" lon="11.61305"><ele>55</ele><time>2012-09-11T12:06:01Z</time></trkpt><trkpt lat="53.86462" lon="11.61275"><ele>54</ele><time>2012-09-11T12:06:08Z</time></trkpt><trkpt lat="53.86458" lon="11.61267"><ele>52</ele><time>2012-09-11T12:06:10Z</time></trkpt><trkpt lat="53.86454" lon="11.61264"><ele>51</ele><time>2012-09-11T12:06:11Z</time></trkpt><trkpt lat="53.86448" lon="11.61259"><ele>49</ele><time>2012-09-11T12:06:13Z</time></trkpt><trkpt lat="53.86444" lon="11.61258"><ele>49</ele><time>2012-09-11T12:06:14Z</time></trkpt><trkpt lat="53.86441" lon="11.61261"><ele>51</ele><time>2012-09-11T12:06:15Z</time></trkpt><trkpt lat="53.86407" lon="11.61289"><ele>50</ele><time>2012-09-11T12:06:27Z</time></trkpt><trkpt lat="53.86404" lon="11.61292"><ele>50</ele><time>2012-09-11T12:06:28Z</time></trkpt><trkpt lat="53.86396" lon="11.61304"><ele>51</ele><time>2012-09-11T12:06:31Z</time></trkpt><trkpt lat="53.86394" lon="11.61309"><ele>51</ele><time>2012-09-11T12:06:32Z</time></trkpt><trkpt lat="53.86393" lon="11.61313"><ele>50</ele><time>2012-09-11T12:06:33Z</time></trkpt><trkpt lat="53.86391" lon="11.61324"><ele>49</ele><time>2012-09-11T12:06:35Z</time></trkpt><trkpt lat="53.86388" lon="11.61346"><ele>52</ele><time>2012-09-11T12:06:39Z</time></trkpt><trkpt lat="53.86381" lon="11.61395"><ele>52</ele><time>2012-09-11T12:06:48Z</time></trkpt><trkpt lat="53.86381" lon="11.61401"><ele>52</ele><time>2012-09-11T12:06:49Z</time></trkpt><trkpt lat="53.86380" lon="11.61407"><ele>52</ele><time>2012-09-11T12:06:50Z</time></trkpt><trkpt lat="53.86380" lon="11.61413"><ele>53</ele><time>2012-09-11T12:06:51Z</time></trkpt><trkpt lat="53.86376" lon="11.61465"><ele>51</ele><time>2012-09-11T12:07:01Z</time></trkpt><trkpt lat="53.86375" lon="11.61471"><ele>51</ele><time>2012-09-11T12:07:02Z</time></trkpt><trkpt lat="53.86366" lon="11.61528"><ele>49</ele><time>2012-09-11T12:07:13Z</time></trkpt><trkpt lat="53.86358" lon="11.61561"><ele>49</ele><time>2012-09-11T12:07:19Z</time></trkpt><trkpt lat="53.86353" lon="11.61574"><ele>48</ele><time>2012-09-11T12:07:21Z</time></trkpt><trkpt lat="53.86352" lon="11.61587"><ele>48</ele><time>2012-09-11T12:07:23Z</time></trkpt><trkpt lat="53.86352" lon="11.61596"><ele>50</ele><time>2012-09-11T12:07:24Z</time></trkpt><trkpt lat="53.86351" lon="11.61611"><ele>51</ele><time>2012-09-11T12:07:26Z</time></trkpt><trkpt lat="53.86350" lon="11.61625"><ele>51</ele><time>2012-09-11T12:07:28Z</time></trkpt><trkpt lat="53.86350" lon="11.61631"><ele>50</ele><time>2012-09-11T12:07:29Z</time></trkpt><trkpt lat="53.86349" lon="11.61651"><ele>50</ele><time>2012-09-11T12:07:32Z</time></trkpt><trkpt lat="53.86347" lon="11.61656"><ele>51</ele><time>2012-09-11T12:07:33Z</time></trkpt><trkpt lat="53.86345" lon="11.61659"><ele>51</ele><time>2012-09-11T12:07:34Z</time></trkpt><trkpt lat="53.86342" lon="11.61665"><ele>49</ele><time>2012-09-11T12:07:35Z</time></trkpt><trkpt lat="53.86341" lon="11.61672"><ele>50</ele><time>2012-09-11T12:07:36Z</time></trkpt><trkpt lat="53.86337" lon="11.61696"><ele>50</ele><time>2012-09-11T12:07:39Z</time></trkpt><trkpt lat="53.86335" lon="11.61704"><ele>48</ele><time>2012-09-11T12:07:40Z</time></trkpt><trkpt lat="53.86333" lon="11.61723"><ele>49</ele><time>2012-09-11T12:07:42Z</time></trkpt><trkpt lat="53.86331" lon="11.61731"><ele>48</ele><time>2012-09-11T12:07:43Z</time></trkpt><trkpt lat="53.86330" lon="11.61741"><ele>46</ele><time>2012-09-11T12:07:44Z</time></trkpt><trkpt lat="53.86316" lon="11.61833"><ele>50</ele><time>2012-09-11T12:07:57Z</time></trkpt><trkpt lat="53.86315" lon="11.61839"><ele>51</ele><time>2012-09-11T12:07:58Z</time></trkpt><trkpt lat="53.86313" lon="11.61842"><ele>52</ele><time>2012-09-11T12:07:59Z</time></trkpt><trkpt lat="53.86310" lon="11.61845"><ele>51</ele><time>2012-09-11T12:08:00Z</time></trkpt><trkpt lat="53.86307" lon="11.61846"><ele>50</ele><time>2012-09-11T12:08:01Z</time></trkpt><trkpt lat="53.86297" lon="11.61851"><ele>50</ele><time>2012-09-11T12:08:04Z</time></trkpt><trkpt lat="53.86294" lon="11.61854"><ele>50</ele><time>2012-09-11T12:08:05Z</time></trkpt><trkpt lat="53.86292" lon="11.61857"><ele>49</ele><time>2012-09-11T12:08:06Z</time></trkpt><trkpt lat="53.86286" lon="11.61862"><ele>47</ele><time>2012-09-11T12:08:08Z</time></trkpt><trkpt lat="53.86277" lon="11.61871"><ele>46</ele><time>2012-09-11T12:08:11Z</time></trkpt><trkpt lat="53.86274" lon="11.61875"><ele>46</ele><time>2012-09-11T12:08:12Z</time></trkpt><trkpt lat="53.86263" lon="11.61884"><ele>47</ele><time>2012-09-11T12:08:16Z</time></trkpt><trkpt lat="53.86259" lon="11.61886"><ele>47</ele><time>2012-09-11T12:08:18Z</time></trkpt><trkpt lat="53.86256" lon="11.61886"><ele>49</ele><time>2012-09-11T12:08:20Z</time></trkpt><trkpt lat="53.86254" lon="11.61885"><ele>46</ele><time>2012-09-11T12:08:23Z</time></trkpt><trkpt lat="53.86252" lon="11.61881"><ele>46</ele><time>2012-09-11T12:08:25Z</time></trkpt><trkpt lat="53.86252" lon="11.61877"><ele>48</ele><time>2012-09-11T12:08:27Z</time></trkpt><trkpt lat="53.86250" lon="11.61872"><ele>50</ele><time>2012-09-11T12:08:29Z</time></trkpt><trkpt lat="53.86248" lon="11.61868"><ele>47</ele><time>2012-09-11T12:08:31Z</time></trkpt><trkpt lat="53.86245" lon="11.61861"><ele>47</ele><time>2012-09-11T12:08:36Z</time></trkpt><trkpt lat="53.86243" lon="11.61857"><ele>44</ele><time>2012-09-11T12:08:38Z</time></trkpt><trkpt lat="53.86242" lon="11.61852"><ele>47</ele><time>2012-09-11T12:08:41Z</time></trkpt><trkpt lat="53.86240" lon="11.61847"><ele>47</ele><time>2012-09-11T12:08:43Z</time></trkpt><trkpt lat="53.86237" lon="11.61844"><ele>47</ele><time>2012-09-11T12:08:45Z</time></trkpt><trkpt lat="53.86237" lon="11.61849"><ele>48</ele><time>2012-09-11T12:08:57Z</time></trkpt><trkpt lat="53.86240" lon="11.61855"><ele>49</ele><time>2012-09-11T12:09:01Z</time></trkpt><trkpt lat="53.86245" lon="11.61863"><ele>50</ele><time>2012-09-11T12:09:04Z</time></trkpt><trkpt lat="53.86248" lon="11.61870"><ele>50</ele><time>2012-09-11T12:09:06Z</time></trkpt><trkpt lat="53.86249" lon="11.61879"><ele>48</ele><time>2012-09-11T12:09:09Z</time></trkpt><trkpt lat="53.86249" lon="11.61881"><ele>48</ele><time>2012-09-11T12:09:11Z</time></trkpt><trkpt lat="53.86247" lon="11.61885"><ele>50</ele><time>2012-09-11T12:09:21Z</time></trkpt><trkpt lat="53.86245" lon="11.61887"><ele>49</ele><time>2012-09-11T12:09:22Z</time></trkpt><trkpt lat="53.86229" lon="11.61907"><ele>45</ele><time>2012-09-11T12:09:31Z</time></trkpt><trkpt lat="53.86223" lon="11.61913"><ele>44</ele><time>2012-09-11T12:09:33Z</time></trkpt><trkpt lat="53.86215" lon="11.61921"><ele>47</ele><time>2012-09-11T12:09:36Z</time></trkpt><trkpt lat="53.86204" lon="11.61930"><ele>49</ele><time>2012-09-11T12:09:41Z</time></trkpt><trkpt lat="53.86202" lon="11.61931"><ele>49</ele><time>2012-09-11T12:09:42Z</time></trkpt><trkpt lat="53.86200" lon="11.61934"><ele>49</ele><time>2012-09-11T12:09:43Z</time></trkpt><trkpt lat="53.86196" lon="11.61938"><ele>49</ele><time>2012-09-11T12:09:45Z</time></trkpt><trkpt lat="53.86194" lon="11.61940"><ele>49</ele><time>2012-09-11T12:09:47Z</time></trkpt><trkpt lat="53.86189" lon="11.61943"><ele>49</ele><time>2012-09-11T12:09:49Z</time></trkpt><trkpt lat="53.86184" lon="11.61948"><ele>48</ele><time>2012-09-11T12:09:51Z</time></trkpt><trkpt lat="53.86174" lon="11.61955"><ele>46</ele><time>2012-09-11T12:09:55Z</time></trkpt><trkpt lat="53.86171" lon="11.61958"><ele>47</ele><time>2012-09-11T12:09:58Z</time></trkpt><trkpt lat="53.86166" lon="11.61960"><ele>46</ele><time>2012-09-11T12:10:01Z</time></trkpt><trkpt lat="53.86164" lon="11.61960"><ele>48</ele><time>2012-09-11T12:10:02Z</time></trkpt><trkpt lat="53.86161" lon="11.61959"><ele>46</ele><time>2012-09-11T12:10:03Z</time></trkpt><trkpt lat="53.86157" lon="11.61957"><ele>44</ele><time>2012-09-11T12:10:05Z</time></trkpt><trkpt lat="53.86152" lon="11.61953"><ele>44</ele><time>2012-09-11T12:10:08Z</time></trkpt><trkpt lat="53.86141" lon="11.61946"><ele>43</ele><time>2012-09-11T12:10:14Z</time></trkpt><trkpt lat="53.86136" lon="11.61943"><ele>43</ele><time>2012-09-11T12:10:17Z</time></trkpt><trkpt lat="53.86134" lon="11.61942"><ele>43</ele><time>2012-09-11T12:10:18Z</time></trkpt><trkpt lat="53.86137" lon="11.61946"><ele>46</ele><time>2012-09-11T12:10:41Z</time></trkpt><trkpt lat="53.86142" lon="11.61949"><ele>45</ele><time>2012-09-11T12:10:43Z</time></trkpt><trkpt lat="53.86148" lon="11.61951"><ele>43</ele><time>2012-09-11T12:10:45Z</time></trkpt><trkpt lat="53.86162" lon="11.61956"><ele>46</ele><time>2012-09-11T12:10:53Z</time></trkpt><trkpt lat="53.86166" lon="11.61956"><ele>43</ele><time>2012-09-11T12:10:55Z</time></trkpt><trkpt lat="53.86169" lon="11.61956"><ele>44</ele><time>2012-09-11T12:10:57Z</time></trkpt><trkpt lat="53.86180" lon="11.61955"><ele>52</ele><time>2012-09-11T12:11:13Z</time></trkpt><trkpt lat="53.86185" lon="11.61953"><ele>53</ele><time>2012-09-11T12:11:15Z</time></trkpt><trkpt lat="53.86191" lon="11.61949"><ele>48</ele><time>2012-09-11T12:11:18Z</time></trkpt><trkpt lat="53.86193" lon="11.61946"><ele>47</ele><time>2012-09-11T12:11:20Z</time></trkpt><trkpt lat="53.86198" lon="11.61939"><ele>48</ele><time>2012-09-11T12:12:37Z</time></trkpt><trkpt lat="53.86209" lon="11.61928"><ele>51</ele><time>2012-09-11T12:12:42Z</time></trkpt><trkpt lat="53.86210" lon="11.61927"><ele>49</ele><time>2012-09-11T12:12:43Z</time></trkpt><trkpt lat="53.86213" lon="11.61925"><ele>49</ele><time>2012-09-11T12:12:45Z</time></trkpt><trkpt lat="53.86211" lon="11.61928"><ele>48</ele><time>2012-09-11T12:13:31Z</time></trkpt><trkpt lat="53.86209" lon="11.61930"><ele>50</ele><time>2012-09-11T12:13:32Z</time></trkpt><trkpt lat="53.86202" lon="11.61937"><ele>49</ele><time>2012-09-11T12:13:35Z</time></trkpt><trkpt lat="53.86200" lon="11.61940"><ele>49</ele><time>2012-09-11T12:13:37Z</time></trkpt><trkpt lat="53.86197" lon="11.61943"><ele>46</ele><time>2012-09-11T12:13:39Z</time></trkpt><trkpt lat="53.86193" lon="11.61945"><ele>46</ele><time>2012-09-11T12:13:51Z</time></trkpt><trkpt lat="53.86193" lon="11.61945"><ele>46</ele><time>2012-09-11T12:13:51Z</time></trkpt><trkpt lat="53.86191" lon="11.61944"><ele>43</ele><time>2012-09-11T12:14:07Z</time></trkpt><trkpt lat="53.86188" lon="11.61944"><ele>46</ele><time>2012-09-11T12:14:43Z</time></trkpt><trkpt lat="53.86182" lon="11.61945"><ele>44</ele><time>2012-09-11T12:14:59Z</time></trkpt><trkpt lat="53.86176" lon="11.61948"><ele>43</ele><time>2012-09-11T12:15:05Z</time></trkpt><trkpt lat="53.86172" lon="11.61952"><ele>46</ele><time>2012-09-11T12:15:11Z</time></trkpt><trkpt lat="53.86171" lon="11.61954"><ele>47</ele><time>2012-09-11T12:15:18Z</time></trkpt><trkpt lat="53.86166" lon="11.61959"><ele>52</ele><time>2012-09-11T12:15:32Z</time></trkpt><trkpt lat="53.86166" lon="11.61960"><ele>49</ele><time>2012-09-11T12:15:45Z</time></trkpt><trkpt lat="53.86163" lon="11.61961"><ele>51</ele><time>2012-09-11T12:15:48Z</time></trkpt><trkpt lat="53.86163" lon="11.61966"><ele>47</ele><time>2012-09-11T12:15:58Z</time></trkpt><trkpt lat="53.86162" lon="11.61970"><ele>46</ele><time>2012-09-11T12:16:01Z</time></trkpt><trkpt lat="53.86161" lon="11.61974"><ele>58</ele><time>2012-09-11T12:16:18Z</time></trkpt><trkpt lat="53.86157" lon="11.61975"><ele>54</ele><time>2012-09-11T12:16:51Z</time></trkpt><trkpt lat="53.86161" lon="11.61970"><ele>45</ele><time>2012-09-11T12:17:29Z</time></trkpt><trkpt lat="53.86162" lon="11.61966"><ele>45</ele><time>2012-09-11T12:18:34Z</time></trkpt><trkpt lat="53.86165" lon="11.61967"><ele>46</ele><time>2012-09-11T12:18:51Z</time></trkpt><trkpt lat="53.86165" lon="11.61967"><ele>46</ele><time>2012-09-11T12:18:51Z</time></trkpt><trkpt lat="53.86165" lon="11.61970"><ele>67</ele><time>2012-09-11T12:20:57Z</time></trkpt><trkpt lat="53.86164" lon="11.61977"><ele>45</ele><time>2012-09-11T12:21:08Z</time></trkpt><trkpt lat="53.86162" lon="11.61974"><ele>43</ele><time>2012-09-11T12:21:39Z</time></trkpt><trkpt lat="53.86164" lon="11.61972"><ele>47</ele><time>2012-09-11T12:23:05Z</time></trkpt><trkpt lat="53.86166" lon="11.61964"><ele>46</ele><time>2012-09-11T12:23:57Z</time></trkpt><trkpt lat="53.86166" lon="11.61959"><ele>46</ele><time>2012-09-11T12:24:03Z</time></trkpt><trkpt lat="53.86168" lon="11.61961"><ele>49</ele><time>2012-09-11T12:24:39Z</time></trkpt><trkpt lat="53.86168" lon="11.61961"><ele>49</ele><time>2012-09-11T12:24:39Z</time></trkpt><trkpt lat="53.86173" lon="11.61958"><ele>53</ele><time>2012-09-11T12:25:59Z</time></trkpt><trkpt lat="53.86183" lon="11.61952"><ele>48</ele><time>2012-09-11T12:26:06Z</time></trkpt><trkpt lat="53.86186" lon="11.61950"><ele>49</ele><time>2012-09-11T12:26:07Z</time></trkpt><trkpt lat="53.86194" lon="11.61940"><ele>47</ele><time>2012-09-11T12:26:11Z</time></trkpt><trkpt lat="53.86196" lon="11.61936"><ele>48</ele><time>2012-09-11T12:26:12Z</time></trkpt><trkpt lat="53.86198" lon="11.61932"><ele>50</ele><time>2012-09-11T12:26:13Z</time></trkpt><trkpt lat="53.86202" lon="11.61929"><ele>45</ele><time>2012-09-11T12:26:15Z</time></trkpt><trkpt lat="53.86204" lon="11.61928"><ele>44</ele><time>2012-09-11T12:26:16Z</time></trkpt><trkpt lat="53.86215" lon="11.61920"><ele>44</ele><time>2012-09-11T12:26:20Z</time></trkpt><trkpt lat="53.86218" lon="11.61918"><ele>44</ele><time>2012-09-11T12:26:21Z</time></trkpt><trkpt lat="53.86226" lon="11.61909"><ele>47</ele><time>2012-09-11T12:26:25Z</time></trkpt><trkpt lat="53.86232" lon="11.61902"><ele>52</ele><time>2012-09-11T12:26:28Z</time></trkpt><trkpt lat="53.86235" lon="11.61899"><ele>49</ele><time>2012-09-11T12:26:29Z</time></trkpt><trkpt lat="53.86242" lon="11.61889"><ele>48</ele><time>2012-09-11T12:26:32Z</time></trkpt><trkpt lat="53.86245" lon="11.61887"><ele>49</ele><time>2012-09-11T12:26:33Z</time></trkpt><trkpt lat="53.86248" lon="11.61885"><ele>44</ele><time>2012-09-11T12:26:35Z</time></trkpt><trkpt lat="53.86252" lon="11.61880"><ele>47</ele><time>2012-09-11T12:26:37Z</time></trkpt><trkpt lat="53.86253" lon="11.61875"><ele>50</ele><time>2012-09-11T12:26:39Z</time></trkpt><trkpt lat="53.86251" lon="11.61872"><ele>50</ele><time>2012-09-11T12:26:41Z</time></trkpt><trkpt lat="53.86249" lon="11.61868"><ele>51</ele><time>2012-09-11T12:26:43Z</time></trkpt><trkpt lat="53.86246" lon="11.61862"><ele>52</ele><time>2012-09-11T12:26:45Z</time></trkpt><trkpt lat="53.86242" lon="11.61852"><ele>52</ele><time>2012-09-11T12:26:50Z</time></trkpt><trkpt lat="53.86238" lon="11.61846"><ele>46</ele><time>2012-09-11T12:26:53Z</time></trkpt><trkpt lat="53.86239" lon="11.61850"><ele>44</ele><time>2012-09-11T12:26:56Z</time></trkpt><trkpt lat="53.86241" lon="11.61856"><ele>43</ele><time>2012-09-11T12:26:58Z</time></trkpt><trkpt lat="53.86248" lon="11.61873"><ele>46</ele><time>2012-09-11T12:27:03Z</time></trkpt><trkpt lat="53.86253" lon="11.61885"><ele>48</ele><time>2012-09-11T12:27:07Z</time></trkpt><trkpt lat="53.86255" lon="11.61888"><ele>49</ele><time>2012-09-11T12:27:08Z</time></trkpt><trkpt lat="53.86259" lon="11.61891"><ele>48</ele><time>2012-09-11T12:27:10Z</time></trkpt><trkpt lat="53.86261" lon="11.61891"><ele>49</ele><time>2012-09-11T12:27:11Z</time></trkpt><trkpt lat="53.86264" lon="11.61890"><ele>47</ele><time>2012-09-11T12:27:12Z</time></trkpt><trkpt lat="53.86266" lon="11.61888"><ele>48</ele><time>2012-09-11T12:27:13Z</time></trkpt><trkpt lat="53.86268" lon="11.61885"><ele>49</ele><time>2012-09-11T12:27:14Z</time></trkpt><trkpt lat="53.86272" lon="11.61880"><ele>49</ele><time>2012-09-11T12:27:16Z</time></trkpt><trkpt lat="53.86275" lon="11.61876"><ele>49</ele><time>2012-09-11T12:27:18Z</time></trkpt><trkpt lat="53.86279" lon="11.61874"><ele>49</ele><time>2012-09-11T12:27:20Z</time></trkpt><trkpt lat="53.86282" lon="11.61870"><ele>49</ele><time>2012-09-11T12:28:26Z</time></trkpt><trkpt lat="53.86285" lon="11.61866"><ele>48</ele><time>2012-09-11T12:28:28Z</time></trkpt><trkpt lat="53.86295" lon="11.61854"><ele>47</ele><time>2012-09-11T12:28:32Z</time></trkpt><trkpt lat="53.86301" lon="11.61848"><ele>49</ele><time>2012-09-11T12:28:34Z</time></trkpt><trkpt lat="53.86304" lon="11.61847"><ele>49</ele><time>2012-09-11T12:28:35Z</time></trkpt><trkpt lat="53.86307" lon="11.61846"><ele>49</ele><time>2012-09-11T12:28:36Z</time></trkpt><trkpt lat="53.86310" lon="11.61845"><ele>49</ele><time>2012-09-11T12:28:37Z</time></trkpt><trkpt lat="53.86312" lon="11.61843"><ele>50</ele><time>2012-09-11T12:28:38Z</time></trkpt><trkpt lat="53.86317" lon="11.61838"><ele>49</ele><time>2012-09-11T12:28:40Z</time></trkpt><trkpt lat="53.86318" lon="11.61833"><ele>49</ele><time>2012-09-11T12:28:41Z</time></trkpt><trkpt lat="53.86319" lon="11.61828"><ele>48</ele><time>2012-09-11T12:28:42Z</time></trkpt><trkpt lat="53.86320" lon="11.61822"><ele>49</ele><time>2012-09-11T12:28:43Z</time></trkpt><trkpt lat="53.86333" lon="11.61725"><ele>44</ele><time>2012-09-11T12:28:59Z</time></trkpt><trkpt lat="53.86334" lon="11.61719"><ele>42</ele><time>2012-09-11T12:29:00Z</time></trkpt><trkpt lat="53.86335" lon="11.61714"><ele>43</ele><time>2012-09-11T12:29:01Z</time></trkpt><trkpt lat="53.86335" lon="11.61709"><ele>44</ele><time>2012-09-11T12:29:02Z</time></trkpt><trkpt lat="53.86336" lon="11.61704"><ele>44</ele><time>2012-09-11T12:29:03Z</time></trkpt><trkpt lat="53.86339" lon="11.61687"><ele>49</ele><time>2012-09-11T12:29:06Z</time></trkpt><trkpt lat="53.86340" lon="11.61682"><ele>47</ele><time>2012-09-11T12:29:07Z</time></trkpt><trkpt lat="53.86341" lon="11.61677"><ele>48</ele><time>2012-09-11T12:29:08Z</time></trkpt><trkpt lat="53.86343" lon="11.61661"><ele>53</ele><time>2012-09-11T12:29:12Z</time></trkpt><trkpt lat="53.86344" lon="11.61653"><ele>52</ele><time>2012-09-11T12:29:14Z</time></trkpt><trkpt lat="53.86343" lon="11.61639"><ele>50</ele><time>2012-09-11T12:29:17Z</time></trkpt><trkpt lat="53.86341" lon="11.61636"><ele>50</ele><time>2012-09-11T12:29:18Z</time></trkpt><trkpt lat="53.86337" lon="11.61628"><ele>46</ele><time>2012-09-11T12:29:21Z</time></trkpt><trkpt lat="53.86328" lon="11.61615"><ele>49</ele><time>2012-09-11T12:29:26Z</time></trkpt><trkpt lat="53.86322" lon="11.61609"><ele>48</ele><time>2012-09-11T12:29:28Z</time></trkpt><trkpt lat="53.86302" lon="11.61586"><ele>49</ele><time>2012-09-11T12:29:33Z</time></trkpt><trkpt lat="53.86299" lon="11.61582"><ele>49</ele><time>2012-09-11T12:29:34Z</time></trkpt><trkpt lat="53.86278" lon="11.61552"><ele>52</ele><time>2012-09-11T12:29:41Z</time></trkpt><trkpt lat="53.86263" lon="11.61534"><ele>51</ele><time>2012-09-11T12:29:46Z</time></trkpt><trkpt lat="53.86222" lon="11.61487"><ele>42</ele><time>2012-09-11T12:30:00Z</time></trkpt><trkpt lat="53.86219" lon="11.61481"><ele>45</ele><time>2012-09-11T12:30:02Z</time></trkpt><trkpt lat="53.86217" lon="11.61477"><ele>45</ele><time>2012-09-11T12:30:03Z</time></trkpt><trkpt lat="53.86211" lon="11.61470"><ele>41</ele><time>2012-09-11T12:30:06Z</time></trkpt><trkpt lat="53.86209" lon="11.61467"><ele>41</ele><time>2012-09-11T12:30:07Z</time></trkpt><trkpt lat="53.86206" lon="11.61461"><ele>44</ele><time>2012-09-11T12:30:08Z</time></trkpt><trkpt lat="53.86206" lon="11.61449"><ele>46</ele><time>2012-09-11T12:30:10Z</time></trkpt><trkpt lat="53.86205" lon="11.61440"><ele>48</ele><time>2012-09-11T12:30:11Z</time></trkpt><trkpt lat="53.86203" lon="11.61432"><ele>49</ele><time>2012-09-11T12:30:12Z</time></trkpt><trkpt lat="53.86200" lon="11.61425"><ele>47</ele><time>2012-09-11T12:30:13Z</time></trkpt><trkpt lat="53.86196" lon="11.61420"><ele>46</ele><time>2012-09-11T12:30:14Z</time></trkpt><trkpt lat="53.86192" lon="11.61417"><ele>46</ele><time>2012-09-11T12:30:15Z</time></trkpt><trkpt lat="53.86182" lon="11.61408"><ele>42</ele><time>2012-09-11T12:30:18Z</time></trkpt><trkpt lat="53.86174" lon="11.61403"><ele>43</ele><time>2012-09-11T12:30:21Z</time></trkpt><trkpt lat="53.86171" lon="11.61404"><ele>43</ele><time>2012-09-11T12:30:23Z</time></trkpt><trkpt lat="53.86167" lon="11.61405"><ele>44</ele><time>2012-09-11T12:30:25Z</time></trkpt><trkpt lat="53.86163" lon="11.61409"><ele>43</ele><time>2012-09-11T12:30:27Z</time></trkpt><trkpt lat="53.86155" lon="11.61412"><ele>45</ele><time>2012-09-11T12:30:31Z</time></trkpt><trkpt lat="53.86151" lon="11.61409"><ele>48</ele><time>2012-09-11T12:30:33Z</time></trkpt><trkpt lat="53.86147" lon="11.61404"><ele>50</ele><time>2012-09-11T12:30:35Z</time></trkpt><trkpt lat="53.86145" lon="11.61400"><ele>48</ele><time>2012-09-11T12:30:36Z</time></trkpt><trkpt lat="53.86137" lon="11.61388"><ele>51</ele><time>2012-09-11T12:30:40Z</time></trkpt><trkpt lat="53.86135" lon="11.61386"><ele>50</ele><time>2012-09-11T12:30:41Z</time></trkpt><trkpt lat="53.86127" lon="11.61374"><ele>45</ele><time>2012-09-11T12:30:45Z</time></trkpt><trkpt lat="53.86123" lon="11.61367"><ele>46</ele><time>2012-09-11T12:30:47Z</time></trkpt><trkpt lat="53.86121" lon="11.61364"><ele>46</ele><time>2012-09-11T12:30:48Z</time></trkpt><trkpt lat="53.86120" lon="11.61357"><ele>51</ele><time>2012-09-11T12:30:50Z</time></trkpt><trkpt lat="53.86122" lon="11.61350"><ele>51</ele><time>2012-09-11T12:30:52Z</time></trkpt><trkpt lat="53.86123" lon="11.61346"><ele>53</ele><time>2012-09-11T12:30:53Z</time></trkpt><trkpt lat="53.86125" lon="11.61342"><ele>53</ele><time>2012-09-11T12:30:54Z</time></trkpt><trkpt lat="53.86131" lon="11.61329"><ele>51</ele><time>2012-09-11T12:30:58Z</time></trkpt><trkpt lat="53.86134" lon="11.61324"><ele>52</ele><time>2012-09-11T12:31:00Z</time></trkpt><trkpt lat="53.86141" lon="11.61314"><ele>48</ele><time>2012-09-11T12:31:04Z</time></trkpt><trkpt lat="53.86144" lon="11.61312"><ele>48</ele><time>2012-09-11T12:31:06Z</time></trkpt><trkpt lat="53.86147" lon="11.61311"><ele>51</ele><time>2012-09-11T12:31:07Z</time></trkpt><trkpt lat="53.86151" lon="11.61307"><ele>52</ele><time>2012-09-11T12:31:09Z</time></trkpt><trkpt lat="53.86155" lon="11.61304"><ele>54</ele><time>2012-09-11T12:31:12Z</time></trkpt><trkpt lat="53.86158" lon="11.61305"><ele>51</ele><time>2012-09-11T12:31:14Z</time></trkpt><trkpt lat="53.86163" lon="11.61306"><ele>56</ele><time>2012-09-11T12:31:17Z</time></trkpt><trkpt lat="53.86169" lon="11.61306"><ele>54</ele><time>2012-09-11T12:31:21Z</time></trkpt><trkpt lat="53.86173" lon="11.61304"><ele>51</ele><time>2012-09-11T12:31:23Z</time></trkpt><trkpt lat="53.86176" lon="11.61303"><ele>49</ele><time>2012-09-11T12:31:28Z</time></trkpt><trkpt lat="53.86173" lon="11.61302"><ele>55</ele><time>2012-09-11T12:31:33Z</time></trkpt><trkpt lat="53.86167" lon="11.61302"><ele>54</ele><time>2012-09-11T12:31:36Z</time></trkpt><trkpt lat="53.86165" lon="11.61303"><ele>54</ele><time>2012-09-11T12:31:37Z</time></trkpt><trkpt lat="53.86159" lon="11.61304"><ele>51</ele><time>2012-09-11T12:31:39Z</time></trkpt><trkpt lat="53.86157" lon="11.61305"><ele>49</ele><time>2012-09-11T12:31:40Z</time></trkpt><trkpt lat="53.86154" lon="11.61307"><ele>50</ele><time>2012-09-11T12:31:41Z</time></trkpt><trkpt lat="53.86150" lon="11.61311"><ele>50</ele><time>2012-09-11T12:31:43Z</time></trkpt><trkpt lat="53.86147" lon="11.61313"><ele>50</ele><time>2012-09-11T12:31:44Z</time></trkpt><trkpt lat="53.86139" lon="11.61319"><ele>49</ele><time>2012-09-11T12:31:47Z</time></trkpt><trkpt lat="53.86136" lon="11.61322"><ele>49</ele><time>2012-09-11T12:31:48Z</time></trkpt><trkpt lat="53.86128" lon="11.61334"><ele>51</ele><time>2012-09-11T12:31:51Z</time></trkpt><trkpt lat="53.86126" lon="11.61337"><ele>49</ele><time>2012-09-11T12:31:52Z</time></trkpt><trkpt lat="53.86118" lon="11.61353"><ele>50</ele><time>2012-09-11T12:31:56Z</time></trkpt><trkpt lat="53.86116" lon="11.61360"><ele>50</ele><time>2012-09-11T12:31:58Z</time></trkpt><trkpt lat="53.86119" lon="11.61367"><ele>52</ele><time>2012-09-11T12:32:00Z</time></trkpt><trkpt lat="53.86121" lon="11.61372"><ele>52</ele><time>2012-09-11T12:32:01Z</time></trkpt><trkpt lat="53.86128" lon="11.61384"><ele>51</ele><time>2012-09-11T12:32:04Z</time></trkpt><trkpt lat="53.86137" lon="11.61396"><ele>50</ele><time>2012-09-11T12:32:07Z</time></trkpt><trkpt lat="53.86139" lon="11.61399"><ele>50</ele><time>2012-09-11T12:32:08Z</time></trkpt><trkpt lat="53.86142" lon="11.61402"><ele>50</ele><time>2012-09-11T12:32:09Z</time></trkpt><trkpt lat="53.86148" lon="11.61410"><ele>51</ele><time>2012-09-11T12:32:11Z</time></trkpt><trkpt lat="53.86151" lon="11.61413"><ele>52</ele><time>2012-09-11T12:32:12Z</time></trkpt><trkpt lat="53.86154" lon="11.61414"><ele>51</ele><time>2012-09-11T12:32:13Z</time></trkpt><trkpt lat="53.86159" lon="11.61414"><ele>49</ele><time>2012-09-11T12:32:14Z</time></trkpt><trkpt lat="53.86162" lon="11.61413"><ele>48</ele><time>2012-09-11T12:32:15Z</time></trkpt><trkpt lat="53.86173" lon="11.61411"><ele>50</ele><time>2012-09-11T12:32:18Z</time></trkpt><trkpt lat="53.86177" lon="11.61412"><ele>51</ele><time>2012-09-11T12:32:19Z</time></trkpt><trkpt lat="53.86184" lon="11.61417"><ele>51</ele><time>2012-09-11T12:32:21Z</time></trkpt><trkpt lat="53.86196" lon="11.61426"><ele>56</ele><time>2012-09-11T12:32:24Z</time></trkpt><trkpt lat="53.86205" lon="11.61430"><ele>54</ele><time>2012-09-11T12:32:26Z</time></trkpt><trkpt lat="53.86209" lon="11.61429"><ele>54</ele><time>2012-09-11T12:32:27Z</time></trkpt><trkpt lat="53.86212" lon="11.61425"><ele>53</ele><time>2012-09-11T12:32:28Z</time></trkpt><trkpt lat="53.86216" lon="11.61421"><ele>53</ele><time>2012-09-11T12:32:29Z</time></trkpt><trkpt lat="53.86219" lon="11.61416"><ele>53</ele><time>2012-09-11T12:32:30Z</time></trkpt><trkpt lat="53.86234" lon="11.61384"><ele>55</ele><time>2012-09-11T12:32:36Z</time></trkpt><trkpt lat="53.86237" lon="11.61378"><ele>54</ele><time>2012-09-11T12:32:37Z</time></trkpt><trkpt lat="53.86239" lon="11.61374"><ele>54</ele><time>2012-09-11T12:32:38Z</time></trkpt><trkpt lat="53.86287" lon="11.61277"><ele>53</ele><time>2012-09-11T12:32:59Z</time></trkpt><trkpt lat="53.86290" lon="11.61271"><ele>54</ele><time>2012-09-11T12:33:00Z</time></trkpt><trkpt lat="53.86292" lon="11.61266"><ele>54</ele><time>2012-09-11T12:33:01Z</time></trkpt><trkpt lat="53.86298" lon="11.61250"><ele>56</ele><time>2012-09-11T12:33:04Z</time></trkpt><trkpt lat="53.86300" lon="11.61245"><ele>57</ele><time>2012-09-11T12:33:05Z</time></trkpt><trkpt lat="53.86302" lon="11.61242"><ele>56</ele><time>2012-09-11T12:33:06Z</time></trkpt><trkpt lat="53.86307" lon="11.61228"><ele>57</ele><time>2012-09-11T12:33:10Z</time></trkpt><trkpt lat="53.86308" lon="11.61224"><ele>55</ele><time>2012-09-11T12:33:11Z</time></trkpt><trkpt lat="53.86308" lon="11.61220"><ele>53</ele><time>2012-09-11T12:33:12Z</time></trkpt><trkpt lat="53.86307" lon="11.61215"><ele>52</ele><time>2012-09-11T12:33:13Z</time></trkpt><trkpt lat="53.86305" lon="11.61208"><ele>55</ele><time>2012-09-11T12:33:15Z</time></trkpt><trkpt lat="53.86301" lon="11.61199"><ele>57</ele><time>2012-09-11T12:33:17Z</time></trkpt><trkpt lat="53.86287" lon="11.61159"><ele>54</ele><time>2012-09-11T12:33:25Z</time></trkpt><trkpt lat="53.86285" lon="11.61150"><ele>53</ele><time>2012-09-11T12:33:27Z</time></trkpt><trkpt lat="53.86272" lon="11.61113"><ele>53</ele><time>2012-09-11T12:33:35Z</time></trkpt><trkpt lat="53.86270" lon="11.61109"><ele>53</ele><time>2012-09-11T12:33:36Z</time></trkpt><trkpt lat="53.86269" lon="11.61105"><ele>52</ele><time>2012-09-11T12:33:37Z</time></trkpt><trkpt lat="53.86267" lon="11.61100"><ele>52</ele><time>2012-09-11T12:33:38Z</time></trkpt><trkpt lat="53.86266" lon="11.61096"><ele>52</ele><time>2012-09-11T12:33:39Z</time></trkpt><trkpt lat="53.86248" lon="11.61046"><ele>51</ele><time>2012-09-11T12:33:50Z</time></trkpt><trkpt lat="53.86246" lon="11.61042"><ele>51</ele><time>2012-09-11T12:33:51Z</time></trkpt><trkpt lat="53.86236" lon="11.61014"><ele>54</ele><time>2012-09-11T12:33:57Z</time></trkpt><trkpt lat="53.86233" lon="11.61006"><ele>54</ele><time>2012-09-11T12:33:59Z</time></trkpt><trkpt lat="53.86227" lon="11.60987"><ele>53</ele><time>2012-09-11T12:34:03Z</time></trkpt><trkpt lat="53.86221" lon="11.60973"><ele>59</ele><time>2012-09-11T12:34:06Z</time></trkpt><trkpt lat="53.86201" lon="11.60931"><ele>61</ele><time>2012-09-11T12:34:17Z</time></trkpt><trkpt lat="53.86198" lon="11.60922"><ele>60</ele><time>2012-09-11T12:34:19Z</time></trkpt><trkpt lat="53.86187" lon="11.60888"><ele>56</ele><time>2012-09-11T12:34:26Z</time></trkpt><trkpt lat="53.86183" lon="11.60879"><ele>56</ele><time>2012-09-11T12:34:28Z</time></trkpt><trkpt lat="53.86177" lon="11.60864"><ele>55</ele><time>2012-09-11T12:34:32Z</time></trkpt><trkpt lat="53.86176" lon="11.60860"><ele>56</ele><time>2012-09-11T12:34:33Z</time></trkpt><trkpt lat="53.86174" lon="11.60856"><ele>55</ele><time>2012-09-11T12:34:34Z</time></trkpt><trkpt lat="53.86162" lon="11.60824"><ele>55</ele><time>2012-09-11T12:34:41Z</time></trkpt><trkpt lat="53.86160" lon="11.60818"><ele>55</ele><time>2012-09-11T12:34:42Z</time></trkpt><trkpt lat="53.86155" lon="11.60798"><ele>53</ele><time>2012-09-11T12:34:45Z</time></trkpt><trkpt lat="53.86152" lon="11.60791"><ele>53</ele><time>2012-09-11T12:34:46Z</time></trkpt><trkpt lat="53.86147" lon="11.60777"><ele>54</ele><time>2012-09-11T12:34:48Z</time></trkpt><trkpt lat="53.86144" lon="11.60771"><ele>55</ele><time>2012-09-11T12:34:49Z</time></trkpt><trkpt lat="53.86141" lon="11.60764"><ele>55</ele><time>2012-09-11T12:34:50Z</time></trkpt><trkpt lat="53.86093" lon="11.60636"><ele>54</ele><time>2012-09-11T12:35:06Z</time></trkpt><trkpt lat="53.86090" lon="11.60630"><ele>54</ele><time>2012-09-11T12:35:07Z</time></trkpt><trkpt lat="53.86084" lon="11.60616"><ele>56</ele><time>2012-09-11T12:35:09Z</time></trkpt><trkpt lat="53.86079" lon="11.60602"><ele>57</ele><time>2012-09-11T12:35:11Z</time></trkpt><trkpt lat="53.86072" lon="11.60582"><ele>55</ele><time>2012-09-11T12:35:14Z</time></trkpt><trkpt lat="53.86070" lon="11.60575"><ele>53</ele><time>2012-09-11T12:35:15Z</time></trkpt><trkpt lat="53.86066" lon="11.60560"><ele>55</ele><time>2012-09-11T12:35:17Z</time></trkpt><trkpt lat="53.86063" lon="11.60542"><ele>56</ele><time>2012-09-11T12:35:19Z</time></trkpt><trkpt lat="53.86062" lon="11.60533"><ele>56</ele><time>2012-09-11T12:35:20Z</time></trkpt><trkpt lat="53.86058" lon="11.60495"><ele>54</ele><time>2012-09-11T12:35:25Z</time></trkpt><trkpt lat="53.86058" lon="11.60487"><ele>54</ele><time>2012-09-11T12:35:26Z</time></trkpt><trkpt lat="53.86056" lon="11.60466"><ele>53</ele><time>2012-09-11T12:35:29Z</time></trkpt><trkpt lat="53.86056" lon="11.60460"><ele>53</ele><time>2012-09-11T12:35:30Z</time></trkpt><trkpt lat="53.86055" lon="11.60425"><ele>52</ele><time>2012-09-11T12:35:38Z</time></trkpt><trkpt lat="53.86055" lon="11.60420"><ele>53</ele><time>2012-09-11T12:35:39Z</time></trkpt><trkpt lat="53.86054" lon="11.60401"><ele>52</ele><time>2012-09-11T12:35:43Z</time></trkpt><trkpt lat="53.86054" lon="11.60396"><ele>51</ele><time>2012-09-11T12:35:44Z</time></trkpt><trkpt lat="53.86054" lon="11.60391"><ele>52</ele><time>2012-09-11T12:35:45Z</time></trkpt><trkpt lat="53.86054" lon="11.60372"><ele>53</ele><time>2012-09-11T12:35:49Z</time></trkpt><trkpt lat="53.86053" lon="11.60376"><ele>50</ele><time>2012-09-11T12:36:38Z</time></trkpt><trkpt lat="53.86053" lon="11.60383"><ele>47</ele><time>2012-09-11T12:36:41Z</time></trkpt><trkpt lat="53.86054" lon="11.60388"><ele>47</ele><time>2012-09-11T12:36:42Z</time></trkpt><trkpt lat="53.86055" lon="11.60399"><ele>55</ele><time>2012-09-11T12:36:44Z</time></trkpt><trkpt lat="53.86055" lon="11.60404"><ele>55</ele><time>2012-09-11T12:36:45Z</time></trkpt><trkpt lat="53.86055" lon="11.60411"><ele>52</ele><time>2012-09-11T12:36:46Z</time></trkpt><trkpt lat="53.86058" lon="11.60473"><ele>49</ele><time>2012-09-11T12:36:55Z</time></trkpt><trkpt lat="53.86058" lon="11.60481"><ele>46</ele><time>2012-09-11T12:36:56Z</time></trkpt><trkpt lat="53.86058" lon="11.60501"><ele>45</ele><time>2012-09-11T12:36:59Z</time></trkpt><trkpt lat="53.86058" lon="11.60508"><ele>45</ele><time>2012-09-11T12:37:00Z</time></trkpt><trkpt lat="53.86058" lon="11.60515"><ele>44</ele><time>2012-09-11T12:37:01Z</time></trkpt><trkpt lat="53.86059" lon="11.60535"><ele>48</ele><time>2012-09-11T12:37:04Z</time></trkpt><trkpt lat="53.86061" lon="11.60542"><ele>47</ele><time>2012-09-11T12:37:05Z</time></trkpt><trkpt lat="53.86064" lon="11.60561"><ele>46</ele><time>2012-09-11T12:37:08Z</time></trkpt><trkpt lat="53.86065" lon="11.60567"><ele>49</ele><time>2012-09-11T12:37:09Z</time></trkpt><trkpt lat="53.86066" lon="11.60573"><ele>50</ele><time>2012-09-11T12:37:10Z</time></trkpt><trkpt lat="53.86069" lon="11.60593"><ele>48</ele><time>2012-09-11T12:37:14Z</time></trkpt><trkpt lat="53.86065" lon="11.60597"><ele>52</ele><time>2012-09-11T12:37:16Z</time></trkpt><trkpt lat="53.86062" lon="11.60596"><ele>53</ele><time>2012-09-11T12:37:17Z</time></trkpt><trkpt lat="53.86056" lon="11.60594"><ele>56</ele><time>2012-09-11T12:37:19Z</time></trkpt><trkpt lat="53.86044" lon="11.60590"><ele>54</ele><time>2012-09-11T12:37:22Z</time></trkpt><trkpt lat="53.86040" lon="11.60589"><ele>54</ele><time>2012-09-11T12:37:23Z</time></trkpt><trkpt lat="53.86031" lon="11.60586"><ele>52</ele><time>2012-09-11T12:37:25Z</time></trkpt><trkpt lat="53.86022" lon="11.60585"><ele>50</ele><time>2012-09-11T12:37:27Z</time></trkpt><trkpt lat="53.86015" lon="11.60585"><ele>48</ele><time>2012-09-11T12:37:28Z</time></trkpt><trkpt lat="53.85999" lon="11.60583"><ele>51</ele><time>2012-09-11T12:37:31Z</time></trkpt><trkpt lat="53.85994" lon="11.60582"><ele>52</ele><time>2012-09-11T12:37:32Z</time></trkpt><trkpt lat="53.85968" lon="11.60578"><ele>54</ele><time>2012-09-11T12:37:38Z</time></trkpt><trkpt lat="53.85964" lon="11.60578"><ele>53</ele><time>2012-09-11T12:37:39Z</time></trkpt><trkpt lat="53.85925" lon="11.60576"><ele>53</ele><time>2012-09-11T12:37:48Z</time></trkpt><trkpt lat="53.85910" lon="11.60573"><ele>51</ele><time>2012-09-11T12:37:51Z</time></trkpt><trkpt lat="53.85902" lon="11.60573"><ele>50</ele><time>2012-09-11T12:37:53Z</time></trkpt><trkpt lat="53.85874" lon="11.60572"><ele>48</ele><time>2012-09-11T12:37:58Z</time></trkpt><trkpt lat="53.85869" lon="11.60571"><ele>49</ele><time>2012-09-11T12:37:59Z</time></trkpt><trkpt lat="53.85834" lon="11.60567"><ele>51</ele><time>2012-09-11T12:38:08Z</time></trkpt><trkpt lat="53.85831" lon="11.60567"><ele>52</ele><time>2012-09-11T12:38:09Z</time></trkpt><trkpt lat="53.85821" lon="11.60567"><ele>48</ele><time>2012-09-11T12:38:12Z</time></trkpt><trkpt lat="53.85818" lon="11.60567"><ele>47</ele><time>2012-09-11T12:38:13Z</time></trkpt><trkpt lat="53.85812" lon="11.60565"><ele>47</ele><time>2012-09-11T12:38:15Z</time></trkpt><trkpt lat="53.85809" lon="11.60563"><ele>48</ele><time>2012-09-11T12:38:16Z</time></trkpt><trkpt lat="53.85791" lon="11.60558"><ele>49</ele><time>2012-09-11T12:38:24Z</time></trkpt><trkpt lat="53.85788" lon="11.60559"><ele>49</ele><time>2012-09-11T12:38:25Z</time></trkpt><trkpt lat="53.85777" lon="11.60560"><ele>51</ele><time>2012-09-11T12:38:29Z</time></trkpt><trkpt lat="53.85769" lon="11.60560"><ele>51</ele><time>2012-09-11T12:38:32Z</time></trkpt><trkpt lat="53.85759" lon="11.60561"><ele>53</ele><time>2012-09-11T12:38:37Z</time></trkpt><trkpt lat="53.85753" lon="11.60560"><ele>53</ele><time>2012-09-11T12:38:40Z</time></trkpt><trkpt lat="53.85743" lon="11.60558"><ele>55</ele><time>2012-09-11T12:38:45Z</time></trkpt><trkpt lat="53.85740" lon="11.60560"><ele>55</ele><time>2012-09-11T12:38:52Z</time></trkpt><trkpt lat="53.85736" lon="11.60559"><ele>55</ele><time>2012-09-11T12:38:54Z</time></trkpt><trkpt lat="53.85729" lon="11.60558"><ele>54</ele><time>2012-09-11T12:38:57Z</time></trkpt><trkpt lat="53.85727" lon="11.60558"><ele>54</ele><time>2012-09-11T12:38:58Z</time></trkpt><trkpt lat="53.85720" lon="11.60558"><ele>55</ele><time>2012-09-11T12:39:01Z</time></trkpt><trkpt lat="53.85658" lon="11.60553"><ele>56</ele><time>2012-09-11T12:39:25Z</time></trkpt><trkpt lat="53.85655" lon="11.60552"><ele>57</ele><time>2012-09-11T12:39:26Z</time></trkpt><trkpt lat="53.85615" lon="11.60546"><ele>59</ele><time>2012-09-11T12:39:42Z</time></trkpt><trkpt lat="53.85613" lon="11.60546"><ele>60</ele><time>2012-09-11T12:39:43Z</time></trkpt><trkpt lat="53.85605" lon="11.60546"><ele>58</ele><time>2012-09-11T12:39:46Z</time></trkpt><trkpt lat="53.85584" lon="11.60545"><ele>61</ele><time>2012-09-11T12:39:54Z</time></trkpt><trkpt lat="53.85582" lon="11.60545"><ele>61</ele><time>2012-09-11T12:39:55Z</time></trkpt><trkpt lat="53.85571" lon="11.60544"><ele>61</ele><time>2012-09-11T12:39:59Z</time></trkpt><trkpt lat="53.85569" lon="11.60544"><ele>60</ele><time>2012-09-11T12:40:00Z</time></trkpt><trkpt lat="53.85564" lon="11.60543"><ele>61</ele><time>2012-09-11T12:40:02Z</time></trkpt><trkpt lat="53.85562" lon="11.60542"><ele>60</ele><time>2012-09-11T12:40:03Z</time></trkpt><trkpt lat="53.85556" lon="11.60542"><ele>61</ele><time>2012-09-11T12:40:05Z</time></trkpt><trkpt lat="53.85546" lon="11.60541"><ele>60</ele><time>2012-09-11T12:40:09Z</time></trkpt><trkpt lat="53.85535" lon="11.60540"><ele>62</ele><time>2012-09-11T12:40:13Z</time></trkpt><trkpt lat="53.85533" lon="11.60541"><ele>62</ele><time>2012-09-11T12:40:14Z</time></trkpt><trkpt lat="53.85522" lon="11.60540"><ele>62</ele><time>2012-09-11T12:40:18Z</time></trkpt><trkpt lat="53.85520" lon="11.60539"><ele>62</ele><time>2012-09-11T12:40:19Z</time></trkpt><trkpt lat="53.85514" lon="11.60539"><ele>60</ele><time>2012-09-11T12:40:21Z</time></trkpt><trkpt lat="53.85503" lon="11.60538"><ele>61</ele><time>2012-09-11T12:40:25Z</time></trkpt><trkpt lat="53.85500" lon="11.60537"><ele>60</ele><time>2012-09-11T12:40:26Z</time></trkpt><trkpt lat="53.85476" lon="11.60528"><ele>63</ele><time>2012-09-11T12:40:34Z</time></trkpt><trkpt lat="53.85472" lon="11.60525"><ele>65</ele><time>2012-09-11T12:40:35Z</time></trkpt><trkpt lat="53.85469" lon="11.60522"><ele>63</ele><time>2012-09-11T12:40:36Z</time></trkpt><trkpt lat="53.85447" lon="11.60505"><ele>55</ele><time>2012-09-11T12:40:42Z</time></trkpt><trkpt lat="53.85443" lon="11.60502"><ele>56</ele><time>2012-09-11T12:40:43Z</time></trkpt><trkpt lat="53.85432" lon="11.60495"><ele>57</ele><time>2012-09-11T12:40:46Z</time></trkpt><trkpt lat="53.85419" lon="11.60483"><ele>56</ele><time>2012-09-11T12:40:50Z</time></trkpt><trkpt lat="53.85347" lon="11.60417"><ele>55</ele><time>2012-09-11T12:41:10Z</time></trkpt><trkpt lat="53.85343" lon="11.60414"><ele>59</ele><time>2012-09-11T12:41:11Z</time></trkpt><trkpt lat="53.85333" lon="11.60408"><ele>60</ele><time>2012-09-11T12:41:13Z</time></trkpt><trkpt lat="53.85329" lon="11.60405"><ele>61</ele><time>2012-09-11T12:41:14Z</time></trkpt><trkpt lat="53.85260" lon="11.60347"><ele>53</ele><time>2012-09-11T12:41:29Z</time></trkpt><trkpt lat="53.85257" lon="11.60343"><ele>54</ele><time>2012-09-11T12:41:30Z</time></trkpt><trkpt lat="53.85253" lon="11.60340"><ele>55</ele><time>2012-09-11T12:41:31Z</time></trkpt><trkpt lat="53.85199" lon="11.60296"><ele>59</ele><time>2012-09-11T12:41:44Z</time></trkpt><trkpt lat="53.85194" lon="11.60293"><ele>58</ele><time>2012-09-11T12:41:45Z</time></trkpt><trkpt lat="53.85184" lon="11.60289"><ele>55</ele><time>2012-09-11T12:41:47Z</time></trkpt><trkpt lat="53.85179" lon="11.60288"><ele>56</ele><time>2012-09-11T12:41:48Z</time></trkpt><trkpt lat="53.85168" lon="11.60286"><ele>56</ele><time>2012-09-11T12:41:50Z</time></trkpt><trkpt lat="53.85163" lon="11.60286"><ele>57</ele><time>2012-09-11T12:41:51Z</time></trkpt><trkpt lat="53.85108" lon="11.60284"><ele>52</ele><time>2012-09-11T12:42:02Z</time></trkpt><trkpt lat="53.85104" lon="11.60283"><ele>54</ele><time>2012-09-11T12:42:03Z</time></trkpt><trkpt lat="53.85080" lon="11.60280"><ele>50</ele><time>2012-09-11T12:42:09Z</time></trkpt><trkpt lat="53.85076" lon="11.60280"><ele>52</ele><time>2012-09-11T12:42:10Z</time></trkpt><trkpt lat="53.84986" lon="11.60276"><ele>54</ele><time>2012-09-11T12:42:35Z</time></trkpt><trkpt lat="53.84982" lon="11.60275"><ele>52</ele><time>2012-09-11T12:42:36Z</time></trkpt><trkpt lat="53.84978" lon="11.60275"><ele>54</ele><time>2012-09-11T12:42:37Z</time></trkpt><trkpt lat="53.84972" lon="11.60273"><ele>56</ele><time>2012-09-11T12:42:39Z</time></trkpt><trkpt lat="53.84955" lon="11.60270"><ele>54</ele><time>2012-09-11T12:42:43Z</time></trkpt><trkpt lat="53.84948" lon="11.60270"><ele>52</ele><time>2012-09-11T12:42:45Z</time></trkpt><trkpt lat="53.84905" lon="11.60265"><ele>52</ele><time>2012-09-11T12:42:58Z</time></trkpt><trkpt lat="53.84899" lon="11.60263"><ele>46</ele><time>2012-09-11T12:43:01Z</time></trkpt><trkpt lat="53.84900" lon="11.60261"><ele>52</ele><time>2012-09-11T12:43:05Z</time></trkpt><trkpt lat="53.84904" lon="11.60264"><ele>53</ele><time>2012-09-11T12:43:08Z</time></trkpt><trkpt lat="53.84907" lon="11.60266"><ele>55</ele><time>2012-09-11T12:43:11Z</time></trkpt><trkpt lat="53.84907" lon="11.60266"><ele>55</ele><time>2012-09-11T12:43:11Z</time></trkpt><trkpt lat="53.84909" lon="11.60265"><ele>58</ele><time>2012-09-11T12:43:30Z</time></trkpt><trkpt lat="53.84909" lon="11.60269"><ele>59</ele><time>2012-09-11T12:43:55Z</time></trkpt><trkpt lat="53.84906" lon="11.60267"><ele>55</ele><time>2012-09-11T12:44:22Z</time></trkpt><trkpt lat="53.84904" lon="11.60269"><ele>58</ele><time>2012-09-11T12:44:44Z</time></trkpt><trkpt lat="53.84901" lon="11.60268"><ele>58</ele><time>2012-09-11T12:44:45Z</time></trkpt><trkpt lat="53.84896" lon="11.60266"><ele>60</ele><time>2012-09-11T12:44:47Z</time></trkpt><trkpt lat="53.84890" lon="11.60267"><ele>62</ele><time>2012-09-11T12:44:49Z</time></trkpt><trkpt lat="53.84881" lon="11.60265"><ele>53</ele><time>2012-09-11T12:44:53Z</time></trkpt><trkpt lat="53.84879" lon="11.60265"><ele>52</ele><time>2012-09-11T12:44:54Z</time></trkpt><trkpt lat="53.84876" lon="11.60265"><ele>52</ele><time>2012-09-11T12:44:55Z</time></trkpt><trkpt lat="53.84865" lon="11.60264"><ele>52</ele><time>2012-09-11T12:44:59Z</time></trkpt><trkpt lat="53.84863" lon="11.60264"><ele>55</ele><time>2012-09-11T12:45:00Z</time></trkpt><trkpt lat="53.84860" lon="11.60263"><ele>51</ele><time>2012-09-11T12:45:01Z</time></trkpt><trkpt lat="53.84858" lon="11.60263"><ele>54</ele><time>2012-09-11T12:45:02Z</time></trkpt><trkpt lat="53.84847" lon="11.60264"><ele>57</ele><time>2012-09-11T12:45:07Z</time></trkpt><trkpt lat="53.84844" lon="11.60265"><ele>57</ele><time>2012-09-11T12:45:08Z</time></trkpt><trkpt lat="53.84833" lon="11.60264"><ele>67</ele><time>2012-09-11T12:45:13Z</time></trkpt><trkpt lat="53.84828" lon="11.60263"><ele>64</ele><time>2012-09-11T12:45:15Z</time></trkpt><trkpt lat="53.84822" lon="11.60262"><ele>62</ele><time>2012-09-11T12:45:17Z</time></trkpt><trkpt lat="53.84820" lon="11.60262"><ele>62</ele><time>2012-09-11T12:45:18Z</time></trkpt><trkpt lat="53.84818" lon="11.60261"><ele>61</ele><time>2012-09-11T12:45:19Z</time></trkpt><trkpt lat="53.84801" lon="11.60252"><ele>64</ele><time>2012-09-11T12:45:26Z</time></trkpt><trkpt lat="53.84785" lon="11.60247"><ele>66</ele><time>2012-09-11T12:45:30Z</time></trkpt><trkpt lat="53.84777" lon="11.60245"><ele>62</ele><time>2012-09-11T12:45:33Z</time></trkpt><trkpt lat="53.84768" lon="11.60240"><ele>53</ele><time>2012-09-11T12:45:35Z</time></trkpt><trkpt lat="53.84754" lon="11.60230"><ele>49</ele><time>2012-09-11T12:45:38Z</time></trkpt><trkpt lat="53.84749" lon="11.60226"><ele>50</ele><time>2012-09-11T12:45:39Z</time></trkpt><trkpt lat="53.84714" lon="11.60192"><ele>50</ele><time>2012-09-11T12:45:48Z</time></trkpt><trkpt lat="53.84712" lon="11.60190"><ele>49</ele><time>2012-09-11T12:45:49Z</time></trkpt><trkpt lat="53.84708" lon="11.60187"><ele>49</ele><time>2012-09-11T12:45:50Z</time></trkpt><trkpt lat="53.84687" lon="11.60165"><ele>49</ele><time>2012-09-11T12:45:57Z</time></trkpt><trkpt lat="53.84679" lon="11.60158"><ele>49</ele><time>2012-09-11T12:46:00Z</time></trkpt><trkpt lat="53.84671" lon="11.60151"><ele>50</ele><time>2012-09-11T12:46:04Z</time></trkpt><trkpt lat="53.84668" lon="11.60151"><ele>50</ele><time>2012-09-11T12:46:06Z</time></trkpt><trkpt lat="53.84667" lon="11.60155"><ele>49</ele><time>2012-09-11T12:46:08Z</time></trkpt><trkpt lat="53.84662" lon="11.60173"><ele>49</ele><time>2012-09-11T12:46:12Z</time></trkpt><trkpt lat="53.84661" lon="11.60179"><ele>47</ele><time>2012-09-11T12:46:13Z</time></trkpt><trkpt lat="53.84660" lon="11.60185"><ele>49</ele><time>2012-09-11T12:46:14Z</time></trkpt><trkpt lat="53.84659" lon="11.60191"><ele>50</ele><time>2012-09-11T12:46:15Z</time></trkpt><trkpt lat="53.84657" lon="11.60209"><ele>56</ele><time>2012-09-11T12:46:18Z</time></trkpt><trkpt lat="53.84656" lon="11.60219"><ele>53</ele><time>2012-09-11T12:46:20Z</time></trkpt><trkpt lat="53.84656" lon="11.60236"><ele>51</ele><time>2012-09-11T12:46:24Z</time></trkpt><trkpt lat="53.84655" lon="11.60240"><ele>53</ele><time>2012-09-11T12:46:25Z</time></trkpt><trkpt lat="53.84653" lon="11.60256"><ele>50</ele><time>2012-09-11T12:46:29Z</time></trkpt><trkpt lat="53.84652" lon="11.60260"><ele>48</ele><time>2012-09-11T12:46:30Z</time></trkpt><trkpt lat="53.84652" lon="11.60264"><ele>48</ele><time>2012-09-11T12:46:31Z</time></trkpt><trkpt lat="53.84651" lon="11.60268"><ele>49</ele><time>2012-09-11T12:46:32Z</time></trkpt><trkpt lat="53.84651" lon="11.60282"><ele>49</ele><time>2012-09-11T12:46:36Z</time></trkpt><trkpt lat="53.84651" lon="11.60286"><ele>51</ele><time>2012-09-11T12:46:37Z</time></trkpt><trkpt lat="53.84652" lon="11.60302"><ele>51</ele><time>2012-09-11T12:46:42Z</time></trkpt><trkpt lat="53.84652" lon="11.60309"><ele>51</ele><time>2012-09-11T12:46:48Z</time></trkpt><trkpt lat="53.84651" lon="11.60304"><ele>51</ele><time>2012-09-11T12:46:51Z</time></trkpt><trkpt lat="53.84651" lon="11.60296"><ele>51</ele><time>2012-09-11T12:46:53Z</time></trkpt><trkpt lat="53.84650" lon="11.60279"><ele>52</ele><time>2012-09-11T12:46:57Z</time></trkpt><trkpt lat="53.84649" lon="11.60274"><ele>50</ele><time>2012-09-11T12:46:58Z</time></trkpt><trkpt lat="53.84649" lon="11.60270"><ele>52</ele><time>2012-09-11T12:46:59Z</time></trkpt><trkpt lat="53.84650" lon="11.60265"><ele>51</ele><time>2012-09-11T12:47:00Z</time></trkpt><trkpt lat="53.84653" lon="11.60243"><ele>53</ele><time>2012-09-11T12:47:05Z</time></trkpt><trkpt lat="53.84656" lon="11.60219"><ele>51</ele><time>2012-09-11T12:47:09Z</time></trkpt><trkpt lat="53.84658" lon="11.60211"><ele>50</ele><time>2012-09-11T12:47:10Z</time></trkpt><trkpt lat="53.84665" lon="11.60176"><ele>48</ele><time>2012-09-11T12:47:16Z</time></trkpt><trkpt lat="53.84666" lon="11.60171"><ele>50</ele><time>2012-09-11T12:47:17Z</time></trkpt><trkpt lat="53.84668" lon="11.60154"><ele>49</ele><time>2012-09-11T12:47:21Z</time></trkpt><trkpt lat="53.84667" lon="11.60151"><ele>48</ele><time>2012-09-11T12:47:22Z</time></trkpt><trkpt lat="53.84667" lon="11.60147"><ele>49</ele><time>2012-09-11T12:47:23Z</time></trkpt><trkpt lat="53.84666" lon="11.60143"><ele>50</ele><time>2012-09-11T12:47:24Z</time></trkpt><trkpt lat="53.84664" lon="11.60140"><ele>50</ele><time>2012-09-11T12:47:25Z</time></trkpt><trkpt lat="53.84659" lon="11.60131"><ele>49</ele><time>2012-09-11T12:47:28Z</time></trkpt><trkpt lat="53.84643" lon="11.60114"><ele>54</ele><time>2012-09-11T12:47:33Z</time></trkpt><trkpt lat="53.84620" lon="11.60091"><ele>51</ele><time>2012-09-11T12:47:39Z</time></trkpt><trkpt lat="53.84612" lon="11.60085"><ele>52</ele><time>2012-09-11T12:47:41Z</time></trkpt><trkpt lat="53.84608" lon="11.60082"><ele>50</ele><time>2012-09-11T12:47:42Z</time></trkpt><trkpt lat="53.84604" lon="11.60079"><ele>50</ele><time>2012-09-11T12:47:43Z</time></trkpt><trkpt lat="53.84601" lon="11.60075"><ele>49</ele><time>2012-09-11T12:47:44Z</time></trkpt><trkpt lat="53.84597" lon="11.60072"><ele>47</ele><time>2012-09-11T12:47:45Z</time></trkpt><trkpt lat="53.84588" lon="11.60064"><ele>50</ele><time>2012-09-11T12:47:49Z</time></trkpt><trkpt lat="53.84586" lon="11.60062"><ele>48</ele><time>2012-09-11T12:47:50Z</time></trkpt><trkpt lat="53.84582" lon="11.60061"><ele>44</ele><time>2012-09-11T12:47:52Z</time></trkpt><trkpt lat="53.84581" lon="11.60066"><ele>42</ele><time>2012-09-11T12:47:54Z</time></trkpt><trkpt lat="53.84583" lon="11.60068"><ele>44</ele><time>2012-09-11T12:47:56Z</time></trkpt><trkpt lat="53.84585" lon="11.60070"><ele>45</ele><time>2012-09-11T12:47:57Z</time></trkpt><trkpt lat="53.84606" lon="11.60088"><ele>48</ele><time>2012-09-11T12:48:03Z</time></trkpt><trkpt lat="53.84610" lon="11.60093"><ele>49</ele><time>2012-09-11T12:48:04Z</time></trkpt><trkpt lat="53.84614" lon="11.60096"><ele>49</ele><time>2012-09-11T12:48:05Z</time></trkpt><trkpt lat="53.84633" lon="11.60111"><ele>48</ele><time>2012-09-11T12:48:09Z</time></trkpt><trkpt lat="53.84637" lon="11.60114"><ele>47</ele><time>2012-09-11T12:48:10Z</time></trkpt><trkpt lat="53.84648" lon="11.60123"><ele>48</ele><time>2012-09-11T12:48:13Z</time></trkpt><trkpt lat="53.84674" lon="11.60149"><ele>48</ele><time>2012-09-11T12:48:22Z</time></trkpt><trkpt lat="53.84677" lon="11.60153"><ele>48</ele><time>2012-09-11T12:48:23Z</time></trkpt><trkpt lat="53.84691" lon="11.60168"><ele>48</ele><time>2012-09-11T12:48:28Z</time></trkpt><trkpt lat="53.84695" lon="11.60172"><ele>49</ele><time>2012-09-11T12:48:29Z</time></trkpt><trkpt lat="53.84698" lon="11.60176"><ele>48</ele><time>2012-09-11T12:48:30Z</time></trkpt><trkpt lat="53.84719" lon="11.60200"><ele>46</ele><time>2012-09-11T12:48:37Z</time></trkpt><trkpt lat="53.84724" lon="11.60205"><ele>48</ele><time>2012-09-11T12:48:39Z</time></trkpt><trkpt lat="53.84732" lon="11.60210"><ele>48</ele><time>2012-09-11T12:48:42Z</time></trkpt><trkpt lat="53.84734" lon="11.60210"><ele>49</ele><time>2012-09-11T12:48:43Z</time></trkpt><trkpt lat="53.84737" lon="11.60209"><ele>51</ele><time>2012-09-11T12:48:44Z</time></trkpt><trkpt lat="53.84741" lon="11.60206"><ele>55</ele><time>2012-09-11T12:48:46Z</time></trkpt><trkpt lat="53.84745" lon="11.60202"><ele>56</ele><time>2012-09-11T12:48:48Z</time></trkpt><trkpt lat="53.84747" lon="11.60200"><ele>57</ele><time>2012-09-11T12:48:49Z</time></trkpt><trkpt lat="53.84754" lon="11.60190"><ele>51</ele><time>2012-09-11T12:48:52Z</time></trkpt><trkpt lat="53.84756" lon="11.60187"><ele>51</ele><time>2012-09-11T12:48:53Z</time></trkpt><trkpt lat="53.84795" lon="11.60119"><ele>56</ele><time>2012-09-11T12:49:17Z</time></trkpt><trkpt lat="53.84797" lon="11.60116"><ele>55</ele><time>2012-09-11T12:49:18Z</time></trkpt><trkpt lat="53.84805" lon="11.60105"><ele>55</ele><time>2012-09-11T12:49:22Z</time></trkpt><trkpt lat="53.84810" lon="11.60095"><ele>53</ele><time>2012-09-11T12:49:26Z</time></trkpt><trkpt lat="53.84813" lon="11.60090"><ele>54</ele><time>2012-09-11T12:49:28Z</time></trkpt><trkpt lat="53.84821" lon="11.60080"><ele>57</ele><time>2012-09-11T12:49:32Z</time></trkpt><trkpt lat="53.84823" lon="11.60077"><ele>57</ele><time>2012-09-11T12:49:33Z</time></trkpt><trkpt lat="53.84831" lon="11.60066"><ele>55</ele><time>2012-09-11T12:49:37Z</time></trkpt><trkpt lat="53.84857" lon="11.60025"><ele>49</ele><time>2012-09-11T12:49:47Z</time></trkpt><trkpt lat="53.84860" lon="11.60020"><ele>50</ele><time>2012-09-11T12:49:48Z</time></trkpt><trkpt lat="53.84918" lon="11.59925"><ele>49</ele><time>2012-09-11T12:50:08Z</time></trkpt><trkpt lat="53.84970" lon="11.59842"><ele>44</ele><time>2012-09-11T12:50:26Z</time></trkpt><trkpt lat="53.84971" lon="11.59837"><ele>44</ele><time>2012-09-11T12:50:27Z</time></trkpt><trkpt lat="53.84972" lon="11.59833"><ele>43</ele><time>2012-09-11T12:50:28Z</time></trkpt><trkpt lat="53.84974" lon="11.59828"><ele>44</ele><time>2012-09-11T12:50:29Z</time></trkpt><trkpt lat="53.84976" lon="11.59824"><ele>44</ele><time>2012-09-11T12:50:30Z</time></trkpt><trkpt lat="53.85023" lon="11.59747"><ele>45</ele><time>2012-09-11T12:50:46Z</time></trkpt><trkpt lat="53.85026" lon="11.59744"><ele>45</ele><time>2012-09-11T12:50:47Z</time></trkpt><trkpt lat="53.85034" lon="11.59734"><ele>44</ele><time>2012-09-11T12:50:50Z</time></trkpt><trkpt lat="53.85038" lon="11.59730"><ele>43</ele><time>2012-09-11T12:50:51Z</time></trkpt><trkpt lat="53.85064" lon="11.59688"><ele>46</ele><time>2012-09-11T12:51:00Z</time></trkpt><trkpt lat="53.85066" lon="11.59683"><ele>45</ele><time>2012-09-11T12:51:01Z</time></trkpt><trkpt lat="53.85081" lon="11.59658"><ele>46</ele><time>2012-09-11T12:51:07Z</time></trkpt><trkpt lat="53.85087" lon="11.59645"><ele>45</ele><time>2012-09-11T12:51:10Z</time></trkpt><trkpt lat="53.85090" lon="11.59636"><ele>45</ele><time>2012-09-11T12:51:12Z</time></trkpt><trkpt lat="53.85091" lon="11.59631"><ele>46</ele><time>2012-09-11T12:51:13Z</time></trkpt><trkpt lat="53.85098" lon="11.59595"><ele>45</ele><time>2012-09-11T12:51:20Z</time></trkpt><trkpt lat="53.85099" lon="11.59589"><ele>45</ele><time>2012-09-11T12:51:21Z</time></trkpt><trkpt lat="53.85101" lon="11.59557"><ele>46</ele><time>2012-09-11T12:51:27Z</time></trkpt><trkpt lat="53.85101" lon="11.59552"><ele>46</ele><time>2012-09-11T12:51:28Z</time></trkpt><trkpt lat="53.85100" lon="11.59534"><ele>48</ele><time>2012-09-11T12:51:31Z</time></trkpt><trkpt lat="53.85099" lon="11.59524"><ele>48</ele><time>2012-09-11T12:51:33Z</time></trkpt><trkpt lat="53.85099" lon="11.59518"><ele>48</ele><time>2012-09-11T12:51:34Z</time></trkpt><trkpt lat="53.85087" lon="11.59430"><ele>48</ele><time>2012-09-11T12:51:51Z</time></trkpt><trkpt lat="53.85087" lon="11.59425"><ele>47</ele><time>2012-09-11T12:51:52Z</time></trkpt><trkpt lat="53.85086" lon="11.59420"><ele>47</ele><time>2012-09-11T12:51:53Z</time></trkpt><trkpt lat="53.85084" lon="11.59402"><ele>47</ele><time>2012-09-11T12:51:56Z</time></trkpt><trkpt lat="53.85082" lon="11.59384"><ele>47</ele><time>2012-09-11T12:51:59Z</time></trkpt><trkpt lat="53.85080" lon="11.59343"><ele>46</ele><time>2012-09-11T12:52:05Z</time></trkpt><trkpt lat="53.85079" lon="11.59329"><ele>46</ele><time>2012-09-11T12:52:07Z</time></trkpt><trkpt lat="53.85077" lon="11.59288"><ele>44</ele><time>2012-09-11T12:52:12Z</time></trkpt><trkpt lat="53.85076" lon="11.59279"><ele>45</ele><time>2012-09-11T12:52:14Z</time></trkpt><trkpt lat="53.85067" lon="11.59141"><ele>41</ele><time>2012-09-11T12:52:25Z</time></trkpt><trkpt lat="53.85062" lon="11.59041"><ele>37</ele><time>2012-09-11T12:52:33Z</time></trkpt><trkpt lat="53.85062" lon="11.59019"><ele>39</ele><time>2012-09-11T12:52:35Z</time></trkpt><trkpt lat="53.85063" lon="11.59011"><ele>39</ele><time>2012-09-11T12:52:36Z</time></trkpt><trkpt lat="53.85066" lon="11.58990"><ele>35</ele><time>2012-09-11T12:52:39Z</time></trkpt><trkpt lat="53.85070" lon="11.58951"><ele>37</ele><time>2012-09-11T12:52:44Z</time></trkpt><trkpt lat="53.85071" lon="11.58937"><ele>37</ele><time>2012-09-11T12:52:46Z</time></trkpt><trkpt lat="53.85073" lon="11.58914"><ele>38</ele><time>2012-09-11T12:52:49Z</time></trkpt><trkpt lat="53.85076" lon="11.58892"><ele>38</ele><time>2012-09-11T12:52:52Z</time></trkpt><trkpt lat="53.85076" lon="11.58886"><ele>37</ele><time>2012-09-11T12:52:53Z</time></trkpt><trkpt lat="53.85086" lon="11.58753"><ele>39</ele><time>2012-09-11T12:53:17Z</time></trkpt><trkpt lat="53.85091" lon="11.58715"><ele>37</ele><time>2012-09-11T12:53:24Z</time></trkpt><trkpt lat="53.85091" lon="11.58709"><ele>39</ele><time>2012-09-11T12:53:25Z</time></trkpt><trkpt lat="53.85090" lon="11.58696"><ele>41</ele><time>2012-09-11T12:53:28Z</time></trkpt><trkpt lat="53.85088" lon="11.58688"><ele>43</ele><time>2012-09-11T12:53:30Z</time></trkpt><trkpt lat="53.85086" lon="11.58679"><ele>43</ele><time>2012-09-11T12:53:32Z</time></trkpt><trkpt lat="53.85075" lon="11.58644"><ele>42</ele><time>2012-09-11T12:53:38Z</time></trkpt><trkpt lat="53.85073" lon="11.58638"><ele>42</ele><time>2012-09-11T12:53:39Z</time></trkpt><trkpt lat="53.85069" lon="11.58617"><ele>40</ele><time>2012-09-11T12:53:43Z</time></trkpt><trkpt lat="53.85067" lon="11.58607"><ele>39</ele><time>2012-09-11T12:53:45Z</time></trkpt><trkpt lat="53.85067" lon="11.58603"><ele>39</ele><time>2012-09-11T12:53:46Z</time></trkpt><trkpt lat="53.85036" lon="11.58461"><ele>39</ele><time>2012-09-11T12:54:07Z</time></trkpt><trkpt lat="53.85029" lon="11.58432"><ele>36</ele><time>2012-09-11T12:54:12Z</time></trkpt><trkpt lat="53.85026" lon="11.58426"><ele>37</ele><time>2012-09-11T12:54:13Z</time></trkpt><trkpt lat="53.85021" lon="11.58412"><ele>38</ele><time>2012-09-11T12:54:16Z</time></trkpt><trkpt lat="53.85020" lon="11.58407"><ele>36</ele><time>2012-09-11T12:54:17Z</time></trkpt><trkpt lat="53.85017" lon="11.58390"><ele>36</ele><time>2012-09-11T12:54:20Z</time></trkpt><trkpt lat="53.85015" lon="11.58376"><ele>33</ele><time>2012-09-11T12:54:23Z</time></trkpt><trkpt lat="53.85015" lon="11.58370"><ele>34</ele><time>2012-09-11T12:54:24Z</time></trkpt><trkpt lat="53.85015" lon="11.58364"><ele>32</ele><time>2012-09-11T12:54:25Z</time></trkpt><trkpt lat="53.85013" lon="11.58357"><ele>32</ele><time>2012-09-11T12:54:27Z</time></trkpt><trkpt lat="53.85007" lon="11.58322"><ele>33</ele><time>2012-09-11T12:54:34Z</time></trkpt><trkpt lat="53.85005" lon="11.58317"><ele>36</ele><time>2012-09-11T12:54:35Z</time></trkpt><trkpt lat="53.85003" lon="11.58311"><ele>35</ele><time>2012-09-11T12:54:36Z</time></trkpt><trkpt lat="53.85001" lon="11.58306"><ele>33</ele><time>2012-09-11T12:54:37Z</time></trkpt><trkpt lat="53.84996" lon="11.58300"><ele>37</ele><time>2012-09-11T12:54:39Z</time></trkpt><trkpt lat="53.84987" lon="11.58288"><ele>39</ele><time>2012-09-11T12:54:42Z</time></trkpt><trkpt lat="53.84984" lon="11.58286"><ele>36</ele><time>2012-09-11T12:54:43Z</time></trkpt><trkpt lat="53.84981" lon="11.58283"><ele>35</ele><time>2012-09-11T12:54:44Z</time></trkpt><trkpt lat="53.84969" lon="11.58269"><ele>38</ele><time>2012-09-11T12:54:49Z</time></trkpt><trkpt lat="53.84967" lon="11.58264"><ele>36</ele><time>2012-09-11T12:54:50Z</time></trkpt><trkpt lat="53.84957" lon="11.58245"><ele>33</ele><time>2012-09-11T12:54:54Z</time></trkpt><trkpt lat="53.84953" lon="11.58240"><ele>34</ele><time>2012-09-11T12:54:57Z</time></trkpt><trkpt lat="53.84949" lon="11.58236"><ele>34</ele><time>2012-09-11T12:54:59Z</time></trkpt><trkpt lat="53.84942" lon="11.58233"><ele>36</ele><time>2012-09-11T12:55:01Z</time></trkpt><trkpt lat="53.84939" lon="11.58231"><ele>37</ele><time>2012-09-11T12:55:02Z</time></trkpt><trkpt lat="53.84936" lon="11.58226"><ele>38</ele><time>2012-09-11T12:55:03Z</time></trkpt><trkpt lat="53.84928" lon="11.58214"><ele>37</ele><time>2012-09-11T12:55:06Z</time></trkpt><trkpt lat="53.84923" lon="11.58208"><ele>35</ele><time>2012-09-11T12:55:08Z</time></trkpt><trkpt lat="53.84921" lon="11.58204"><ele>35</ele><time>2012-09-11T12:55:09Z</time></trkpt><trkpt lat="53.84913" lon="11.58187"><ele>33</ele><time>2012-09-11T12:55:13Z</time></trkpt><trkpt lat="53.84908" lon="11.58179"><ele>33</ele><time>2012-09-11T12:55:15Z</time></trkpt><trkpt lat="53.84900" lon="11.58168"><ele>31</ele><time>2012-09-11T12:55:18Z</time></trkpt><trkpt lat="53.84897" lon="11.58164"><ele>31</ele><time>2012-09-11T12:55:19Z</time></trkpt><trkpt lat="53.84895" lon="11.58161"><ele>31</ele><time>2012-09-11T12:55:20Z</time></trkpt><trkpt lat="53.84889" lon="11.58149"><ele>31</ele><time>2012-09-11T12:55:23Z</time></trkpt><trkpt lat="53.84887" lon="11.58145"><ele>31</ele><time>2012-09-11T12:55:24Z</time></trkpt><trkpt lat="53.84885" lon="11.58141"><ele>32</ele><time>2012-09-11T12:55:25Z</time></trkpt><trkpt lat="53.84883" lon="11.58137"><ele>32</ele><time>2012-09-11T12:55:26Z</time></trkpt><trkpt lat="53.84877" lon="11.58122"><ele>31</ele><time>2012-09-11T12:55:30Z</time></trkpt><trkpt lat="53.84876" lon="11.58113"><ele>32</ele><time>2012-09-11T12:55:32Z</time></trkpt><trkpt lat="53.84875" lon="11.58102"><ele>32</ele><time>2012-09-11T12:55:35Z</time></trkpt><trkpt lat="53.84874" lon="11.58098"><ele>34</ele><time>2012-09-11T12:55:36Z</time></trkpt><trkpt lat="53.84870" lon="11.58080"><ele>32</ele><time>2012-09-11T12:55:40Z</time></trkpt><trkpt lat="53.84870" lon="11.58075"><ele>31</ele><time>2012-09-11T12:55:41Z</time></trkpt><trkpt lat="53.84868" lon="11.58064"><ele>29</ele><time>2012-09-11T12:55:43Z</time></trkpt><trkpt lat="53.84866" lon="11.58050"><ele>29</ele><time>2012-09-11T12:55:48Z</time></trkpt><trkpt lat="53.84865" lon="11.58041"><ele>28</ele><time>2012-09-11T12:55:51Z</time></trkpt><trkpt lat="53.84866" lon="11.58030"><ele>28</ele><time>2012-09-11T12:55:54Z</time></trkpt><trkpt lat="53.84865" lon="11.58024"><ele>28</ele><time>2012-09-11T12:55:56Z</time></trkpt><trkpt lat="53.84865" lon="11.58017"><ele>29</ele><time>2012-09-11T12:55:58Z</time></trkpt><trkpt lat="53.84864" lon="11.58000"><ele>28</ele><time>2012-09-11T12:56:03Z</time></trkpt><trkpt lat="53.84864" lon="11.57993"><ele>29</ele><time>2012-09-11T12:56:05Z</time></trkpt><trkpt lat="53.84864" lon="11.57986"><ele>29</ele><time>2012-09-11T12:56:07Z</time></trkpt><trkpt lat="53.84862" lon="11.57955"><ele>27</ele><time>2012-09-11T12:56:15Z</time></trkpt><trkpt lat="53.84862" lon="11.57945"><ele>25</ele><time>2012-09-11T12:56:17Z</time></trkpt><trkpt lat="53.84861" lon="11.57912"><ele>30</ele><time>2012-09-11T12:56:24Z</time></trkpt><trkpt lat="53.84860" lon="11.57901"><ele>32</ele><time>2012-09-11T12:56:26Z</time></trkpt><trkpt lat="53.84857" lon="11.57868"><ele>35</ele><time>2012-09-11T12:56:33Z</time></trkpt><trkpt lat="53.84857" lon="11.57860"><ele>38</ele><time>2012-09-11T12:56:35Z</time></trkpt><trkpt lat="53.84856" lon="11.57849"><ele>42</ele><time>2012-09-11T12:56:37Z</time></trkpt><trkpt lat="53.84852" lon="11.57821"><ele>42</ele><time>2012-09-11T12:56:42Z</time></trkpt><trkpt lat="53.84852" lon="11.57816"><ele>35</ele><time>2012-09-11T12:56:43Z</time></trkpt><trkpt lat="53.84851" lon="11.57793"><ele>38</ele><time>2012-09-11T12:56:47Z</time></trkpt><trkpt lat="53.84850" lon="11.57780"><ele>39</ele><time>2012-09-11T12:56:49Z</time></trkpt><trkpt lat="53.84848" lon="11.57761"><ele>39</ele><time>2012-09-11T12:56:52Z</time></trkpt><trkpt lat="53.84849" lon="11.57752"><ele>37</ele><time>2012-09-11T12:56:53Z</time></trkpt><trkpt lat="53.84848" lon="11.57740"><ele>38</ele><time>2012-09-11T12:56:55Z</time></trkpt><trkpt lat="53.84849" lon="11.57723"><ele>36</ele><time>2012-09-11T12:56:57Z</time></trkpt><trkpt lat="53.84850" lon="11.57709"><ele>30</ele><time>2012-09-11T12:56:59Z</time></trkpt><trkpt lat="53.84849" lon="11.57693"><ele>34</ele><time>2012-09-11T12:57:01Z</time></trkpt><trkpt lat="53.84849" lon="11.57673"><ele>28</ele><time>2012-09-11T12:57:04Z</time></trkpt><trkpt lat="53.84849" lon="11.57662"><ele>27</ele><time>2012-09-11T12:57:06Z</time></trkpt><trkpt lat="53.84850" lon="11.57644"><ele>29</ele><time>2012-09-11T12:57:10Z</time></trkpt><trkpt lat="53.84849" lon="11.57633"><ele>30</ele><time>2012-09-11T12:57:12Z</time></trkpt><trkpt lat="53.84846" lon="11.57612"><ele>28</ele><time>2012-09-11T12:57:17Z</time></trkpt><trkpt lat="53.84842" lon="11.57587"><ele>34</ele><time>2012-09-11T12:57:23Z</time></trkpt><trkpt lat="53.84838" lon="11.57568"><ele>34</ele><time>2012-09-11T12:57:27Z</time></trkpt><trkpt lat="53.84836" lon="11.57550"><ele>28</ele><time>2012-09-11T12:57:31Z</time></trkpt><trkpt lat="53.84835" lon="11.57539"><ele>30</ele><time>2012-09-11T12:57:33Z</time></trkpt><trkpt lat="53.84834" lon="11.57528"><ele>28</ele><time>2012-09-11T12:57:35Z</time></trkpt><trkpt lat="53.84833" lon="11.57516"><ele>28</ele><time>2012-09-11T12:57:37Z</time></trkpt><trkpt lat="53.84833" lon="11.57481"><ele>30</ele><time>2012-09-11T12:57:41Z</time></trkpt><trkpt lat="53.84833" lon="11.57464"><ele>30</ele><time>2012-09-11T12:57:43Z</time></trkpt><trkpt lat="53.84835" lon="11.57432"><ele>35</ele><time>2012-09-11T12:57:49Z</time></trkpt><trkpt lat="53.84834" lon="11.57408"><ele>36</ele><time>2012-09-11T12:57:55Z</time></trkpt><trkpt lat="53.84833" lon="11.57375"><ele>31</ele><time>2012-09-11T12:58:01Z</time></trkpt><trkpt lat="53.84832" lon="11.57366"><ele>29</ele><time>2012-09-11T12:58:03Z</time></trkpt><trkpt lat="53.84833" lon="11.57352"><ele>23</ele><time>2012-09-11T12:58:05Z</time></trkpt><trkpt lat="53.84835" lon="11.57321"><ele>21</ele><time>2012-09-11T12:58:09Z</time></trkpt><trkpt lat="53.84837" lon="11.57312"><ele>19</ele><time>2012-09-11T12:58:10Z</time></trkpt><trkpt lat="53.84839" lon="11.57293"><ele>22</ele><time>2012-09-11T12:58:13Z</time></trkpt><trkpt lat="53.84839" lon="11.57279"><ele>16</ele><time>2012-09-11T12:58:15Z</time></trkpt><trkpt lat="53.84841" lon="11.57267"><ele>8</ele><time>2012-09-11T12:58:17Z</time></trkpt><trkpt lat="53.84842" lon="11.57254"><ele>7</ele><time>2012-09-11T12:58:19Z</time></trkpt><trkpt lat="53.84841" lon="11.57240"><ele>12</ele><time>2012-09-11T12:58:22Z</time></trkpt><trkpt lat="53.84839" lon="11.57210"><ele>29</ele><time>2012-09-11T12:58:48Z</time></trkpt><trkpt lat="53.84836" lon="11.57201"><ele>29</ele><time>2012-09-11T12:58:50Z</time></trkpt><trkpt lat="53.84834" lon="11.57190"><ele>32</ele><time>2012-09-11T12:58:52Z</time></trkpt><trkpt lat="53.84830" lon="11.57171"><ele>31</ele><time>2012-09-11T12:58:55Z</time></trkpt><trkpt lat="53.84827" lon="11.57154"><ele>24</ele><time>2012-09-11T12:58:58Z</time></trkpt><trkpt lat="53.84824" lon="11.57142"><ele>22</ele><time>2012-09-11T12:59:01Z</time></trkpt><trkpt lat="53.84821" lon="11.57134"><ele>19</ele><time>2012-09-11T12:59:03Z</time></trkpt><trkpt lat="53.84817" lon="11.57117"><ele>20</ele><time>2012-09-11T12:59:06Z</time></trkpt><trkpt lat="53.84815" lon="11.57106"><ele>23</ele><time>2012-09-11T12:59:08Z</time></trkpt><trkpt lat="53.84812" lon="11.57093"><ele>21</ele><time>2012-09-11T12:59:10Z</time></trkpt><trkpt lat="53.84791" lon="11.57028"><ele>15</ele><time>2012-09-11T12:59:22Z</time></trkpt><trkpt lat="53.84790" lon="11.57023"><ele>16</ele><time>2012-09-11T12:59:23Z</time></trkpt><trkpt lat="53.84789" lon="11.57019"><ele>17</ele><time>2012-09-11T12:59:24Z</time></trkpt><trkpt lat="53.84788" lon="11.57014"><ele>19</ele><time>2012-09-11T12:59:25Z</time></trkpt><trkpt lat="53.84788" lon="11.57010"><ele>19</ele><time>2012-09-11T12:59:26Z</time></trkpt><trkpt lat="53.84785" lon="11.56989"><ele>20</ele><time>2012-09-11T12:59:32Z</time></trkpt><trkpt lat="53.84785" lon="11.56983"><ele>20</ele><time>2012-09-11T12:59:34Z</time></trkpt><trkpt lat="53.84784" lon="11.56974"><ele>13</ele><time>2012-09-11T12:59:36Z</time></trkpt><trkpt lat="53.84783" lon="11.56968"><ele>11</ele><time>2012-09-11T12:59:37Z</time></trkpt><trkpt lat="53.84779" lon="11.56948"><ele>15</ele><time>2012-09-11T12:59:40Z</time></trkpt><trkpt lat="53.84777" lon="11.56942"><ele>14</ele><time>2012-09-11T12:59:41Z</time></trkpt><trkpt lat="53.84768" lon="11.56911"><ele>15</ele><time>2012-09-11T12:59:50Z</time></trkpt><trkpt lat="53.84767" lon="11.56907"><ele>15</ele><time>2012-09-11T12:59:51Z</time></trkpt><trkpt lat="53.84766" lon="11.56901"><ele>16</ele><time>2012-09-11T12:59:53Z</time></trkpt><trkpt lat="53.84764" lon="11.56883"><ele>16</ele><time>2012-09-11T12:59:58Z</time></trkpt><trkpt lat="53.84763" lon="11.56879"><ele>16</ele><time>2012-09-11T12:59:59Z</time></trkpt><trkpt lat="53.84763" lon="11.56874"><ele>16</ele><time>2012-09-11T13:00:00Z</time></trkpt><trkpt lat="53.84762" lon="11.56870"><ele>16</ele><time>2012-09-11T13:00:01Z</time></trkpt><trkpt lat="53.84761" lon="11.56864"><ele>17</ele><time>2012-09-11T13:00:02Z</time></trkpt><trkpt lat="53.84755" lon="11.56827"><ele>20</ele><time>2012-09-11T13:00:08Z</time></trkpt><trkpt lat="53.84754" lon="11.56822"><ele>19</ele><time>2012-09-11T13:00:09Z</time></trkpt><trkpt lat="53.84752" lon="11.56817"><ele>19</ele><time>2012-09-11T13:00:10Z</time></trkpt><trkpt lat="53.84750" lon="11.56813"><ele>17</ele><time>2012-09-11T13:00:11Z</time></trkpt><trkpt lat="53.84747" lon="11.56804"><ele>16</ele><time>2012-09-11T13:00:13Z</time></trkpt><trkpt lat="53.84743" lon="11.56796"><ele>18</ele><time>2012-09-11T13:00:15Z</time></trkpt><trkpt lat="53.84741" lon="11.56793"><ele>18</ele><time>2012-09-11T13:00:16Z</time></trkpt><trkpt lat="53.84733" lon="11.56781"><ele>18</ele><time>2012-09-11T13:00:20Z</time></trkpt><trkpt lat="53.84731" lon="11.56776"><ele>16</ele><time>2012-09-11T13:00:33Z</time></trkpt><trkpt lat="53.84719" lon="11.56745"><ele>21</ele><time>2012-09-11T13:00:56Z</time></trkpt><trkpt lat="53.84717" lon="11.56741"><ele>22</ele><time>2012-09-11T13:00:57Z</time></trkpt><trkpt lat="53.84696" lon="11.56675"><ele>21</ele><time>2012-09-11T13:01:10Z</time></trkpt><trkpt lat="53.84694" lon="11.56670"><ele>21</ele><time>2012-09-11T13:01:11Z</time></trkpt><trkpt lat="53.84689" lon="11.56656"><ele>21</ele><time>2012-09-11T13:01:14Z</time></trkpt><trkpt lat="53.84681" lon="11.56640"><ele>21</ele><time>2012-09-11T13:01:18Z</time></trkpt><trkpt lat="53.84661" lon="11.56600"><ele>23</ele><time>2012-09-11T13:01:27Z</time></trkpt><trkpt lat="53.84655" lon="11.56591"><ele>23</ele><time>2012-09-11T13:01:29Z</time></trkpt><trkpt lat="53.84648" lon="11.56580"><ele>23</ele><time>2012-09-11T13:01:32Z</time></trkpt><trkpt lat="53.84646" lon="11.56577"><ele>23</ele><time>2012-09-11T13:01:33Z</time></trkpt><trkpt lat="53.84642" lon="11.56570"><ele>21</ele><time>2012-09-11T13:01:35Z</time></trkpt><trkpt lat="53.84639" lon="11.56565"><ele>23</ele><time>2012-09-11T13:01:36Z</time></trkpt><trkpt lat="53.84631" lon="11.56550"><ele>25</ele><time>2012-09-11T13:01:39Z</time></trkpt><trkpt lat="53.84628" lon="11.56546"><ele>25</ele><time>2012-09-11T13:01:40Z</time></trkpt><trkpt lat="53.84612" lon="11.56523"><ele>19</ele><time>2012-09-11T13:01:47Z</time></trkpt><trkpt lat="53.84610" lon="11.56520"><ele>20</ele><time>2012-09-11T13:01:48Z</time></trkpt><trkpt lat="53.84608" lon="11.56517"><ele>21</ele><time>2012-09-11T13:01:49Z</time></trkpt><trkpt lat="53.84602" lon="11.56507"><ele>19</ele><time>2012-09-11T13:01:52Z</time></trkpt><trkpt lat="53.84594" lon="11.56493"><ele>19</ele><time>2012-09-11T13:01:57Z</time></trkpt><trkpt lat="53.84592" lon="11.56489"><ele>20</ele><time>2012-09-11T13:01:58Z</time></trkpt><trkpt lat="53.84590" lon="11.56486"><ele>19</ele><time>2012-09-11T13:01:59Z</time></trkpt><trkpt lat="53.84589" lon="11.56482"><ele>18</ele><time>2012-09-11T13:02:00Z</time></trkpt><trkpt lat="53.84587" lon="11.56479"><ele>19</ele><time>2012-09-11T13:02:01Z</time></trkpt><trkpt lat="53.84585" lon="11.56476"><ele>20</ele><time>2012-09-11T13:02:02Z</time></trkpt><trkpt lat="53.84580" lon="11.56468"><ele>22</ele><time>2012-09-11T13:02:05Z</time></trkpt><trkpt lat="53.84578" lon="11.56465"><ele>23</ele><time>2012-09-11T13:02:06Z</time></trkpt><trkpt lat="53.84576" lon="11.56462"><ele>24</ele><time>2012-09-11T13:02:07Z</time></trkpt><trkpt lat="53.84569" lon="11.56448"><ele>22</ele><time>2012-09-11T13:02:12Z</time></trkpt><trkpt lat="53.84567" lon="11.56443"><ele>21</ele><time>2012-09-11T13:02:14Z</time></trkpt><trkpt lat="53.84564" lon="11.56440"><ele>19</ele><time>2012-09-11T13:02:16Z</time></trkpt><trkpt lat="53.84561" lon="11.56439"><ele>18</ele><time>2012-09-11T13:02:18Z</time></trkpt><trkpt lat="53.84555" lon="11.56444"><ele>14</ele><time>2012-09-11T13:02:21Z</time></trkpt><trkpt lat="53.84553" lon="11.56447"><ele>12</ele><time>2012-09-11T13:02:22Z</time></trkpt><trkpt lat="53.84492" lon="11.56548"><ele>12</ele><time>2012-09-11T13:02:46Z</time></trkpt><trkpt lat="53.84488" lon="11.56556"><ele>16</ele><time>2012-09-11T13:02:48Z</time></trkpt><trkpt lat="53.84473" lon="11.56582"><ele>13</ele><time>2012-09-11T13:02:56Z</time></trkpt><trkpt lat="53.84470" lon="11.56587"><ele>15</ele><time>2012-09-11T13:02:58Z</time></trkpt><trkpt lat="53.84463" lon="11.56599"><ele>19</ele><time>2012-09-11T13:03:02Z</time></trkpt><trkpt lat="53.84459" lon="11.56608"><ele>20</ele><time>2012-09-11T13:03:05Z</time></trkpt><trkpt lat="53.84432" lon="11.56653"><ele>14</ele><time>2012-09-11T13:03:15Z</time></trkpt><trkpt lat="53.84427" lon="11.56661"><ele>14</ele><time>2012-09-11T13:03:17Z</time></trkpt><trkpt lat="53.84414" lon="11.56682"><ele>16</ele><time>2012-09-11T13:03:22Z</time></trkpt><trkpt lat="53.84412" lon="11.56686"><ele>16</ele><time>2012-09-11T13:03:23Z</time></trkpt><trkpt lat="53.84409" lon="11.56690"><ele>14</ele><time>2012-09-11T13:03:24Z</time></trkpt><trkpt lat="53.84382" lon="11.56735"><ele>15</ele><time>2012-09-11T13:03:37Z</time></trkpt><trkpt lat="53.84380" lon="11.56738"><ele>17</ele><time>2012-09-11T13:03:38Z</time></trkpt><trkpt lat="53.84373" lon="11.56750"><ele>16</ele><time>2012-09-11T13:03:41Z</time></trkpt><trkpt lat="53.84371" lon="11.56754"><ele>16</ele><time>2012-09-11T13:03:42Z</time></trkpt><trkpt lat="53.84370" lon="11.56757"><ele>16</ele><time>2012-09-11T13:03:43Z</time></trkpt><trkpt lat="53.84368" lon="11.56760"><ele>17</ele><time>2012-09-11T13:03:44Z</time></trkpt><trkpt lat="53.84361" lon="11.56774"><ele>21</ele><time>2012-09-11T13:03:48Z</time></trkpt><trkpt lat="53.84359" lon="11.56778"><ele>22</ele><time>2012-09-11T13:03:49Z</time></trkpt><trkpt lat="53.84357" lon="11.56783"><ele>22</ele><time>2012-09-11T13:03:50Z</time></trkpt><trkpt lat="53.84354" lon="11.56786"><ele>22</ele><time>2012-09-11T13:03:51Z</time></trkpt><trkpt lat="53.84351" lon="11.56789"><ele>21</ele><time>2012-09-11T13:03:52Z</time></trkpt><trkpt lat="53.84347" lon="11.56790"><ele>20</ele><time>2012-09-11T13:03:53Z</time></trkpt><trkpt lat="53.84344" lon="11.56790"><ele>21</ele><time>2012-09-11T13:03:54Z</time></trkpt><trkpt lat="53.84340" lon="11.56789"><ele>22</ele><time>2012-09-11T13:03:55Z</time></trkpt><trkpt lat="53.84321" lon="11.56783"><ele>23</ele><time>2012-09-11T13:04:01Z</time></trkpt><trkpt lat="53.84314" lon="11.56780"><ele>23</ele><time>2012-09-11T13:04:03Z</time></trkpt><trkpt lat="53.84237" lon="11.56745"><ele>19</ele><time>2012-09-11T13:05:00Z</time></trkpt><trkpt lat="53.84171" lon="11.56719"><ele>21</ele><time>2012-09-11T13:05:18Z</time></trkpt><trkpt lat="53.84168" lon="11.56718"><ele>20</ele><time>2012-09-11T13:05:19Z</time></trkpt><trkpt lat="53.84159" lon="11.56715"><ele>20</ele><time>2012-09-11T13:05:22Z</time></trkpt><trkpt lat="53.84153" lon="11.56713"><ele>19</ele><time>2012-09-11T13:05:24Z</time></trkpt><trkpt lat="53.84124" lon="11.56702"><ele>21</ele><time>2012-09-11T13:05:33Z</time></trkpt><trkpt lat="53.84115" lon="11.56696"><ele>18</ele><time>2012-09-11T13:05:36Z</time></trkpt><trkpt lat="53.84095" lon="11.56685"><ele>19</ele><time>2012-09-11T13:05:43Z</time></trkpt><trkpt lat="53.84092" lon="11.56684"><ele>20</ele><time>2012-09-11T13:05:44Z</time></trkpt><trkpt lat="53.84015" lon="11.56650"><ele>21</ele><time>2012-09-11T13:06:10Z</time></trkpt><trkpt lat="53.84015" lon="11.56655"><ele>23</ele><time>2012-09-11T13:06:46Z</time></trkpt><trkpt lat="53.84017" lon="11.56657"><ele>22</ele><time>2012-09-11T13:06:47Z</time></trkpt><trkpt lat="53.84021" lon="11.56657"><ele>23</ele><time>2012-09-11T13:06:48Z</time></trkpt><trkpt lat="53.84033" lon="11.56661"><ele>23</ele><time>2012-09-11T13:06:52Z</time></trkpt><trkpt lat="53.84036" lon="11.56662"><ele>23</ele><time>2012-09-11T13:06:53Z</time></trkpt><trkpt lat="53.84047" lon="11.56667"><ele>24</ele><time>2012-09-11T13:06:57Z</time></trkpt><trkpt lat="53.84052" lon="11.56668"><ele>25</ele><time>2012-09-11T13:06:59Z</time></trkpt><trkpt lat="53.84059" lon="11.56671"><ele>23</ele><time>2012-09-11T13:07:02Z</time></trkpt><trkpt lat="53.84081" lon="11.56683"><ele>13</ele><time>2012-09-11T13:07:22Z</time></trkpt><trkpt lat="53.84083" lon="11.56684"><ele>13</ele><time>2012-09-11T13:07:23Z</time></trkpt><trkpt lat="53.84093" lon="11.56689"><ele>16</ele><time>2012-09-11T13:07:26Z</time></trkpt><trkpt lat="53.84096" lon="11.56690"><ele>17</ele><time>2012-09-11T13:07:27Z</time></trkpt><trkpt lat="53.84178" lon="11.56721"><ele>21</ele><time>2012-09-11T13:07:45Z</time></trkpt><trkpt lat="53.84196" lon="11.56730"><ele>22</ele><time>2012-09-11T13:07:49Z</time></trkpt><trkpt lat="53.84201" lon="11.56732"><ele>23</ele><time>2012-09-11T13:07:50Z</time></trkpt><trkpt lat="53.84280" lon="11.56768"><ele>16</ele><time>2012-09-11T13:08:06Z</time></trkpt><trkpt lat="53.84339" lon="11.56794"><ele>17</ele><time>2012-09-11T13:08:20Z</time></trkpt><trkpt lat="53.84348" lon="11.56796"><ele>16</ele><time>2012-09-11T13:08:22Z</time></trkpt><trkpt lat="53.84352" lon="11.56794"><ele>17</ele><time>2012-09-11T13:08:23Z</time></trkpt><trkpt lat="53.84355" lon="11.56790"><ele>17</ele><time>2012-09-11T13:08:24Z</time></trkpt><trkpt lat="53.84358" lon="11.56785"><ele>16</ele><time>2012-09-11T13:08:25Z</time></trkpt><trkpt lat="53.84361" lon="11.56779"><ele>16</ele><time>2012-09-11T13:08:26Z</time></trkpt><trkpt lat="53.84374" lon="11.56755"><ele>17</ele><time>2012-09-11T13:08:30Z</time></trkpt><trkpt lat="53.84381" lon="11.56742"><ele>18</ele><time>2012-09-11T13:08:32Z</time></trkpt><trkpt lat="53.84440" lon="11.56646"><ele>23</ele><time>2012-09-11T13:08:46Z</time></trkpt><trkpt lat="53.84454" lon="11.56620"><ele>21</ele><time>2012-09-11T13:08:50Z</time></trkpt><trkpt lat="53.84458" lon="11.56614"><ele>20</ele><time>2012-09-11T13:08:51Z</time></trkpt><trkpt lat="53.84515" lon="11.56514"><ele>16</ele><time>2012-09-11T13:09:07Z</time></trkpt><trkpt lat="53.84565" lon="11.56429"><ele>20</ele><time>2012-09-11T13:09:21Z</time></trkpt><trkpt lat="53.84568" lon="11.56426"><ele>19</ele><time>2012-09-11T13:09:22Z</time></trkpt><trkpt lat="53.84578" lon="11.56411"><ele>22</ele><time>2012-09-11T13:09:25Z</time></trkpt><trkpt lat="53.84582" lon="11.56405"><ele>22</ele><time>2012-09-11T13:09:26Z</time></trkpt><trkpt lat="53.84645" lon="11.56295"><ele>23</ele><time>2012-09-11T13:09:42Z</time></trkpt><trkpt lat="53.84648" lon="11.56287"><ele>25</ele><time>2012-09-11T13:09:43Z</time></trkpt><trkpt lat="53.84655" lon="11.56273"><ele>24</ele><time>2012-09-11T13:09:45Z</time></trkpt><trkpt lat="53.84659" lon="11.56264"><ele>27</ele><time>2012-09-11T13:09:46Z</time></trkpt><trkpt lat="53.84672" lon="11.56229"><ele>22</ele><time>2012-09-11T13:09:51Z</time></trkpt><trkpt lat="53.84676" lon="11.56214"><ele>23</ele><time>2012-09-11T13:09:53Z</time></trkpt><trkpt lat="53.84680" lon="11.56197"><ele>23</ele><time>2012-09-11T13:09:55Z</time></trkpt><trkpt lat="53.84683" lon="11.56188"><ele>24</ele><time>2012-09-11T13:09:56Z</time></trkpt><trkpt lat="53.84686" lon="11.56179"><ele>23</ele><time>2012-09-11T13:09:57Z</time></trkpt><trkpt lat="53.84688" lon="11.56170"><ele>21</ele><time>2012-09-11T13:09:58Z</time></trkpt><trkpt lat="53.84690" lon="11.56161"><ele>22</ele><time>2012-09-11T13:09:59Z</time></trkpt><trkpt lat="53.84692" lon="11.56152"><ele>22</ele><time>2012-09-11T13:10:00Z</time></trkpt><trkpt lat="53.84695" lon="11.56136"><ele>21</ele><time>2012-09-11T13:10:02Z</time></trkpt><trkpt lat="53.84705" lon="11.56089"><ele>24</ele><time>2012-09-11T13:10:08Z</time></trkpt><trkpt lat="53.84706" lon="11.56084"><ele>20</ele><time>2012-09-11T13:10:09Z</time></trkpt><trkpt lat="53.84707" lon="11.56077"><ele>26</ele><time>2012-09-11T13:10:10Z</time></trkpt><trkpt lat="53.84708" lon="11.56071"><ele>26</ele><time>2012-09-11T13:10:11Z</time></trkpt><trkpt lat="53.84711" lon="11.56050"><ele>23</ele><time>2012-09-11T13:10:14Z</time></trkpt><trkpt lat="53.84713" lon="11.56042"><ele>23</ele><time>2012-09-11T13:10:15Z</time></trkpt><trkpt lat="53.84715" lon="11.56027"><ele>21</ele><time>2012-09-11T13:10:17Z</time></trkpt><trkpt lat="53.84717" lon="11.56005"><ele>17</ele><time>2012-09-11T13:10:20Z</time></trkpt><trkpt lat="53.84719" lon="11.55996"><ele>20</ele><time>2012-09-11T13:10:21Z</time></trkpt><trkpt lat="53.84732" lon="11.55916"><ele>15</ele><time>2012-09-11T13:10:32Z</time></trkpt><trkpt lat="53.84734" lon="11.55909"><ele>13</ele><time>2012-09-11T13:10:33Z</time></trkpt><trkpt lat="53.84740" lon="11.55886"><ele>11</ele><time>2012-09-11T13:10:37Z</time></trkpt><trkpt lat="53.84743" lon="11.55874"><ele>13</ele><time>2012-09-11T13:10:39Z</time></trkpt><trkpt lat="53.84749" lon="11.55842"><ele>19</ele><time>2012-09-11T13:10:44Z</time></trkpt><trkpt lat="53.84751" lon="11.55827"><ele>16</ele><time>2012-09-11T13:10:46Z</time></trkpt><trkpt lat="53.84756" lon="11.55797"><ele>22</ele><time>2012-09-11T13:10:50Z</time></trkpt><trkpt lat="53.84759" lon="11.55788"><ele>23</ele><time>2012-09-11T13:10:51Z</time></trkpt><trkpt lat="53.84771" lon="11.55756"><ele>27</ele><time>2012-09-11T13:10:55Z</time></trkpt><trkpt lat="53.84777" lon="11.55748"><ele>28</ele><time>2012-09-11T13:10:57Z</time></trkpt><trkpt lat="53.84783" lon="11.55742"><ele>22</ele><time>2012-09-11T13:10:59Z</time></trkpt><trkpt lat="53.84790" lon="11.55740"><ele>24</ele><time>2012-09-11T13:11:01Z</time></trkpt><trkpt lat="53.84801" lon="11.55736"><ele>15</ele><time>2012-09-11T13:11:04Z</time></trkpt><trkpt lat="53.84808" lon="11.55734"><ele>16</ele><time>2012-09-11T13:11:06Z</time></trkpt><trkpt lat="53.84821" lon="11.55728"><ele>27</ele><time>2012-09-11T13:11:10Z</time></trkpt><trkpt lat="53.84827" lon="11.55723"><ele>25</ele><time>2012-09-11T13:11:12Z</time></trkpt><trkpt lat="53.84841" lon="11.55709"><ele>23</ele><time>2012-09-11T13:11:17Z</time></trkpt><trkpt lat="53.84849" lon="11.55697"><ele>25</ele><time>2012-09-11T13:11:19Z</time></trkpt><trkpt lat="53.84873" lon="11.55661"><ele>27</ele><time>2012-09-11T13:11:24Z</time></trkpt><trkpt lat="53.84875" lon="11.55657"><ele>24</ele><time>2012-09-11T13:11:25Z</time></trkpt><trkpt lat="53.84879" lon="11.55648"><ele>23</ele><time>2012-09-11T13:11:27Z</time></trkpt><trkpt lat="53.84882" lon="11.55643"><ele>23</ele><time>2012-09-11T13:11:28Z</time></trkpt><trkpt lat="53.84903" lon="11.55602"><ele>11</ele><time>2012-09-11T13:11:37Z</time></trkpt><trkpt lat="53.84905" lon="11.55597"><ele>10</ele><time>2012-09-11T13:11:38Z</time></trkpt><trkpt lat="53.84907" lon="11.55593"><ele>12</ele><time>2012-09-11T13:11:39Z</time></trkpt><trkpt lat="53.84909" lon="11.55588"><ele>12</ele><time>2012-09-11T13:11:40Z</time></trkpt><trkpt lat="53.84911" lon="11.55584"><ele>14</ele><time>2012-09-11T13:11:41Z</time></trkpt><trkpt lat="53.84950" lon="11.55511"><ele>21</ele><time>2012-09-11T13:11:54Z</time></trkpt><trkpt lat="53.84954" lon="11.55505"><ele>19</ele><time>2012-09-11T13:11:55Z</time></trkpt><trkpt lat="53.84960" lon="11.55493"><ele>20</ele><time>2012-09-11T13:11:57Z</time></trkpt><trkpt lat="53.84964" lon="11.55483"><ele>20</ele><time>2012-09-11T13:11:59Z</time></trkpt><trkpt lat="53.84969" lon="11.55471"><ele>22</ele><time>2012-09-11T13:12:01Z</time></trkpt><trkpt lat="53.84976" lon="11.55455"><ele>28</ele><time>2012-09-11T13:12:04Z</time></trkpt><trkpt lat="53.84986" lon="11.55427"><ele>30</ele><time>2012-09-11T13:12:07Z</time></trkpt><trkpt lat="53.84989" lon="11.55415"><ele>28</ele><time>2012-09-11T13:12:08Z</time></trkpt><trkpt lat="53.84996" lon="11.55394"><ele>31</ele><time>2012-09-11T13:12:10Z</time></trkpt><trkpt lat="53.85006" lon="11.55364"><ele>30</ele><time>2012-09-11T13:12:13Z</time></trkpt><trkpt lat="53.85016" lon="11.55341"><ele>25</ele><time>2012-09-11T13:12:16Z</time></trkpt><trkpt lat="53.85021" lon="11.55335"><ele>26</ele><time>2012-09-11T13:12:17Z</time></trkpt><trkpt lat="53.85026" lon="11.55330"><ele>25</ele><time>2012-09-11T13:12:18Z</time></trkpt><trkpt lat="53.85031" lon="11.55325"><ele>23</ele><time>2012-09-11T13:12:19Z</time></trkpt><trkpt lat="53.85036" lon="11.55322"><ele>21</ele><time>2012-09-11T13:12:20Z</time></trkpt><trkpt lat="53.85071" lon="11.55298"><ele>13</ele><time>2012-09-11T13:12:28Z</time></trkpt><trkpt lat="53.85077" lon="11.55289"><ele>14</ele><time>2012-09-11T13:12:30Z</time></trkpt><trkpt lat="53.85083" lon="11.55278"><ele>18</ele><time>2012-09-11T13:12:32Z</time></trkpt><trkpt lat="53.85091" lon="11.55262"><ele>14</ele><time>2012-09-11T13:12:35Z</time></trkpt><trkpt lat="53.85094" lon="11.55255"><ele>17</ele><time>2012-09-11T13:12:36Z</time></trkpt><trkpt lat="53.85096" lon="11.55248"><ele>19</ele><time>2012-09-11T13:12:37Z</time></trkpt><trkpt lat="53.85098" lon="11.55243"><ele>20</ele><time>2012-09-11T13:12:38Z</time></trkpt><trkpt lat="53.85099" lon="11.55237"><ele>19</ele><time>2012-09-11T13:12:39Z</time></trkpt><trkpt lat="53.85105" lon="11.55210"><ele>18</ele><time>2012-09-11T13:12:43Z</time></trkpt><trkpt lat="53.85109" lon="11.55188"><ele>15</ele><time>2012-09-11T13:12:46Z</time></trkpt><trkpt lat="53.85116" lon="11.55146"><ele>14</ele><time>2012-09-11T13:12:52Z</time></trkpt><trkpt lat="53.85116" lon="11.55139"><ele>15</ele><time>2012-09-11T13:12:53Z</time></trkpt><trkpt lat="53.85115" lon="11.55095"><ele>14</ele><time>2012-09-11T13:12:59Z</time></trkpt><trkpt lat="53.85115" lon="11.55086"><ele>14</ele><time>2012-09-11T13:13:00Z</time></trkpt><trkpt lat="53.85108" lon="11.55024"><ele>14</ele><time>2012-09-11T13:13:08Z</time></trkpt><trkpt lat="53.85107" lon="11.55017"><ele>14</ele><time>2012-09-11T13:13:09Z</time></trkpt><trkpt lat="53.85099" lon="11.54977"><ele>11</ele><time>2012-09-11T13:13:15Z</time></trkpt><trkpt lat="53.85098" lon="11.54971"><ele>12</ele><time>2012-09-11T13:13:16Z</time></trkpt><trkpt lat="53.85094" lon="11.54954"><ele>14</ele><time>2012-09-11T13:13:19Z</time></trkpt><trkpt lat="53.85092" lon="11.54939"><ele>14</ele><time>2012-09-11T13:13:22Z</time></trkpt><trkpt lat="53.85091" lon="11.54930"><ele>15</ele><time>2012-09-11T13:13:24Z</time></trkpt><trkpt lat="53.85090" lon="11.54921"><ele>13</ele><time>2012-09-11T13:13:27Z</time></trkpt><trkpt lat="53.85089" lon="11.54917"><ele>14</ele><time>2012-09-11T13:13:28Z</time></trkpt><trkpt lat="53.85088" lon="11.54913"><ele>15</ele><time>2012-09-11T13:13:29Z</time></trkpt><trkpt lat="53.85088" lon="11.54904"><ele>17</ele><time>2012-09-11T13:13:31Z</time></trkpt><trkpt lat="53.85088" lon="11.54874"><ele>15</ele><time>2012-09-11T13:13:36Z</time></trkpt><trkpt lat="53.85088" lon="11.54861"><ele>18</ele><time>2012-09-11T13:13:38Z</time></trkpt><trkpt lat="53.85089" lon="11.54845"><ele>19</ele><time>2012-09-11T13:13:41Z</time></trkpt><trkpt lat="53.85088" lon="11.54839"><ele>17</ele><time>2012-09-11T13:13:42Z</time></trkpt><trkpt lat="53.85088" lon="11.54834"><ele>17</ele><time>2012-09-11T13:13:43Z</time></trkpt><trkpt lat="53.85088" lon="11.54828"><ele>18</ele><time>2012-09-11T13:13:44Z</time></trkpt><trkpt lat="53.85088" lon="11.54821"><ele>21</ele><time>2012-09-11T13:13:45Z</time></trkpt><trkpt lat="53.85089" lon="11.54815"><ele>21</ele><time>2012-09-11T13:13:46Z</time></trkpt><trkpt lat="53.85089" lon="11.54809"><ele>21</ele><time>2012-09-11T13:13:47Z</time></trkpt><trkpt lat="53.85089" lon="11.54791"><ele>22</ele><time>2012-09-11T13:13:50Z</time></trkpt><trkpt lat="53.85089" lon="11.54785"><ele>24</ele><time>2012-09-11T13:13:51Z</time></trkpt><trkpt lat="53.85089" lon="11.54779"><ele>23</ele><time>2012-09-11T13:13:52Z</time></trkpt><trkpt lat="53.85088" lon="11.54724"><ele>24</ele><time>2012-09-11T13:14:02Z</time></trkpt><trkpt lat="53.85088" lon="11.54719"><ele>24</ele><time>2012-09-11T13:14:03Z</time></trkpt><trkpt lat="53.85088" lon="11.54713"><ele>25</ele><time>2012-09-11T13:14:04Z</time></trkpt><trkpt lat="53.85088" lon="11.54707"><ele>25</ele><time>2012-09-11T13:14:05Z</time></trkpt><trkpt lat="53.85089" lon="11.54691"><ele>24</ele><time>2012-09-11T13:14:08Z</time></trkpt><trkpt lat="53.85090" lon="11.54686"><ele>24</ele><time>2012-09-11T13:14:09Z</time></trkpt><trkpt lat="53.85091" lon="11.54675"><ele>23</ele><time>2012-09-11T13:14:11Z</time></trkpt><trkpt lat="53.85101" lon="11.54541"><ele>20</ele><time>2012-09-11T13:14:27Z</time></trkpt><trkpt lat="53.85105" lon="11.54486"><ele>21</ele><time>2012-09-11T13:14:33Z</time></trkpt><trkpt lat="53.85107" lon="11.54478"><ele>24</ele><time>2012-09-11T13:14:34Z</time></trkpt><trkpt lat="53.85110" lon="11.54458"><ele>24</ele><time>2012-09-11T13:14:37Z</time></trkpt><trkpt lat="53.85111" lon="11.54447"><ele>24</ele><time>2012-09-11T13:14:39Z</time></trkpt><trkpt lat="53.85113" lon="11.54432"><ele>26</ele><time>2012-09-11T13:14:42Z</time></trkpt><trkpt lat="53.85122" lon="11.54368"><ele>32</ele><time>2012-09-11T13:14:53Z</time></trkpt><trkpt lat="53.85123" lon="11.54347"><ele>35</ele><time>2012-09-11T13:14:56Z</time></trkpt><trkpt lat="53.85124" lon="11.54326"><ele>34</ele><time>2012-09-11T13:14:59Z</time></trkpt><trkpt lat="53.85124" lon="11.54317"><ele>37</ele><time>2012-09-11T13:15:00Z</time></trkpt><trkpt lat="53.85127" lon="11.54285"><ele>35</ele><time>2012-09-11T13:15:04Z</time></trkpt><trkpt lat="53.85127" lon="11.54277"><ele>35</ele><time>2012-09-11T13:15:05Z</time></trkpt><trkpt lat="53.85129" lon="11.54253"><ele>32</ele><time>2012-09-11T13:15:09Z</time></trkpt><trkpt lat="53.85131" lon="11.54236"><ele>31</ele><time>2012-09-11T13:15:10Z</time></trkpt><trkpt lat="53.85135" lon="11.54200"><ele>28</ele><time>2012-09-11T13:15:14Z</time></trkpt><trkpt lat="53.85136" lon="11.54182"><ele>26</ele><time>2012-09-11T13:15:16Z</time></trkpt><trkpt lat="53.85138" lon="11.54165"><ele>26</ele><time>2012-09-11T13:15:18Z</time></trkpt><trkpt lat="53.85141" lon="11.54142"><ele>24</ele><time>2012-09-11T13:15:21Z</time></trkpt><trkpt lat="53.85157" lon="11.53995"><ele>24</ele><time>2012-09-11T13:15:40Z</time></trkpt><trkpt lat="53.85167" lon="11.53892"><ele>33</ele><time>2012-09-11T13:15:52Z</time></trkpt><trkpt lat="53.85169" lon="11.53877"><ele>30</ele><time>2012-09-11T13:15:54Z</time></trkpt><trkpt lat="53.85170" lon="11.53870"><ele>30</ele><time>2012-09-11T13:15:55Z</time></trkpt><trkpt lat="53.85172" lon="11.53849"><ele>24</ele><time>2012-09-11T13:15:58Z</time></trkpt><trkpt lat="53.85176" lon="11.53807"><ele>23</ele><time>2012-09-11T13:16:04Z</time></trkpt><trkpt lat="53.85176" lon="11.53798"><ele>23</ele><time>2012-09-11T13:16:05Z</time></trkpt><trkpt lat="53.85176" lon="11.53791"><ele>23</ele><time>2012-09-11T13:16:06Z</time></trkpt><trkpt lat="53.85182" lon="11.53720"><ele>18</ele><time>2012-09-11T13:16:14Z</time></trkpt><trkpt lat="53.85183" lon="11.53710"><ele>18</ele><time>2012-09-11T13:16:15Z</time></trkpt><trkpt lat="53.85189" lon="11.53654"><ele>17</ele><time>2012-09-11T13:16:21Z</time></trkpt><trkpt lat="53.85191" lon="11.53648"><ele>16</ele><time>2012-09-11T13:16:22Z</time></trkpt><trkpt lat="53.85194" lon="11.53625"><ele>16</ele><time>2012-09-11T13:16:25Z</time></trkpt><trkpt lat="53.85195" lon="11.53616"><ele>15</ele><time>2012-09-11T13:16:26Z</time></trkpt><trkpt lat="53.85200" lon="11.53467"><ele>12</ele><time>2012-09-11T13:16:48Z</time></trkpt><trkpt lat="53.85207" lon="11.53381"><ele>18</ele><time>2012-09-11T13:17:00Z</time></trkpt><trkpt lat="53.85209" lon="11.53368"><ele>19</ele><time>2012-09-11T13:17:02Z</time></trkpt><trkpt lat="53.85212" lon="11.53340"><ele>20</ele><time>2012-09-11T13:17:06Z</time></trkpt><trkpt lat="53.85213" lon="11.53333"><ele>20</ele><time>2012-09-11T13:17:07Z</time></trkpt><trkpt lat="53.85213" lon="11.53327"><ele>19</ele><time>2012-09-11T13:17:08Z</time></trkpt><trkpt lat="53.85214" lon="11.53320"><ele>17</ele><time>2012-09-11T13:17:09Z</time></trkpt><trkpt lat="53.85217" lon="11.53289"><ele>19</ele><time>2012-09-11T13:17:14Z</time></trkpt><trkpt lat="53.85218" lon="11.53281"><ele>25</ele><time>2012-09-11T13:17:15Z</time></trkpt><trkpt lat="53.85221" lon="11.53264"><ele>20</ele><time>2012-09-11T13:17:18Z</time></trkpt><trkpt lat="53.85222" lon="11.53251"><ele>17</ele><time>2012-09-11T13:17:20Z</time></trkpt><trkpt lat="53.85226" lon="11.53215"><ele>8</ele><time>2012-09-11T13:17:28Z</time></trkpt><trkpt lat="53.85227" lon="11.53207"><ele>10</ele><time>2012-09-11T13:17:30Z</time></trkpt><trkpt lat="53.85228" lon="11.53201"><ele>12</ele><time>2012-09-11T13:17:31Z</time></trkpt><trkpt lat="53.85230" lon="11.53181"><ele>21</ele><time>2012-09-11T13:17:35Z</time></trkpt><trkpt lat="53.85230" lon="11.53167"><ele>21</ele><time>2012-09-11T13:17:38Z</time></trkpt><trkpt lat="53.85230" lon="11.53162"><ele>20</ele><time>2012-09-11T13:17:39Z</time></trkpt><trkpt lat="53.85230" lon="11.53158"><ele>21</ele><time>2012-09-11T13:17:40Z</time></trkpt><trkpt lat="53.85230" lon="11.53153"><ele>20</ele><time>2012-09-11T13:17:41Z</time></trkpt><trkpt lat="53.85229" lon="11.53137"><ele>23</ele><time>2012-09-11T13:17:45Z</time></trkpt><trkpt lat="53.85230" lon="11.53124"><ele>22</ele><time>2012-09-11T13:17:48Z</time></trkpt><trkpt lat="53.85231" lon="11.53118"><ele>24</ele><time>2012-09-11T13:17:49Z</time></trkpt><trkpt lat="53.85232" lon="11.53107"><ele>24</ele><time>2012-09-11T13:17:51Z</time></trkpt><trkpt lat="53.85233" lon="11.53089"><ele>27</ele><time>2012-09-11T13:17:55Z</time></trkpt><trkpt lat="53.85234" lon="11.53083"><ele>23</ele><time>2012-09-11T13:17:56Z</time></trkpt><trkpt lat="53.85236" lon="11.53066"><ele>17</ele><time>2012-09-11T13:17:59Z</time></trkpt><trkpt lat="53.85236" lon="11.53061"><ele>19</ele><time>2012-09-11T13:18:00Z</time></trkpt><trkpt lat="53.85240" lon="11.53004"><ele>17</ele><time>2012-09-11T13:18:09Z</time></trkpt><trkpt lat="53.85240" lon="11.52996"><ele>18</ele><time>2012-09-11T13:18:10Z</time></trkpt><trkpt lat="53.85238" lon="11.52951"><ele>17</ele><time>2012-09-11T13:18:16Z</time></trkpt><trkpt lat="53.85238" lon="11.52944"><ele>17</ele><time>2012-09-11T13:18:17Z</time></trkpt><trkpt lat="53.85235" lon="11.52888"><ele>19</ele><time>2012-09-11T13:18:24Z</time></trkpt><trkpt lat="53.85235" lon="11.52880"><ele>18</ele><time>2012-09-11T13:18:25Z</time></trkpt><trkpt lat="53.85234" lon="11.52864"><ele>18</ele><time>2012-09-11T13:18:27Z</time></trkpt><trkpt lat="53.85234" lon="11.52856"><ele>18</ele><time>2012-09-11T13:18:28Z</time></trkpt><trkpt lat="53.85232" lon="11.52816"><ele>16</ele><time>2012-09-11T13:18:33Z</time></trkpt><trkpt lat="53.85232" lon="11.52809"><ele>16</ele><time>2012-09-11T13:18:34Z</time></trkpt><trkpt lat="53.85231" lon="11.52790"><ele>16</ele><time>2012-09-11T13:18:36Z</time></trkpt><trkpt lat="53.85228" lon="11.52731"><ele>13</ele><time>2012-09-11T13:18:44Z</time></trkpt><trkpt lat="53.85227" lon="11.52723"><ele>11</ele><time>2012-09-11T13:18:45Z</time></trkpt><trkpt lat="53.85215" lon="11.52573"><ele>16</ele><time>2012-09-11T13:19:08Z</time></trkpt><trkpt lat="53.85213" lon="11.52567"><ele>11</ele><time>2012-09-11T13:19:10Z</time></trkpt><trkpt lat="53.85212" lon="11.52561"><ele>16</ele><time>2012-09-11T13:19:11Z</time></trkpt><trkpt lat="53.85211" lon="11.52557"><ele>17</ele><time>2012-09-11T13:19:12Z</time></trkpt><trkpt lat="53.85211" lon="11.52552"><ele>17</ele><time>2012-09-11T13:19:13Z</time></trkpt><trkpt lat="53.85211" lon="11.52535"><ele>9</ele><time>2012-09-11T13:19:38Z</time></trkpt><trkpt lat="53.85211" lon="11.52528"><ele>12</ele><time>2012-09-11T13:19:40Z</time></trkpt><trkpt lat="53.85211" lon="11.52524"><ele>13</ele><time>2012-09-11T13:19:41Z</time></trkpt><trkpt lat="53.85212" lon="11.52519"><ele>15</ele><time>2012-09-11T13:19:42Z</time></trkpt><trkpt lat="53.85213" lon="11.52513"><ele>16</ele><time>2012-09-11T13:19:43Z</time></trkpt><trkpt lat="53.85217" lon="11.52496"><ele>20</ele><time>2012-09-11T13:19:46Z</time></trkpt><trkpt lat="53.85219" lon="11.52491"><ele>19</ele><time>2012-09-11T13:19:47Z</time></trkpt><trkpt lat="53.85235" lon="11.52434"><ele>15</ele><time>2012-09-11T13:19:57Z</time></trkpt><trkpt lat="53.85237" lon="11.52428"><ele>15</ele><time>2012-09-11T13:19:58Z</time></trkpt><trkpt lat="53.85264" lon="11.52312"><ele>13</ele><time>2012-09-11T13:20:17Z</time></trkpt><trkpt lat="53.85268" lon="11.52301"><ele>13</ele><time>2012-09-11T13:20:18Z</time></trkpt><trkpt lat="53.85270" lon="11.52295"><ele>14</ele><time>2012-09-11T13:20:19Z</time></trkpt><trkpt lat="53.85272" lon="11.52288"><ele>17</ele><time>2012-09-11T13:20:20Z</time></trkpt><trkpt lat="53.85276" lon="11.52273"><ele>15</ele><time>2012-09-11T13:20:23Z</time></trkpt><trkpt lat="53.85280" lon="11.52264"><ele>13</ele><time>2012-09-11T13:20:25Z</time></trkpt><trkpt lat="53.85288" lon="11.52243"><ele>21</ele><time>2012-09-11T13:20:29Z</time></trkpt><trkpt lat="53.85292" lon="11.52232"><ele>21</ele><time>2012-09-11T13:20:31Z</time></trkpt><trkpt lat="53.85299" lon="11.52220"><ele>19</ele><time>2012-09-11T13:20:34Z</time></trkpt><trkpt lat="53.85301" lon="11.52216"><ele>18</ele><time>2012-09-11T13:20:35Z</time></trkpt><trkpt lat="53.85308" lon="11.52206"><ele>18</ele><time>2012-09-11T13:20:38Z</time></trkpt><trkpt lat="53.85311" lon="11.52203"><ele>17</ele><time>2012-09-11T13:20:39Z</time></trkpt><trkpt lat="53.85314" lon="11.52200"><ele>18</ele><time>2012-09-11T13:20:40Z</time></trkpt><trkpt lat="53.85322" lon="11.52195"><ele>14</ele><time>2012-09-11T13:20:43Z</time></trkpt><trkpt lat="53.85325" lon="11.52195"><ele>13</ele><time>2012-09-11T13:20:44Z</time></trkpt><trkpt lat="53.85380" lon="11.52192"><ele>22</ele><time>2012-09-11T13:21:00Z</time></trkpt><trkpt lat="53.85384" lon="11.52191"><ele>24</ele><time>2012-09-11T13:21:01Z</time></trkpt><trkpt lat="53.85396" lon="11.52188"><ele>23</ele><time>2012-09-11T13:21:04Z</time></trkpt><trkpt lat="53.85399" lon="11.52186"><ele>23</ele><time>2012-09-11T13:21:05Z</time></trkpt><trkpt lat="53.85409" lon="11.52178"><ele>21</ele><time>2012-09-11T13:21:08Z</time></trkpt><trkpt lat="53.85412" lon="11.52175"><ele>21</ele><time>2012-09-11T13:21:09Z</time></trkpt><trkpt lat="53.85421" lon="11.52168"><ele>18</ele><time>2012-09-11T13:21:12Z</time></trkpt><trkpt lat="53.85424" lon="11.52168"><ele>17</ele><time>2012-09-11T13:21:13Z</time></trkpt><trkpt lat="53.85428" lon="11.52169"><ele>18</ele><time>2012-09-11T13:21:14Z</time></trkpt><trkpt lat="53.85435" lon="11.52173"><ele>17</ele><time>2012-09-11T13:21:16Z</time></trkpt><trkpt lat="53.85439" lon="11.52176"><ele>17</ele><time>2012-09-11T13:21:17Z</time></trkpt><trkpt lat="53.85441" lon="11.52179"><ele>16</ele><time>2012-09-11T13:21:18Z</time></trkpt><trkpt lat="53.85444" lon="11.52182"><ele>16</ele><time>2012-09-11T13:21:19Z</time></trkpt><trkpt lat="53.85446" lon="11.52186"><ele>7</ele><time>2012-09-11T13:21:32Z</time></trkpt><trkpt lat="53.85449" lon="11.52186"><ele>21</ele><time>2012-09-11T13:21:54Z</time></trkpt><trkpt lat="53.85452" lon="11.52189"><ele>20</ele><time>2012-09-11T13:21:55Z</time></trkpt><trkpt lat="53.85462" lon="11.52198"><ele>20</ele><time>2012-09-11T13:21:59Z</time></trkpt><trkpt lat="53.85465" lon="11.52200"><ele>19</ele><time>2012-09-11T13:22:00Z</time></trkpt><trkpt lat="53.85473" lon="11.52208"><ele>16</ele><time>2012-09-11T13:22:03Z</time></trkpt><trkpt lat="53.85478" lon="11.52210"><ele>17</ele><time>2012-09-11T13:22:05Z</time></trkpt><trkpt lat="53.85474" lon="11.52206"><ele>16</ele><time>2012-09-11T13:22:08Z</time></trkpt><trkpt lat="53.85470" lon="11.52206"><ele>11</ele><time>2012-09-11T13:22:10Z</time></trkpt><trkpt lat="53.85468" lon="11.52206"><ele>10</ele><time>2012-09-11T13:22:11Z</time></trkpt><trkpt lat="53.85464" lon="11.52206"><ele>11</ele><time>2012-09-11T13:22:13Z</time></trkpt><trkpt lat="53.85459" lon="11.52206"><ele>14</ele><time>2012-09-11T13:22:16Z</time></trkpt><trkpt lat="53.85457" lon="11.52208"><ele>15</ele><time>2012-09-11T13:22:18Z</time></trkpt><trkpt lat="53.85459" lon="11.52207"><ele>20</ele><time>2012-09-11T13:22:23Z</time></trkpt><trkpt lat="53.85462" lon="11.52206"><ele>20</ele><time>2012-09-11T13:22:27Z</time></trkpt><trkpt lat="53.85464" lon="11.52208"><ele>20</ele><time>2012-09-11T13:22:30Z</time></trkpt><trkpt lat="53.85466" lon="11.52210"><ele>22</ele><time>2012-09-11T13:22:34Z</time></trkpt><trkpt lat="53.85468" lon="11.52210"><ele>18</ele><time>2012-09-11T13:22:37Z</time></trkpt><trkpt lat="53.85473" lon="11.52209"><ele>18</ele><time>2012-09-11T13:22:43Z</time></trkpt><trkpt lat="53.85476" lon="11.52213"><ele>17</ele><time>2012-09-11T13:22:45Z</time></trkpt><trkpt lat="53.85535" lon="11.52281"><ele>12</ele><time>2012-09-11T13:23:04Z</time></trkpt><trkpt lat="53.85542" lon="11.52291"><ele>14</ele><time>2012-09-11T13:23:06Z</time></trkpt><trkpt lat="53.85559" lon="11.52316"><ele>14</ele><time>2012-09-11T13:23:11Z</time></trkpt><trkpt lat="53.85565" lon="11.52326"><ele>14</ele><time>2012-09-11T13:23:13Z</time></trkpt><trkpt lat="53.85608" lon="11.52398"><ele>11</ele><time>2012-09-11T13:23:26Z</time></trkpt><trkpt lat="53.85615" lon="11.52409"><ele>10</ele><time>2012-09-11T13:23:28Z</time></trkpt><trkpt lat="53.85625" lon="11.52422"><ele>10</ele><time>2012-09-11T13:23:31Z</time></trkpt><trkpt lat="53.85628" lon="11.52426"><ele>11</ele><time>2012-09-11T13:23:32Z</time></trkpt><trkpt lat="53.85636" lon="11.52437"><ele>11</ele><time>2012-09-11T13:23:35Z</time></trkpt><trkpt lat="53.85638" lon="11.52441"><ele>11</ele><time>2012-09-11T13:23:36Z</time></trkpt><trkpt lat="53.85641" lon="11.52445"><ele>10</ele><time>2012-09-11T13:23:37Z</time></trkpt><trkpt lat="53.85650" lon="11.52457"><ele>10</ele><time>2012-09-11T13:23:40Z</time></trkpt><trkpt lat="53.85653" lon="11.52461"><ele>10</ele><time>2012-09-11T13:23:41Z</time></trkpt><trkpt lat="53.85663" lon="11.52469"><ele>10</ele><time>2012-09-11T13:23:44Z</time></trkpt><trkpt lat="53.85669" lon="11.52474"><ele>10</ele><time>2012-09-11T13:23:46Z</time></trkpt><trkpt lat="53.85690" lon="11.52485"><ele>13</ele><time>2012-09-11T13:23:52Z</time></trkpt><trkpt lat="53.85693" lon="11.52487"><ele>15</ele><time>2012-09-11T13:23:53Z</time></trkpt><trkpt lat="53.85722" lon="11.52502"><ele>13</ele><time>2012-09-11T13:24:02Z</time></trkpt><trkpt lat="53.85725" lon="11.52505"><ele>14</ele><time>2012-09-11T13:24:03Z</time></trkpt><trkpt lat="53.85728" lon="11.52507"><ele>13</ele><time>2012-09-11T13:24:04Z</time></trkpt><trkpt lat="53.85737" lon="11.52513"><ele>16</ele><time>2012-09-11T13:24:07Z</time></trkpt><trkpt lat="53.85743" lon="11.52517"><ele>16</ele><time>2012-09-11T13:24:09Z</time></trkpt><trkpt lat="53.85752" lon="11.52523"><ele>18</ele><time>2012-09-11T13:24:12Z</time></trkpt><trkpt lat="53.85763" lon="11.52529"><ele>18</ele><time>2012-09-11T13:24:15Z</time></trkpt><trkpt lat="53.85775" lon="11.52536"><ele>18</ele><time>2012-09-11T13:24:18Z</time></trkpt><trkpt lat="53.85781" lon="11.52541"><ele>17</ele><time>2012-09-11T13:24:20Z</time></trkpt><trkpt lat="53.85793" lon="11.52549"><ele>15</ele><time>2012-09-11T13:24:24Z</time></trkpt><trkpt lat="53.85796" lon="11.52553"><ele>17</ele><time>2012-09-11T13:24:25Z</time></trkpt><trkpt lat="53.85806" lon="11.52564"><ele>18</ele><time>2012-09-11T13:24:29Z</time></trkpt><trkpt lat="53.85814" lon="11.52575"><ele>20</ele><time>2012-09-11T13:24:32Z</time></trkpt><trkpt lat="53.85814" lon="11.52580"><ele>18</ele><time>2012-09-11T13:24:33Z</time></trkpt><trkpt lat="53.85813" lon="11.52584"><ele>18</ele><time>2012-09-11T13:24:34Z</time></trkpt><trkpt lat="53.85813" lon="11.52598"><ele>23</ele><time>2012-09-11T13:24:37Z</time></trkpt><trkpt lat="53.85814" lon="11.52603"><ele>20</ele><time>2012-09-11T13:24:38Z</time></trkpt><trkpt lat="53.85817" lon="11.52618"><ele>16</ele><time>2012-09-11T13:24:41Z</time></trkpt><trkpt lat="53.85818" lon="11.52622"><ele>18</ele><time>2012-09-11T13:24:42Z</time></trkpt><trkpt lat="53.85819" lon="11.52626"><ele>17</ele><time>2012-09-11T13:24:43Z</time></trkpt><trkpt lat="53.85820" lon="11.52630"><ele>17</ele><time>2012-09-11T13:24:44Z</time></trkpt><trkpt lat="53.85824" lon="11.52648"><ele>18</ele><time>2012-09-11T13:24:48Z</time></trkpt><trkpt lat="53.85827" lon="11.52658"><ele>20</ele><time>2012-09-11T13:24:50Z</time></trkpt><trkpt lat="53.85828" lon="11.52662"><ele>21</ele><time>2012-09-11T13:24:51Z</time></trkpt><trkpt lat="53.85829" lon="11.52666"><ele>21</ele><time>2012-09-11T13:24:52Z</time></trkpt><trkpt lat="53.85831" lon="11.52671"><ele>21</ele><time>2012-09-11T13:24:53Z</time></trkpt><trkpt lat="53.85835" lon="11.52687"><ele>23</ele><time>2012-09-11T13:24:56Z</time></trkpt><trkpt lat="53.85836" lon="11.52691"><ele>22</ele><time>2012-09-11T13:24:57Z</time></trkpt><trkpt lat="53.85837" lon="11.52695"><ele>21</ele><time>2012-09-11T13:24:58Z</time></trkpt><trkpt lat="53.85838" lon="11.52700"><ele>22</ele><time>2012-09-11T13:24:59Z</time></trkpt><trkpt lat="53.85842" lon="11.52715"><ele>22</ele><time>2012-09-11T13:25:02Z</time></trkpt><trkpt lat="53.85844" lon="11.52720"><ele>23</ele><time>2012-09-11T13:25:03Z</time></trkpt><trkpt lat="53.85846" lon="11.52725"><ele>24</ele><time>2012-09-11T13:25:04Z</time></trkpt><trkpt lat="53.85849" lon="11.52735"><ele>24</ele><time>2012-09-11T13:25:06Z</time></trkpt><trkpt lat="53.85854" lon="11.52751"><ele>22</ele><time>2012-09-11T13:25:09Z</time></trkpt><trkpt lat="53.85856" lon="11.52757"><ele>22</ele><time>2012-09-11T13:25:10Z</time></trkpt><trkpt lat="53.85858" lon="11.52765"><ele>20</ele><time>2012-09-11T13:25:11Z</time></trkpt><trkpt lat="53.85859" lon="11.52771"><ele>20</ele><time>2012-09-11T13:25:12Z</time></trkpt><trkpt lat="53.85863" lon="11.52788"><ele>14</ele><time>2012-09-11T13:25:14Z</time></trkpt><trkpt lat="53.85879" lon="11.52847"><ele>19</ele><time>2012-09-11T13:25:20Z</time></trkpt><trkpt lat="53.85882" lon="11.52858"><ele>16</ele><time>2012-09-11T13:25:21Z</time></trkpt><trkpt lat="53.85918" lon="11.52975"><ele>14</ele><time>2012-09-11T13:25:31Z</time></trkpt><trkpt lat="53.85932" lon="11.53024"><ele>9</ele><time>2012-09-11T13:25:35Z</time></trkpt><trkpt lat="53.85938" lon="11.53049"><ele>9</ele><time>2012-09-11T13:25:37Z</time></trkpt><trkpt lat="53.85940" lon="11.53061"><ele>7</ele><time>2012-09-11T13:25:38Z</time></trkpt><trkpt lat="53.85943" lon="11.53085"><ele>12</ele><time>2012-09-11T13:25:40Z</time></trkpt><trkpt lat="53.85944" lon="11.53094"><ele>11</ele><time>2012-09-11T13:25:41Z</time></trkpt><trkpt lat="53.85947" lon="11.53130"><ele>19</ele><time>2012-09-11T13:25:45Z</time></trkpt><trkpt lat="53.85952" lon="11.53162"><ele>14</ele><time>2012-09-11T13:25:49Z</time></trkpt><trkpt lat="53.85955" lon="11.53175"><ele>15</ele><time>2012-09-11T13:25:51Z</time></trkpt><trkpt lat="53.85962" lon="11.53201"><ele>15</ele><time>2012-09-11T13:25:55Z</time></trkpt><trkpt lat="53.85963" lon="11.53205"><ele>15</ele><time>2012-09-11T13:25:56Z</time></trkpt><trkpt lat="53.85976" lon="11.53284"><ele>12</ele><time>2012-09-11T13:26:13Z</time></trkpt><trkpt lat="53.85976" lon="11.53289"><ele>10</ele><time>2012-09-11T13:26:14Z</time></trkpt><trkpt lat="53.85977" lon="11.53293"><ele>11</ele><time>2012-09-11T13:26:15Z</time></trkpt><trkpt lat="53.85979" lon="11.53310"><ele>11</ele><time>2012-09-11T13:26:19Z</time></trkpt><trkpt lat="53.85980" lon="11.53316"><ele>15</ele><time>2012-09-11T13:26:20Z</time></trkpt><trkpt lat="53.85981" lon="11.53322"><ele>18</ele><time>2012-09-11T13:26:22Z</time></trkpt><trkpt lat="53.85990" lon="11.53357"><ele>22</ele><time>2012-09-11T13:26:30Z</time></trkpt><trkpt lat="53.85994" lon="11.53370"><ele>20</ele><time>2012-09-11T13:26:33Z</time></trkpt><trkpt lat="53.86005" lon="11.53401"><ele>20</ele><time>2012-09-11T13:26:42Z</time></trkpt><trkpt lat="53.86006" lon="11.53404"><ele>21</ele><time>2012-09-11T13:26:43Z</time></trkpt><trkpt lat="53.86007" lon="11.53407"><ele>20</ele><time>2012-09-11T13:26:44Z</time></trkpt><trkpt lat="53.86010" lon="11.53414"><ele>22</ele><time>2012-09-11T13:26:46Z</time></trkpt><trkpt lat="53.86015" lon="11.53430"><ele>24</ele><time>2012-09-11T13:26:50Z</time></trkpt><trkpt lat="53.86018" lon="11.53442"><ele>28</ele><time>2012-09-11T13:26:53Z</time></trkpt><trkpt lat="53.86018" lon="11.53446"><ele>29</ele><time>2012-09-11T13:26:54Z</time></trkpt><trkpt lat="53.86019" lon="11.53450"><ele>26</ele><time>2012-09-11T13:26:55Z</time></trkpt><trkpt lat="53.86049" lon="11.53568"><ele>9</ele><time>2012-09-11T13:27:07Z</time></trkpt><trkpt lat="53.86061" lon="11.53606"><ele>15</ele><time>2012-09-11T13:27:10Z</time></trkpt><trkpt lat="53.86087" lon="11.53680"><ele>15</ele><time>2012-09-11T13:27:16Z</time></trkpt><trkpt lat="53.86091" lon="11.53693"><ele>14</ele><time>2012-09-11T13:27:17Z</time></trkpt><trkpt lat="53.86122" lon="11.53793"><ele>8</ele><time>2012-09-11T13:27:24Z</time></trkpt><trkpt lat="53.86128" lon="11.53808"><ele>8</ele><time>2012-09-11T13:27:25Z</time></trkpt><trkpt lat="53.86139" lon="11.53832"><ele>10</ele><time>2012-09-11T13:27:27Z</time></trkpt><trkpt lat="53.86145" lon="11.53842"><ele>12</ele><time>2012-09-11T13:27:28Z</time></trkpt><trkpt lat="53.86157" lon="11.53860"><ele>14</ele><time>2012-09-11T13:27:30Z</time></trkpt><trkpt lat="53.86163" lon="11.53867"><ele>10</ele><time>2012-09-11T13:27:31Z</time></trkpt><trkpt lat="53.86169" lon="11.53873"><ele>10</ele><time>2012-09-11T13:27:32Z</time></trkpt><trkpt lat="53.86188" lon="11.53886"><ele>5</ele><time>2012-09-11T13:27:35Z</time></trkpt><trkpt lat="53.86199" lon="11.53894"><ele>7</ele><time>2012-09-11T13:27:37Z</time></trkpt><trkpt lat="53.86248" lon="11.53922"><ele>8</ele><time>2012-09-11T13:27:47Z</time></trkpt><trkpt lat="53.86253" lon="11.53924"><ele>8</ele><time>2012-09-11T13:27:49Z</time></trkpt><trkpt lat="53.86259" lon="11.53927"><ele>8</ele><time>2012-09-11T13:27:51Z</time></trkpt><trkpt lat="53.86262" lon="11.53929"><ele>10</ele><time>2012-09-11T13:27:52Z</time></trkpt><trkpt lat="53.86265" lon="11.53931"><ele>9</ele><time>2012-09-11T13:27:53Z</time></trkpt><trkpt lat="53.86274" lon="11.53938"><ele>8</ele><time>2012-09-11T13:27:56Z</time></trkpt><trkpt lat="53.86285" lon="11.53949"><ele>9</ele><time>2012-09-11T13:27:59Z</time></trkpt><trkpt lat="53.86288" lon="11.53954"><ele>11</ele><time>2012-09-11T13:28:00Z</time></trkpt><trkpt lat="53.86293" lon="11.53961"><ele>10</ele><time>2012-09-11T13:28:02Z</time></trkpt><trkpt lat="53.86299" lon="11.53974"><ele>11</ele><time>2012-09-11T13:28:06Z</time></trkpt><trkpt lat="53.86301" lon="11.53978"><ele>17</ele><time>2012-09-11T13:28:08Z</time></trkpt><trkpt lat="53.86303" lon="11.53983"><ele>18</ele><time>2012-09-11T13:28:10Z</time></trkpt><trkpt lat="53.86309" lon="11.53985"><ele>17</ele><time>2012-09-11T13:28:13Z</time></trkpt><trkpt lat="53.86316" lon="11.53990"><ele>13</ele><time>2012-09-11T13:28:16Z</time></trkpt><trkpt lat="53.86318" lon="11.53992"><ele>12</ele><time>2012-09-11T13:28:17Z</time></trkpt><trkpt lat="53.86326" lon="11.54001"><ele>13</ele><time>2012-09-11T13:28:23Z</time></trkpt><trkpt lat="53.86328" lon="11.54006"><ele>7</ele><time>2012-09-11T13:28:25Z</time></trkpt><trkpt lat="53.86332" lon="11.54014"><ele>15</ele><time>2012-09-11T13:28:28Z</time></trkpt><trkpt lat="53.86336" lon="11.54018"><ele>17</ele><time>2012-09-11T13:28:30Z</time></trkpt><trkpt lat="53.86340" lon="11.54026"><ele>14</ele><time>2012-09-11T13:28:33Z</time></trkpt><trkpt lat="53.86344" lon="11.54034"><ele>13</ele><time>2012-09-11T13:28:35Z</time></trkpt><trkpt lat="53.86352" lon="11.54049"><ele>13</ele><time>2012-09-11T13:28:38Z</time></trkpt><trkpt lat="53.86355" lon="11.54053"><ele>12</ele><time>2012-09-11T13:28:39Z</time></trkpt><trkpt lat="53.86389" lon="11.54103"><ele>12</ele><time>2012-09-11T13:28:51Z</time></trkpt><trkpt lat="53.86401" lon="11.54118"><ele>14</ele><time>2012-09-11T13:28:56Z</time></trkpt><trkpt lat="53.86403" lon="11.54122"><ele>13</ele><time>2012-09-11T13:28:57Z</time></trkpt><trkpt lat="53.86406" lon="11.54128"><ele>15</ele><time>2012-09-11T13:28:58Z</time></trkpt><trkpt lat="53.86414" lon="11.54145"><ele>13</ele><time>2012-09-11T13:29:01Z</time></trkpt><trkpt lat="53.86418" lon="11.54150"><ele>15</ele><time>2012-09-11T13:29:02Z</time></trkpt><trkpt lat="53.86426" lon="11.54164"><ele>15</ele><time>2012-09-11T13:29:05Z</time></trkpt><trkpt lat="53.86429" lon="11.54168"><ele>15</ele><time>2012-09-11T13:29:06Z</time></trkpt><trkpt lat="53.86431" lon="11.54172"><ele>14</ele><time>2012-09-11T13:29:07Z</time></trkpt><trkpt lat="53.86455" lon="11.54211"><ele>15</ele><time>2012-09-11T13:29:16Z</time></trkpt><trkpt lat="53.86457" lon="11.54214"><ele>15</ele><time>2012-09-11T13:29:17Z</time></trkpt><trkpt lat="53.86460" lon="11.54218"><ele>12</ele><time>2012-09-11T13:29:18Z</time></trkpt><trkpt lat="53.86482" lon="11.54259"><ele>8</ele><time>2012-09-11T13:29:27Z</time></trkpt><trkpt lat="53.86488" lon="11.54269"><ele>5</ele><time>2012-09-11T13:29:29Z</time></trkpt><trkpt lat="53.86496" lon="11.54282"><ele>12</ele><time>2012-09-11T13:29:32Z</time></trkpt><trkpt lat="53.86503" lon="11.54290"><ele>14</ele><time>2012-09-11T13:29:34Z</time></trkpt><trkpt lat="53.86507" lon="11.54293"><ele>12</ele><time>2012-09-11T13:29:35Z</time></trkpt><trkpt lat="53.86513" lon="11.54296"><ele>14</ele><time>2012-09-11T13:29:37Z</time></trkpt><trkpt lat="53.86526" lon="11.54302"><ele>15</ele><time>2012-09-11T13:29:40Z</time></trkpt><trkpt lat="53.86529" lon="11.54303"><ele>13</ele><time>2012-09-11T13:29:41Z</time></trkpt><trkpt lat="53.86540" lon="11.54309"><ele>16</ele><time>2012-09-11T13:29:45Z</time></trkpt><trkpt lat="53.86543" lon="11.54312"><ele>15</ele><time>2012-09-11T13:29:46Z</time></trkpt><trkpt lat="53.86548" lon="11.54318"><ele>8</ele><time>2012-09-11T13:29:49Z</time></trkpt><trkpt lat="53.86552" lon="11.54324"><ele>8</ele><time>2012-09-11T13:29:52Z</time></trkpt><trkpt lat="53.86556" lon="11.54330"><ele>16</ele><time>2012-09-11T13:29:54Z</time></trkpt><trkpt lat="53.86556" lon="11.54330"><ele>16</ele><time>2012-09-11T13:29:54Z</time></trkpt><trkpt lat="53.86561" lon="11.54340"><ele>12</ele><time>2012-09-11T13:30:01Z</time></trkpt><trkpt lat="53.86564" lon="11.54343"><ele>10</ele><time>2012-09-11T13:32:44Z</time></trkpt><trkpt lat="53.86573" lon="11.54353"><ele>14</ele><time>2012-09-11T13:32:48Z</time></trkpt><trkpt lat="53.86575" lon="11.54357"><ele>14</ele><time>2012-09-11T13:32:49Z</time></trkpt><trkpt lat="53.86594" lon="11.54396"><ele>13</ele><time>2012-09-11T13:32:58Z</time></trkpt><trkpt lat="53.86596" lon="11.54401"><ele>13</ele><time>2012-09-11T13:32:59Z</time></trkpt><trkpt lat="53.86597" lon="11.54406"><ele>13</ele><time>2012-09-11T13:33:00Z</time></trkpt><trkpt lat="53.86599" lon="11.54412"><ele>13</ele><time>2012-09-11T13:33:01Z</time></trkpt><trkpt lat="53.86600" lon="11.54417"><ele>13</ele><time>2012-09-11T13:33:02Z</time></trkpt><trkpt lat="53.86601" lon="11.54424"><ele>13</ele><time>2012-09-11T13:33:03Z</time></trkpt><trkpt lat="53.86602" lon="11.54429"><ele>15</ele><time>2012-09-11T13:33:04Z</time></trkpt><trkpt lat="53.86603" lon="11.54435"><ele>15</ele><time>2012-09-11T13:33:05Z</time></trkpt><trkpt lat="53.86606" lon="11.54455"><ele>13</ele><time>2012-09-11T13:33:08Z</time></trkpt><trkpt lat="53.86609" lon="11.54470"><ele>11</ele><time>2012-09-11T13:33:10Z</time></trkpt><trkpt lat="53.86612" lon="11.54478"><ele>10</ele><time>2012-09-11T13:33:11Z</time></trkpt><trkpt lat="53.86615" lon="11.54486"><ele>10</ele><time>2012-09-11T13:33:12Z</time></trkpt><trkpt lat="53.86621" lon="11.54502"><ele>11</ele><time>2012-09-11T13:33:14Z</time></trkpt><trkpt lat="53.86624" lon="11.54509"><ele>11</ele><time>2012-09-11T13:33:15Z</time></trkpt><trkpt lat="53.86631" lon="11.54520"><ele>11</ele><time>2012-09-11T13:33:17Z</time></trkpt><trkpt lat="53.86640" lon="11.54538"><ele>12</ele><time>2012-09-11T13:33:20Z</time></trkpt><trkpt lat="53.86654" lon="11.54570"><ele>13</ele><time>2012-09-11T13:33:26Z</time></trkpt><trkpt lat="53.86656" lon="11.54575"><ele>13</ele><time>2012-09-11T13:33:27Z</time></trkpt><trkpt lat="53.86662" lon="11.54590"><ele>13</ele><time>2012-09-11T13:33:30Z</time></trkpt><trkpt lat="53.86663" lon="11.54595"><ele>13</ele><time>2012-09-11T13:33:31Z</time></trkpt><trkpt lat="53.86665" lon="11.54599"><ele>13</ele><time>2012-09-11T13:33:32Z</time></trkpt><trkpt lat="53.86667" lon="11.54604"><ele>14</ele><time>2012-09-11T13:33:33Z</time></trkpt><trkpt lat="53.86679" lon="11.54640"><ele>14</ele><time>2012-09-11T13:33:41Z</time></trkpt><trkpt lat="53.86682" lon="11.54647"><ele>13</ele><time>2012-09-11T13:33:43Z</time></trkpt><trkpt lat="53.86686" lon="11.54661"><ele>14</ele><time>2012-09-11T13:33:47Z</time></trkpt><trkpt lat="53.86700" lon="11.54705"><ele>19</ele><time>2012-09-11T13:33:59Z</time></trkpt><trkpt lat="53.86702" lon="11.54709"><ele>18</ele><time>2012-09-11T13:34:01Z</time></trkpt><trkpt lat="53.86703" lon="11.54714"><ele>17</ele><time>2012-09-11T13:34:05Z</time></trkpt><trkpt lat="53.86704" lon="11.54717"><ele>18</ele><time>2012-09-11T13:34:10Z</time></trkpt><trkpt lat="53.86707" lon="11.54728"><ele>19</ele><time>2012-09-11T13:34:17Z</time></trkpt><trkpt lat="53.86711" lon="11.54743"><ele>18</ele><time>2012-09-11T13:34:26Z</time></trkpt><trkpt lat="53.86712" lon="11.54747"><ele>21</ele><time>2012-09-11T13:34:29Z</time></trkpt><trkpt lat="53.86713" lon="11.54752"><ele>19</ele><time>2012-09-11T13:34:32Z</time></trkpt><trkpt lat="53.86724" lon="11.54782"><ele>19</ele><time>2012-09-11T13:34:52Z</time></trkpt><trkpt lat="53.86726" lon="11.54791"><ele>23</ele><time>2012-09-11T13:34:57Z</time></trkpt><trkpt lat="53.86728" lon="11.54796"><ele>22</ele><time>2012-09-11T13:35:00Z</time></trkpt><trkpt lat="53.86729" lon="11.54801"><ele>23</ele><time>2012-09-11T13:35:03Z</time></trkpt><trkpt lat="53.86734" lon="11.54816"><ele>26</ele><time>2012-09-11T13:35:12Z</time></trkpt><trkpt lat="53.86738" lon="11.54828"><ele>25</ele><time>2012-09-11T13:35:17Z</time></trkpt><trkpt lat="53.86751" lon="11.54861"><ele>26</ele><time>2012-09-11T13:35:27Z</time></trkpt><trkpt lat="53.86752" lon="11.54864"><ele>26</ele><time>2012-09-11T13:35:28Z</time></trkpt><trkpt lat="53.86753" lon="11.54868"><ele>26</ele><time>2012-09-11T13:35:29Z</time></trkpt><trkpt lat="53.86755" lon="11.54871"><ele>26</ele><time>2012-09-11T13:35:30Z</time></trkpt><trkpt lat="53.86760" lon="11.54886"><ele>26</ele><time>2012-09-11T13:35:34Z</time></trkpt><trkpt lat="53.86799" lon="11.54993"><ele>32</ele><time>2012-09-11T13:36:02Z</time></trkpt><trkpt lat="53.86801" lon="11.54996"><ele>34</ele><time>2012-09-11T13:36:05Z</time></trkpt><trkpt lat="53.86802" lon="11.54999"><ele>35</ele><time>2012-09-11T13:36:08Z</time></trkpt><trkpt lat="53.86804" lon="11.55004"><ele>34</ele><time>2012-09-11T13:36:11Z</time></trkpt><trkpt lat="53.86806" lon="11.55010"><ele>31</ele><time>2012-09-11T13:36:14Z</time></trkpt><trkpt lat="53.86807" lon="11.55014"><ele>33</ele><time>2012-09-11T13:36:17Z</time></trkpt><trkpt lat="53.86812" lon="11.55027"><ele>38</ele><time>2012-09-11T13:36:26Z</time></trkpt><trkpt lat="53.86814" lon="11.55034"><ele>37</ele><time>2012-09-11T13:36:30Z</time></trkpt><trkpt lat="53.86829" lon="11.55081"><ele>37</ele><time>2012-09-11T13:37:00Z</time></trkpt><trkpt lat="53.86831" lon="11.55086"><ele>37</ele><time>2012-09-11T13:37:03Z</time></trkpt><trkpt lat="53.86836" lon="11.55100"><ele>39</ele><time>2012-09-11T13:37:11Z</time></trkpt><trkpt lat="53.86837" lon="11.55105"><ele>38</ele><time>2012-09-11T13:37:14Z</time></trkpt><trkpt lat="53.86842" lon="11.55118"><ele>40</ele><time>2012-09-11T13:37:23Z</time></trkpt><trkpt lat="53.86844" lon="11.55121"><ele>42</ele><time>2012-09-11T13:37:31Z</time></trkpt><trkpt lat="53.86846" lon="11.55125"><ele>42</ele><time>2012-09-11T13:37:33Z</time></trkpt><trkpt lat="53.86848" lon="11.55129"><ele>42</ele><time>2012-09-11T13:37:35Z</time></trkpt><trkpt lat="53.86849" lon="11.55134"><ele>40</ele><time>2012-09-11T13:37:38Z</time></trkpt><trkpt lat="53.86850" lon="11.55137"><ele>43</ele><time>2012-09-11T13:38:04Z</time></trkpt><trkpt lat="53.86852" lon="11.55144"><ele>41</ele><time>2012-09-11T13:38:08Z</time></trkpt><trkpt lat="53.86853" lon="11.55151"><ele>43</ele><time>2012-09-11T13:38:11Z</time></trkpt><trkpt lat="53.86855" lon="11.55156"><ele>42</ele><time>2012-09-11T13:38:13Z</time></trkpt><trkpt lat="53.86856" lon="11.55159"><ele>40</ele><time>2012-09-11T13:38:14Z</time></trkpt><trkpt lat="53.86867" lon="11.55193"><ele>43</ele><time>2012-09-11T13:38:22Z</time></trkpt><trkpt lat="53.86870" lon="11.55199"><ele>43</ele><time>2012-09-11T13:38:24Z</time></trkpt><trkpt lat="53.86874" lon="11.55212"><ele>44</ele><time>2012-09-11T13:38:27Z</time></trkpt><trkpt lat="53.86875" lon="11.55216"><ele>45</ele><time>2012-09-11T13:38:28Z</time></trkpt><trkpt lat="53.86877" lon="11.55225"><ele>47</ele><time>2012-09-11T13:38:30Z</time></trkpt><trkpt lat="53.86878" lon="11.55229"><ele>47</ele><time>2012-09-11T13:38:31Z</time></trkpt><trkpt lat="53.86884" lon="11.55244"><ele>49</ele><time>2012-09-11T13:38:34Z</time></trkpt><trkpt lat="53.86886" lon="11.55249"><ele>48</ele><time>2012-09-11T13:38:35Z</time></trkpt><trkpt lat="53.86888" lon="11.55255"><ele>48</ele><time>2012-09-11T13:38:36Z</time></trkpt><trkpt lat="53.86929" lon="11.55372"><ele>44</ele><time>2012-09-11T13:38:54Z</time></trkpt><trkpt lat="53.86981" lon="11.55520"><ele>43</ele><time>2012-09-11T13:39:10Z</time></trkpt><trkpt lat="53.87014" lon="11.55621"><ele>42</ele><time>2012-09-11T13:39:24Z</time></trkpt><trkpt lat="53.87018" lon="11.55630"><ele>35</ele><time>2012-09-11T13:39:26Z</time></trkpt><trkpt lat="53.87036" lon="11.55683"><ele>43</ele><time>2012-09-11T13:39:35Z</time></trkpt><trkpt lat="53.87038" lon="11.55689"><ele>42</ele><time>2012-09-11T13:39:36Z</time></trkpt><trkpt lat="53.87040" lon="11.55695"><ele>41</ele><time>2012-09-11T13:39:37Z</time></trkpt><trkpt lat="53.87042" lon="11.55706"><ele>38</ele><time>2012-09-11T13:39:39Z</time></trkpt><trkpt lat="53.87046" lon="11.55719"><ele>39</ele><time>2012-09-11T13:39:41Z</time></trkpt><trkpt lat="53.87050" lon="11.55728"><ele>42</ele><time>2012-09-11T13:39:43Z</time></trkpt><trkpt lat="53.87053" lon="11.55733"><ele>42</ele><time>2012-09-11T13:39:44Z</time></trkpt><trkpt lat="53.87070" lon="11.55778"><ele>39</ele><time>2012-09-11T13:39:53Z</time></trkpt><trkpt lat="53.87072" lon="11.55783"><ele>41</ele><time>2012-09-11T13:39:54Z</time></trkpt><trkpt lat="53.87073" lon="11.55788"><ele>43</ele><time>2012-09-11T13:39:55Z</time></trkpt><trkpt lat="53.87075" lon="11.55794"><ele>44</ele><time>2012-09-11T13:39:56Z</time></trkpt><trkpt lat="53.87077" lon="11.55799"><ele>46</ele><time>2012-09-11T13:39:57Z</time></trkpt><trkpt lat="53.87083" lon="11.55815"><ele>44</ele><time>2012-09-11T13:40:00Z</time></trkpt><trkpt lat="53.87085" lon="11.55821"><ele>44</ele><time>2012-09-11T13:40:01Z</time></trkpt><trkpt lat="53.87101" lon="11.55872"><ele>48</ele><time>2012-09-11T13:40:10Z</time></trkpt><trkpt lat="53.87105" lon="11.55879"><ele>42</ele><time>2012-09-11T13:40:12Z</time></trkpt><trkpt lat="53.87110" lon="11.55888"><ele>43</ele><time>2012-09-11T13:40:14Z</time></trkpt><trkpt lat="53.87135" lon="11.55931"><ele>44</ele><time>2012-09-11T13:40:25Z</time></trkpt><trkpt lat="53.87137" lon="11.55934"><ele>42</ele><time>2012-09-11T13:40:26Z</time></trkpt><trkpt lat="53.87139" lon="11.55936"><ele>41</ele><time>2012-09-11T13:40:27Z</time></trkpt><trkpt lat="53.87142" lon="11.55940"><ele>41</ele><time>2012-09-11T13:40:28Z</time></trkpt><trkpt lat="53.87150" lon="11.55952"><ele>49</ele><time>2012-09-11T13:40:31Z</time></trkpt><trkpt lat="53.87152" lon="11.55954"><ele>42</ele><time>2012-09-11T13:40:32Z</time></trkpt><trkpt lat="53.87154" lon="11.55956"><ele>43</ele><time>2012-09-11T13:40:33Z</time></trkpt><trkpt lat="53.87157" lon="11.55960"><ele>44</ele><time>2012-09-11T13:40:34Z</time></trkpt><trkpt lat="53.87165" lon="11.55972"><ele>42</ele><time>2012-09-11T13:40:38Z</time></trkpt><trkpt lat="53.87171" lon="11.55979"><ele>46</ele><time>2012-09-11T13:40:41Z</time></trkpt><trkpt lat="53.87173" lon="11.55982"><ele>48</ele><time>2012-09-11T13:40:42Z</time></trkpt><trkpt lat="53.87181" lon="11.55994"><ele>43</ele><time>2012-09-11T13:40:46Z</time></trkpt><trkpt lat="53.87183" lon="11.55999"><ele>41</ele><time>2012-09-11T13:40:48Z</time></trkpt><trkpt lat="53.87186" lon="11.56004"><ele>44</ele><time>2012-09-11T13:40:50Z</time></trkpt><trkpt lat="53.87194" lon="11.56018"><ele>46</ele><time>2012-09-11T13:40:55Z</time></trkpt><trkpt lat="53.87198" lon="11.56026"><ele>50</ele><time>2012-09-11T13:40:58Z</time></trkpt><trkpt lat="53.87204" lon="11.56035"><ele>47</ele><time>2012-09-11T13:41:01Z</time></trkpt><trkpt lat="53.87211" lon="11.56047"><ele>48</ele><time>2012-09-11T13:41:06Z</time></trkpt><trkpt lat="53.87214" lon="11.56050"><ele>49</ele><time>2012-09-11T13:41:08Z</time></trkpt><trkpt lat="53.87223" lon="11.56062"><ele>50</ele><time>2012-09-11T13:41:13Z</time></trkpt><trkpt lat="53.87229" lon="11.56068"><ele>50</ele><time>2012-09-11T13:41:17Z</time></trkpt><trkpt lat="53.87238" lon="11.56078"><ele>51</ele><time>2012-09-11T13:41:21Z</time></trkpt><trkpt lat="53.87240" lon="11.56081"><ele>50</ele><time>2012-09-11T13:41:22Z</time></trkpt><trkpt lat="53.87242" lon="11.56085"><ele>50</ele><time>2012-09-11T13:41:23Z</time></trkpt><trkpt lat="53.87243" lon="11.56092"><ele>48</ele><time>2012-09-11T13:41:25Z</time></trkpt><trkpt lat="53.87243" lon="11.56099"><ele>50</ele><time>2012-09-11T13:41:27Z</time></trkpt><trkpt lat="53.87241" lon="11.56106"><ele>50</ele><time>2012-09-11T13:41:29Z</time></trkpt><trkpt lat="53.87239" lon="11.56110"><ele>51</ele><time>2012-09-11T13:41:30Z</time></trkpt><trkpt lat="53.87238" lon="11.56114"><ele>52</ele><time>2012-09-11T13:41:31Z</time></trkpt><trkpt lat="53.87234" lon="11.56122"><ele>51</ele><time>2012-09-11T13:41:33Z</time></trkpt><trkpt lat="53.87229" lon="11.56138"><ele>49</ele><time>2012-09-11T13:41:36Z</time></trkpt><trkpt lat="53.87228" lon="11.56143"><ele>49</ele><time>2012-09-11T13:41:37Z</time></trkpt><trkpt lat="53.87225" lon="11.56149"><ele>49</ele><time>2012-09-11T13:41:38Z</time></trkpt><trkpt lat="53.87203" lon="11.56212"><ele>51</ele><time>2012-09-11T13:41:50Z</time></trkpt><trkpt lat="53.87199" lon="11.56223"><ele>51</ele><time>2012-09-11T13:41:52Z</time></trkpt><trkpt lat="53.87198" lon="11.56228"><ele>53</ele><time>2012-09-11T13:41:53Z</time></trkpt><trkpt lat="53.87185" lon="11.56265"><ele>54</ele><time>2012-09-11T13:41:59Z</time></trkpt><trkpt lat="53.87181" lon="11.56279"><ele>50</ele><time>2012-09-11T13:42:01Z</time></trkpt><trkpt lat="53.87179" lon="11.56284"><ele>48</ele><time>2012-09-11T13:42:02Z</time></trkpt><trkpt lat="53.87178" lon="11.56289"><ele>49</ele><time>2012-09-11T13:42:03Z</time></trkpt><trkpt lat="53.87169" lon="11.56322"><ele>44</ele><time>2012-09-11T13:42:10Z</time></trkpt><trkpt lat="53.87167" lon="11.56327"><ele>47</ele><time>2012-09-11T13:42:11Z</time></trkpt><trkpt lat="53.87162" lon="11.56341"><ele>51</ele><time>2012-09-11T13:42:14Z</time></trkpt><trkpt lat="53.87160" lon="11.56346"><ele>50</ele><time>2012-09-11T13:42:15Z</time></trkpt><trkpt lat="53.87154" lon="11.56369"><ele>51</ele><time>2012-09-11T13:42:19Z</time></trkpt><trkpt lat="53.87150" lon="11.56379"><ele>57</ele><time>2012-09-11T13:42:21Z</time></trkpt><trkpt lat="53.87145" lon="11.56390"><ele>51</ele><time>2012-09-11T13:42:23Z</time></trkpt><trkpt lat="53.87139" lon="11.56404"><ele>54</ele><time>2012-09-11T13:42:26Z</time></trkpt><trkpt lat="53.87137" lon="11.56411"><ele>51</ele><time>2012-09-11T13:42:27Z</time></trkpt><trkpt lat="53.87136" lon="11.56417"><ele>47</ele><time>2012-09-11T13:42:28Z</time></trkpt><trkpt lat="53.87137" lon="11.56430"><ele>49</ele><time>2012-09-11T13:42:30Z</time></trkpt><trkpt lat="53.87138" lon="11.56434"><ele>51</ele><time>2012-09-11T13:42:31Z</time></trkpt><trkpt lat="53.87142" lon="11.56451"><ele>52</ele><time>2012-09-11T13:42:34Z</time></trkpt><trkpt lat="53.87151" lon="11.56484"><ele>47</ele><time>2012-09-11T13:42:40Z</time></trkpt><trkpt lat="53.87153" lon="11.56489"><ele>48</ele><time>2012-09-11T13:42:41Z</time></trkpt><trkpt lat="53.87154" lon="11.56494"><ele>46</ele><time>2012-09-11T13:42:42Z</time></trkpt><trkpt lat="53.87155" lon="11.56497"><ele>49</ele><time>2012-09-11T13:42:43Z</time></trkpt><trkpt lat="53.87162" lon="11.56516"><ele>48</ele><time>2012-09-11T13:42:47Z</time></trkpt><trkpt lat="53.87164" lon="11.56521"><ele>46</ele><time>2012-09-11T13:42:48Z</time></trkpt><trkpt lat="53.87185" lon="11.56576"><ele>54</ele><time>2012-09-11T13:42:59Z</time></trkpt><trkpt lat="53.87187" lon="11.56583"><ele>53</ele><time>2012-09-11T13:43:00Z</time></trkpt><trkpt lat="53.87190" lon="11.56594"><ele>51</ele><time>2012-09-11T13:43:01Z</time></trkpt><trkpt lat="53.87193" lon="11.56608"><ele>51</ele><time>2012-09-11T13:43:03Z</time></trkpt><trkpt lat="53.87195" lon="11.56628"><ele>47</ele><time>2012-09-11T13:43:05Z</time></trkpt><trkpt lat="53.87197" lon="11.56649"><ele>46</ele><time>2012-09-11T13:43:07Z</time></trkpt><trkpt lat="53.87198" lon="11.56668"><ele>45</ele><time>2012-09-11T13:43:09Z</time></trkpt><trkpt lat="53.87197" lon="11.56676"><ele>46</ele><time>2012-09-11T13:43:10Z</time></trkpt><trkpt lat="53.87196" lon="11.56685"><ele>46</ele><time>2012-09-11T13:43:11Z</time></trkpt><trkpt lat="53.87193" lon="11.56708"><ele>44</ele><time>2012-09-11T13:43:14Z</time></trkpt><trkpt lat="53.87195" lon="11.56715"><ele>45</ele><time>2012-09-11T13:43:15Z</time></trkpt><trkpt lat="53.87198" lon="11.56721"><ele>44</ele><time>2012-09-11T13:43:16Z</time></trkpt><trkpt lat="53.87201" lon="11.56724"><ele>44</ele><time>2012-09-11T13:43:17Z</time></trkpt><trkpt lat="53.87211" lon="11.56731"><ele>45</ele><time>2012-09-11T13:43:20Z</time></trkpt><trkpt lat="53.87219" lon="11.56736"><ele>46</ele><time>2012-09-11T13:43:22Z</time></trkpt><trkpt lat="53.87239" lon="11.56752"><ele>48</ele><time>2012-09-11T13:43:28Z</time></trkpt><trkpt lat="53.87245" lon="11.56757"><ele>48</ele><time>2012-09-11T13:43:30Z</time></trkpt><trkpt lat="53.87255" lon="11.56766"><ele>47</ele><time>2012-09-11T13:43:34Z</time></trkpt><trkpt lat="53.87257" lon="11.56769"><ele>47</ele><time>2012-09-11T13:43:35Z</time></trkpt><trkpt lat="53.87265" lon="11.56777"><ele>47</ele><time>2012-09-11T13:43:38Z</time></trkpt><trkpt lat="53.87267" lon="11.56775"><ele>46</ele><time>2012-09-11T13:43:39Z</time></trkpt><trkpt lat="53.87268" lon="11.56772"><ele>47</ele><time>2012-09-11T13:43:40Z</time></trkpt><trkpt lat="53.87270" lon="11.56769"><ele>47</ele><time>2012-09-11T13:43:41Z</time></trkpt><trkpt lat="53.87271" lon="11.56765"><ele>47</ele><time>2012-09-11T13:43:42Z</time></trkpt><trkpt lat="53.87276" lon="11.56755"><ele>46</ele><time>2012-09-11T13:43:45Z</time></trkpt><trkpt lat="53.87279" lon="11.56754"><ele>47</ele><time>2012-09-11T13:43:46Z</time></trkpt><trkpt lat="53.87283" lon="11.56755"><ele>47</ele><time>2012-09-11T13:43:47Z</time></trkpt><trkpt lat="53.87289" lon="11.56758"><ele>48</ele><time>2012-09-11T13:43:49Z</time></trkpt><trkpt lat="53.87292" lon="11.56761"><ele>48</ele><time>2012-09-11T13:43:50Z</time></trkpt><trkpt lat="53.87303" lon="11.56770"><ele>44</ele><time>2012-09-11T13:43:54Z</time></trkpt><trkpt lat="53.87306" lon="11.56772"><ele>45</ele><time>2012-09-11T13:43:55Z</time></trkpt><trkpt lat="53.87310" lon="11.56773"><ele>45</ele><time>2012-09-11T13:43:56Z</time></trkpt><trkpt lat="53.87320" lon="11.56775"><ele>45</ele><time>2012-09-11T13:43:58Z</time></trkpt><trkpt lat="53.87326" lon="11.56773"><ele>44</ele><time>2012-09-11T13:43:59Z</time></trkpt><trkpt lat="53.87330" lon="11.56769"><ele>44</ele><time>2012-09-11T13:44:00Z</time></trkpt><trkpt lat="53.87334" lon="11.56763"><ele>43</ele><time>2012-09-11T13:44:01Z</time></trkpt><trkpt lat="53.87337" lon="11.56757"><ele>43</ele><time>2012-09-11T13:44:02Z</time></trkpt><trkpt lat="53.87343" lon="11.56740"><ele>46</ele><time>2012-09-11T13:44:04Z</time></trkpt><trkpt lat="53.87345" lon="11.56732"><ele>48</ele><time>2012-09-11T13:44:05Z</time></trkpt><trkpt lat="53.87353" lon="11.56699"><ele>49</ele><time>2012-09-11T13:44:10Z</time></trkpt><trkpt lat="53.87356" lon="11.56691"><ele>49</ele><time>2012-09-11T13:44:12Z</time></trkpt><trkpt lat="53.87372" lon="11.56644"><ele>47</ele><time>2012-09-11T13:44:26Z</time></trkpt><trkpt lat="53.87376" lon="11.56642"><ele>47</ele><time>2012-09-11T13:44:28Z</time></trkpt><trkpt lat="53.87379" lon="11.56642"><ele>46</ele><time>2012-09-11T13:44:29Z</time></trkpt><trkpt lat="53.87381" lon="11.56644"><ele>46</ele><time>2012-09-11T13:44:30Z</time></trkpt><trkpt lat="53.87386" lon="11.56647"><ele>45</ele><time>2012-09-11T13:44:32Z</time></trkpt><trkpt lat="53.87389" lon="11.56650"><ele>46</ele><time>2012-09-11T13:44:33Z</time></trkpt><trkpt lat="53.87394" lon="11.56654"><ele>46</ele><time>2012-09-11T13:44:35Z</time></trkpt><trkpt lat="53.87396" lon="11.56650"><ele>48</ele><time>2012-09-11T13:44:37Z</time></trkpt><trkpt lat="53.87396" lon="11.56650"><ele>48</ele><time>2012-09-11T13:44:37Z</time></trkpt></trkseg></trk></gpx>